[[{"header":{"parameterUnit":"m.s-1","parameterCategory":1,"la1":30.6,"la2":28.766,"lo1":-90.7593,"lo2":-88.6598,"dy":0.0162,"dx":0.0183,"nx":116,"ny":114,"refTime":"2024-04-14T18:00:00:Z","depth":0,"parameterNumber":2,"parameterNumberName":"U-component_of_WINDS"},"data":[0.0,0.0,0.0,0.0,0.0,0.0,0.0,0.0,0.0,0.0,0.0,0.0,0.0,0.0,0.0,0.0,0.0,0.0,0.0,0.0,0.0,0.0,0.0,0.0,0.0,0.0,0.0,0.0,0.0,0.0,0.0,0.0,0.0,0.0,0.0,0.0,0.0,0.0,0.0,0.0,0.0,0.0,0.0,0.0,0.0,0.0,0.0,0.0,0.0,0.0,0.0,0.0,0.0,0.0,0.0,0.0,0.0,0.0,0.0,0.0,0.0,0.0,0.0,0.0,0.0,0.0,0.0,0.0,0.0,0.0,0.0,0.0,0.0,0.0,0.0,0.0,0.0,0.0,0.0,0.0,0.0,0.0,0.0,0.0,0.0,0.0,0.0,0.0,0.0,0.0,0.0,0.0,0.0,0.0,0.0,0.0,0.0,0.0,0.0,0.0,0.0,0.0,0.0,0.0,0.0,0.0,0.0,0.0,0.0,0.0,0.0,0.0,0.0,0.0,0.0,0.0,0.0,0.0,0.0,0.0,0.0,0.0,0.0,0.0,0.0,0.0,0.0,0.0,0.0,0.0,0.0,0.0,0.0,0.0,0.0,0.0,0.0,0.0,0.0,0.0,0.0,0.0,0.0,0.0,0.0,0.0,0.0,0.0,0.0,0.0,0.0,0.0,0.0,0.0,0.0,0.0,0.0,0.0,0.0,0.0,0.0,0.0,0.0,0.0,0.0,0.0,0.0,0.0,0.0,0.0,0.0,0.0,0.0,0.0,0.0,0.0,0.0,0.0,0.0,0.0,0.0,0.0,0.0,0.0,0.0,0.0,0.0,0.0,0.0,0.0,0.0,0.0,0.0,0.0,0.0,0.0,0.0,0.0,0.0,0.0,0.0,0.0,0.0,0.0,0.0,0.0,0.0,0.0,0.0,0.0,0.0,0.0,0.0,0.0,0.0,0.0,0.0,0.0,0.0,0.0,0.0,0.0,0.0,0.0,0.0,0.0,0.0,0.0,0.0,0.0,0.0,0.0,0.0,0.0,0.0,0.0,0.0,0.0,0.0,0.0,0.0,0.0,0.0,0.0,0.0,0.0,0.0,0.0,0.0,0.0,0.0,0.0,0.0,0.0,0.0,0.0,0.0,0.0,0.0,0.0,0.0,0.0,0.0,0.0,0.0,0.0,0.0,0.0,0.0,0.0,0.0,0.0,0.0,0.0,0.0,0.0,0.0,0.0,0.0,0.0,0.0,0.0,0.0,0.0,0.0,0.0,0.0,0.0,0.0,0.0,0.0,0.0,0.0,0.0,0.0,0.0,0.0,0.0,0.0,0.0,0.0,0.0,0.0,0.0,0.0,0.0,0.0,0.0,0.0,0.0,0.0,0.0,0.0,0.0,0.0,0.0,0.0,0.0,0.0,0.0,0.0,0.0,0.0,0.0,0.0,0.0,0.0,0.0,0.0,0.0,0.0,0.0,0.0,0.0,0.0,0.0,0.0,0.0,0.0,0.0,0.0,0.0,0.0,0.0,0.0,0.0,0.0,0.0,0.0,0.0,0.0,0.0,0.0,0.0,0.0,0.0,0.0,0.0,0.0,0.0,0.0,0.0,0.0,0.0,0.0,0.0,0.0,0.0,0.0,0.0,0.0,0.0,0.0,0.0,0.0,0.0,0.0,0.0,0.0,0.0,0.0,0.0,0.0,0.0,0.0,0.0,0.0,0.0,0.0,0.0,0.0,0.0,0.0,0.0,0.0,0.0,0.0,0.0,0.0,0.0,0.0,0.0,0.0,0.0,0.0,0.0,0.0,0.0,0.0,0.0,0.0,0.0,0.0,0.0,0.0,0.0,0.0,0.0,0.0,0.0,0.0,0.0,0.0,0.0,0.0,0.0,0.0,0.0,0.0,0.0,0.0,0.0,0.0,0.0,0.0,0.0,0.0,0.0,0.0,0.0,0.0,0.0,0.0,0.0,0.0,0.0,0.0,0.0,0.0,0.0,0.0,0.0,0.0,0.0,0.0,0.0,0.0,0.0,0.0,0.0,0.0,0.0,0.0,0.0,0.0,0.0,0.0,0.0,0.0,0.0,0.0,0.0,0.0,0.0,0.0,0.0,0.0,0.0,0.0,0.0,0.0,0.0,0.0,0.0,0.0,0.0,0.0,0.0,0.0,0.0,0.0,0.0,0.0,0.0,0.0,0.0,0.0,0.0,0.0,0.0,0.0,0.0,0.0,0.0,0.0,0.0,0.0,0.0,0.0,0.0,0.0,0.0,0.0,0.0,0.0,0.0,0.0,0.0,0.0,0.0,0.0,0.0,0.0,0.0,0.0,0.0,0.0,0.0,0.0,0.0,0.0,0.0,0.0,0.0,0.0,0.0,0.0,0.0,0.0,0.0,0.0,0.0,0.0,0.0,0.0,0.0,0.0,0.0,0.0,0.0,0.0,0.0,0.0,0.0,0.0,0.0,0.0,0.0,0.0,0.0,0.0,0.0,0.0,0.0,0.0,0.0,0.0,0.0,0.0,0.0,0.0,0.0,0.0,0.0,0.0,0.0,0.0,0.0,0.0,0.0,0.0,0.0,0.0,0.0,0.0,0.0,0.0,0.0,0.0,0.0,0.0,0.0,0.0,0.0,0.0,0.0,0.0,0.0,0.0,0.0,0.0,0.0,0.0,0.0,0.0,0.0,0.0,0.0,0.0,0.0,0.0,0.0,0.0,0.0,0.0,0.0,0.0,0.0,0.0,0.0,0.0,0.0,0.0,0.0,0.0,0.0,0.0,0.0,0.0,0.0,0.0,0.0,0.0,0.0,0.0,0.0,0.0,0.0,0.0,0.0,0.0,0.0,0.0,0.0,0.0,0.0,0.0,0.0,0.0,0.0,0.0,0.0,0.0,0.0,0.0,0.0,0.0,0.0,0.0,0.0,0.0,0.0,0.0,0.0,0.0,0.0,0.0,0.0,0.0,0.0,0.0,0.0,0.0,0.0,0.0,0.0,0.0,0.0,0.0,0.0,0.0,0.0,0.0,0.0,0.0,0.0,0.0,0.0,0.0,0.0,0.0,0.0,0.0,0.0,0.0,0.0,0.0,0.0,0.0,0.0,0.0,0.0,0.0,0.0,0.0,0.0,0.0,0.0,0.0,0.0,0.0,0.0,0.0,0.0,0.0,0.0,0.0,0.0,0.0,0.0,0.0,0.0,0.0,0.0,0.0,0.0,0.0,0.0,0.0,0.0,0.0,0.0,0.0,0.0,0.0,0.0,0.0,0.0,0.0,0.0,0.0,0.0,0.0,0.0,0.0,0.0,0.0,0.0,0.0,0.0,0.0,0.0,0.0,0.0,0.0,0.0,0.0,0.0,0.0,0.0,0.0,0.0,0.0,0.0,0.0,0.0,0.0,0.0,0.0,0.0,0.0,0.0,0.0,0.0,0.0,0.0,0.0,0.0,0.0,0.0,0.0,0.0,0.0,0.0,0.0,0.0,0.0,0.0,0.0,0.0,0.0,0.0,0.0,0.0,0.0,0.0,0.0,0.0,0.0,0.0,0.0,0.0,0.0,0.0,0.0,0.0,0.0,0.0,0.0,0.0,0.0,0.0,0.0,0.0,0.0,0.0,0.0,0.0,0.0,0.0,0.0,0.0,0.0,0.0,0.0,0.0,0.0,0.0,0.0,0.0,0.0,0.0,0.0,0.0,0.0,0.0,0.0,0.0,0.0,0.0,0.0,0.0,0.0,0.0,0.0,0.0,0.0,0.0,0.0,0.0,0.0,0.0,0.0,0.0,0.0,0.0,0.0,0.0,0.0,0.0,0.0,0.0,0.0,0.0,0.0,0.0,0.0,0.0,0.0,0.0,0.0,0.0,0.0,0.0,0.0,0.0,0.0,0.0,0.0,0.0,0.0,0.0,0.0,0.0,0.0,0.0,0.0,0.0,0.0,0.0,0.0,0.0,0.0,0.0,0.0,0.0,0.0,0.0,0.0,0.0,0.0,0.0,0.0,0.0,0.0,0.0,0.0,0.0,0.0,0.0,0.0,0.0,0.0,0.0,0.0,0.0,0.0,0.0,0.0,0.0,0.0,0.0,0.0,0.0,0.0,0.0,0.0,0.0,0.0,0.0,0.0,0.0,0.0,0.0,0.0,0.0,0.0,0.0,0.0,0.0,0.0,0.0,0.0,0.0,0.0,0.0,0.0,0.0,0.0,0.0,0.0,0.0,0.0,0.0,0.0,0.0,0.0,0.0,0.0,0.0,0.0,0.0,0.0,0.0,0.0,0.0,0.0,0.0,0.0,0.0,0.0,0.0,0.0,0.0,0.0,0.0,0.0,0.0,0.0,0.0,0.0,0.0,0.0,0.0,0.0,0.0,0.0,0.0,0.0,0.0,0.0,0.0,0.0,0.0,0.0,0.0,0.0,0.0,0.0,0.0,0.0,0.0,0.0,0.0,0.0,0.0,0.0,0.0,0.0,0.0,0.0,0.0,0.0,0.0,0.0,0.0,0.0,0.0,0.0,0.0,0.0,0.0,0.0,0.0,0.0,0.0,0.0,0.0,0.0,0.0,0.0,0.0,0.0,0.0,0.0,0.0,0.0,0.0,0.0,0.0,0.0,0.0,0.0,0.0,0.0,0.0,0.0,0.0,0.0,0.0,0.0,0.0,0.0,0.0,0.0,0.0,0.0,0.0,0.0,0.0,0.0,0.0,0.0,0.0,0.0,0.0,0.0,0.0,0.0,0.0,0.0,0.0,0.0,0.0,0.0,0.0,0.0,0.0,0.0,0.0,0.0,0.0,0.0,0.0,0.0,0.0,0.0,0.0,0.0,0.0,0.0,0.0,0.0,0.0,0.0,0.0,0.0,0.0,0.0,0.0,0.0,0.0,0.0,0.0,0.0,0.0,0.0,0.0,0.0,0.0,0.0,0.0,0.0,0.0,0.0,0.0,0.0,0.0,0.0,0.0,0.0,0.0,0.0,0.0,0.0,0.0,0.0,0.0,0.0,0.0,0.0,0.0,0.0,0.0,0.0,0.0,0.0,0.0,0.0,0.0,0.0,0.0,0.0,0.0,0.0,0.0,0.0,0.0,0.0,0.0,0.0,0.0,0.0,0.0,0.0,0.0,0.0,0.0,0.0,0.0,0.0,0.0,0.0,0.0,0.0,0.0,0.0,0.0,0.0,0.0,0.0,0.0,0.0,0.0,0.0,0.0,0.0,0.0,0.0,0.0,0.0,0.0,0.0,0.0,0.0,0.0,0.0,0.0,0.0,0.0,0.0,0.0,0.0,0.0,0.0,0.0,0.0,0.0,0.0,0.0,0.0,0.0,0.0,0.0,0.0,0.0,0.0,0.0,0.0,0.0,0.0,0.0,0.0,0.0,0.0,0.0,0.0,0.0,0.0,0.0,0.0,0.0,0.0,0.0,0.0,0.0,0.0,0.0,0.0,0.0,0.0,0.0,0.0,0.0,0.0,0.0,0.0,0.0,0.0,0.0,0.0,0.0,0.0,0.0,0.0,0.0,0.0,0.0,0.0,0.0,0.0,0.0,0.0,0.0,0.0,0.0,0.0,0.0,0.0,0.0,0.0,0.0,0.0,0.0,0.0,0.0,0.0,0.0,0.0,0.0,0.0,0.0,0.0,0.0,0.0,0.0,0.0,0.0,0.0,0.0,0.0,0.0,0.0,0.0,0.0,0.0,0.0,0.0,0.0,0.0,0.0,0.0,0.0,0.0,0.0,0.0,0.0,0.0,0.0,0.0,0.0,0.0,0.0,0.0,0.0,0.0,0.0,0.0,0.0,0.0,0.0,0.0,0.0,0.0,0.0,0.0,0.0,0.0,0.0,0.0,0.0,0.0,0.0,0.0,0.0,0.0,0.0,0.0,0.0,0.0,0.0,0.0,0.0,0.0,0.0,0.0,0.0,0.0,0.0,0.0,0.0,0.0,0.0,0.0,0.0,0.0,0.0,0.0,0.0,0.0,0.0,0.0,0.0,0.0,0.0,0.0,0.0,0.0,0.0,0.0,0.0,0.0,0.0,0.0,0.0,0.0,0.0,0.0,0.0,0.0,0.0,0.0,0.0,0.0,0.0,0.0,0.0,0.0,0.0,0.0,-4.9096,0.0,0.0,0.0,0.0,0.0,0.0,0.0,0.0,0.0,0.0,0.0,0.0,0.0,0.0,0.0,0.0,0.0,0.0,0.0,0.0,0.0,0.0,0.0,0.0,-4.2854,-4.3096,-4.3041,-4.3024,-4.3153,-4.3493,-4.3015,0.0,0.0,0.0,0.0,-4.2189,-4.2121,-4.2071,-4.2071,-4.2348,-4.2912,-4.3704,-4.4154,-4.4527,-4.4865,0.0,0.0,0.0,0.0,0.0,0.0,0.0,0.0,0.0,0.0,0.0,0.0,0.0,0.0,0.0,0.0,0.0,0.0,0.0,0.0,0.0,0.0,0.0,0.0,0.0,0.0,0.0,0.0,0.0,0.0,0.0,0.0,0.0,0.0,0.0,0.0,0.0,0.0,0.0,0.0,0.0,0.0,0.0,0.0,0.0,0.0,0.0,0.0,0.0,0.0,0.0,0.0,0.0,0.0,0.0,0.0,0.0,0.0,0.0,0.0,0.0,0.0,0.0,0.0,0.0,0.0,0.0,0.0,0.0,0.0,0.0,-4.9206,0.0,0.0,0.0,0.0,0.0,0.0,0.0,0.0,0.0,0.0,0.0,0.0,0.0,0.0,0.0,0.0,0.0,0.0,0.0,0.0,0.0,-4.1566,-4.1566,-4.2354,-4.278,-4.2593,-4.2691,-4.2715,-4.2556,-4.2293,-4.2159,-4.22,-4.1886,-4.1713,-4.1657,-4.1509,-4.1491,-4.164,-4.2418,-4.3132,-4.3782,-4.3931,-4.4218,-4.4573,-4.4613,0.0,0.0,0.0,0.0,0.0,0.0,0.0,0.0,0.0,0.0,0.0,0.0,0.0,0.0,0.0,0.0,0.0,0.0,0.0,0.0,0.0,0.0,0.0,0.0,0.0,0.0,0.0,0.0,0.0,0.0,0.0,0.0,0.0,0.0,0.0,0.0,0.0,0.0,0.0,0.0,0.0,0.0,0.0,0.0,0.0,0.0,0.0,0.0,0.0,0.0,0.0,0.0,0.0,0.0,0.0,0.0,0.0,0.0,0.0,0.0,0.0,0.0,0.0,-4.9652,-4.9689,-5.0302,-4.9652,-4.9336,-4.9336,-4.9187,-4.9039,-4.8834,-4.8036,0.0,0.0,0.0,0.0,0.0,0.0,0.0,0.0,0.0,0.0,0.0,0.0,0.0,0.0,0.0,0.0,0.0,0.0,0.0,-4.0669,-4.0669,-4.145,-4.1665,-4.0894,-4.1466,-4.1771,-4.15,-4.0771,-4.0522,-4.0929,-4.019,-3.97,-3.9513,-3.9486,-3.9844,-4.0607,-4.2069,-4.2853,-4.2965,-4.367,-4.4036,-4.4113,-4.4265,-4.4876,-4.5704,0.0,0.0,0.0,0.0,0.0,0.0,0.0,0.0,0.0,0.0,0.0,0.0,0.0,0.0,0.0,0.0,0.0,0.0,0.0,0.0,0.0,0.0,0.0,0.0,0.0,0.0,0.0,0.0,0.0,0.0,0.0,0.0,0.0,0.0,0.0,0.0,0.0,0.0,0.0,0.0,0.0,-4.7582,-4.8397,0.0,0.0,0.0,0.0,0.0,0.0,0.0,0.0,0.0,0.0,0.0,0.0,0.0,-5.0005,-4.9949,-5.0692,-5.1119,-5.1231,-5.1119,-5.1138,-5.1231,-5.1119,-5.1063,-5.1026,-5.0283,0.0,-4.8834,-4.8036,0.0,0.0,0.0,0.0,0.0,0.0,0.0,0.0,0.0,0.0,0.0,0.0,0.0,0.0,0.0,0.0,0.0,0.0,0.0,0.0,0.0,-4.1277,-4.1629,-4.1217,-4.1909,-4.2049,-4.1284,-4.0813,-4.0384,-3.9989,-3.9504,-3.9197,-3.9101,-3.9584,-4.0457,-4.1739,-4.2445,-4.302,-4.3485,-4.3838,-4.3974,-4.3961,-4.4051,-4.4375,-4.483,-4.4976,0.0,0.0,0.0,0.0,0.0,0.0,0.0,0.0,0.0,0.0,0.0,0.0,0.0,0.0,0.0,0.0,0.0,0.0,0.0,0.0,0.0,0.0,0.0,0.0,0.0,0.0,0.0,0.0,0.0,0.0,0.0,0.0,0.0,0.0,0.0,0.0,0.0,0.0,0.0,-4.6756,-4.773,-4.8064,-4.8455,-4.8732,0.0,0.0,0.0,0.0,0.0,0.0,0.0,0.0,0.0,-4.8909,-4.9707,-5.0135,-5.0098,-5.0971,-5.1584,-5.1955,-5.151,-5.1491,-5.1898,-5.1435,-5.1231,-5.1194,-5.0579,-4.9971,-4.9287,-4.7669,-4.6828,-4.6364,0.0,0.0,0.0,0.0,-4.4005,-4.4005,0.0,0.0,0.0,0.0,0.0,0.0,0.0,0.0,0.0,0.0,0.0,0.0,-4.0804,-4.1612,-4.2099,-4.2016,-4.2754,-4.2642,-4.1244,-4.1052,-4.0502,-3.9362,-3.9183,-3.9101,-3.9101,-4.016,-4.1293,-4.2482,-4.3098,-4.3695,-4.4289,-4.4461,-4.4543,-4.4496,-4.4716,-4.4582,-4.4294,-4.4721,-4.4202,-4.2977,0.0,0.0,0.0,0.0,0.0,0.0,0.0,0.0,0.0,0.0,0.0,0.0,0.0,0.0,0.0,0.0,0.0,0.0,0.0,0.0,0.0,0.0,0.0,0.0,0.0,0.0,0.0,0.0,0.0,0.0,0.0,0.0,0.0,0.0,0.0,0.0,0.0,-4.7072,-4.7622,-4.7826,-4.8327,-4.8679,0.0,0.0,0.0,0.0,0.0,0.0,-4.8846,-4.8882,-4.8975,-4.9159,-4.9934,-5.0378,-5.0378,-5.119,-5.1871,-5.2381,-5.1773,-5.177,-5.2279,-5.1671,-5.1395,-5.1395,-5.0871,-5.0344,-4.9686,-4.761,-4.6625,-4.6279,-4.4733,-4.408,-4.3958,-4.3894,-4.3876,-4.3876,0.0,0.0,0.0,0.0,0.0,0.0,0.0,0.0,0.0,0.0,0.0,-4.0893,-4.1643,-4.251,-4.2986,-4.2849,-4.3636,-4.3242,-4.1161,-4.1,-4.0453,-3.918,-3.9115,-3.9101,-3.9101,-4.0698,-4.1571,-4.1664,-4.3889,-4.5008,-4.5064,-4.5759,-4.6095,-4.6114,-4.687,-4.6388,-4.491,-4.419,-4.3839,-4.3656,-4.2807,0.0,0.0,0.0,0.0,0.0,0.0,0.0,0.0,0.0,0.0,0.0,0.0,0.0,0.0,0.0,0.0,0.0,0.0,0.0,0.0,0.0,0.0,0.0,0.0,0.0,0.0,0.0,0.0,0.0,0.0,0.0,0.0,0.0,0.0,0.0,0.0,0.0,0.0,-4.8457,-4.8345,0.0,0.0,0.0,0.0,-4.8153,-4.8307,-4.8485,-4.8705,-4.8823,-4.9204,-4.9836,-5.0619,-5.104,-5.104,-5.1842,-5.2259,-5.2295,-5.2259,-5.2259,-5.2295,-5.2259,-5.2241,-5.2205,-5.1416,-5.0655,-4.9862,-4.8155,-4.6975,-4.6095,-4.4929,-4.4244,-4.3865,-4.3634,-4.3582,-4.3579,0.0,0.0,0.0,0.0,0.0,-4.0323,-3.9804,-4.0169,-4.0304,-3.9804,-4.0696,-4.1493,-4.1836,-4.3561,-4.4451,-4.3787,-4.4422,-4.3969,-4.1912,-4.1174,-4.0295,-3.9152,-3.9101,-3.9602,-4.068,-4.1794,-4.289,-4.3968,-4.5261,-4.5879,-4.5879,-4.6093,-4.6171,-4.6154,-4.6431,-4.6192,-4.5569,-4.5415,-4.506,-4.445,-4.3068,-4.23,0.0,0.0,0.0,0.0,0.0,0.0,0.0,0.0,0.0,0.0,0.0,0.0,0.0,0.0,0.0,0.0,0.0,0.0,0.0,0.0,0.0,0.0,0.0,0.0,0.0,0.0,0.0,0.0,0.0,0.0,0.0,0.0,0.0,0.0,0.0,0.0,0.0,-4.8567,-4.8285,0.0,-4.8381,-4.8535,-4.8535,-4.8308,-4.8804,-4.9177,-4.9334,-4.9396,-4.9523,-4.9744,-5.0633,-5.1099,-5.1099,-5.19,-5.2294,-5.2237,-5.2237,-5.219,-5.2119,-5.2119,-5.2119,-5.2078,-5.1526,-5.0731,-4.9712,-4.861,-4.7425,-4.6241,-4.5268,-4.4816,-4.4674,-4.4561,-4.4524,-4.447,0.0,0.0,0.0,0.0,0.0,-4.0227,-3.9419,-3.9977,-4.0208,-3.9415,-4.0781,-4.2067,-4.2711,-4.4465,-4.5453,-4.512,-4.5138,-4.4319,-4.2327,-4.1261,-4.0216,-3.9152,-3.938,-4.0048,-4.1163,-4.2519,-4.3729,-4.4846,-4.6064,-4.6792,-4.7052,-4.7241,-4.7463,-4.7684,-4.7684,-4.7628,-4.7535,-4.7408,-4.6412,-4.4773,-4.3391,-4.2807,-4.263,0.0,0.0,0.0,0.0,0.0,0.0,0.0,0.0,0.0,0.0,0.0,0.0,0.0,0.0,0.0,0.0,0.0,0.0,0.0,0.0,0.0,0.0,0.0,0.0,0.0,0.0,0.0,0.0,0.0,0.0,0.0,0.0,0.0,0.0,0.0,-4.6814,-4.8804,-4.8774,-4.8825,-4.941,-4.9552,-4.9552,-4.9388,-4.9627,-4.9847,-4.9989,-5.0121,-5.0246,-5.0399,-5.1339,-5.1614,-5.1229,-5.1889,-5.2032,-5.1658,-5.1743,-5.1694,-5.1637,-5.1637,-5.1637,-5.1594,-5.1055,-5.0246,-4.9233,-4.84,-4.7349,-4.6207,-4.553,-4.5191,-4.5062,-4.496,-4.4957,-4.4831,0.0,0.0,0.0,0.0,0.0,-4.0227,-3.94,-3.9977,-4.0196,-3.9367,-4.0819,-4.2587,-4.4318,-4.5194,-4.5963,-4.6704,-4.5738,-4.4262,-4.2289,-4.1211,-4.0197,-3.9189,-3.9937,-4.0453,-4.0494,-4.2835,-4.4032,-4.4027,-4.6349,-4.7831,-4.855,-4.9282,-5.005,-5.0802,-5.0802,-5.0802,-5.0747,-4.9978,-4.7755,-4.4745,-4.3901,-4.3519,-4.3265,0.0,0.0,0.0,0.0,0.0,0.0,0.0,0.0,0.0,0.0,0.0,0.0,0.0,0.0,0.0,0.0,0.0,0.0,0.0,0.0,0.0,0.0,0.0,0.0,0.0,0.0,0.0,0.0,0.0,0.0,0.0,0.0,0.0,-4.615,-4.6884,-4.7743,-4.9156,-4.9788,-5.0596,-5.185,-5.149,-5.1191,-5.1252,-5.0662,-5.0388,-5.062,-5.0935,-5.1331,-5.1815,-5.2684,-5.2628,-5.1529,-5.1812,-5.151,-5.0612,-5.0819,-5.0891,-5.0891,-5.0891,-5.0891,-5.0855,-5.0057,-4.924,-4.8425,-4.7568,-4.6722,-4.5978,-4.5723,-4.536,-4.4985,-4.4725,-4.4664,-4.4525,0.0,0.0,0.0,-4.0534,-4.0496,-4.0015,-3.8584,-3.9592,-3.9992,-3.8604,-4.097,-4.3208,-4.4368,-4.6232,-4.7009,-4.6028,-4.5324,-4.3919,-4.1484,-4.0207,-3.9704,-4.0044,-4.0285,-4.1219,-4.2965,-4.4283,-4.5496,-4.6583,-4.8291,-4.9214,-4.9397,-5.0108,-5.0582,-5.0802,-5.0802,-5.0802,-5.0784,-5.0563,-4.926,-4.7205,-4.5792,-4.4874,-4.4215,0.0,0.0,0.0,0.0,0.0,0.0,0.0,0.0,0.0,0.0,0.0,0.0,0.0,0.0,0.0,0.0,0.0,0.0,0.0,0.0,0.0,0.0,0.0,0.0,0.0,0.0,0.0,0.0,0.0,0.0,0.0,0.0,-4.5164,-4.6627,-4.7132,-4.8091,-5.0065,-5.04,-5.0712,-5.1298,-5.1,-5.0694,-5.0519,-5.0337,-5.0481,-5.1095,-5.1187,-5.1627,-5.241,-5.2287,-5.2074,-5.1857,-5.1415,-5.1056,-5.0819,-5.0873,-5.0891,-5.0891,-5.0891,-5.0891,-5.0855,-5.0057,-4.924,-4.8425,-4.7645,-4.6873,-4.613,-4.5968,-4.5837,-4.5722,-4.5764,-4.5064,-4.4011,0.0,0.0,0.0,-4.0534,-4.0496,-4.0054,-3.8738,-3.9669,-4.005,-3.8777,-4.1224,-4.3461,-4.4399,-4.6003,-4.6616,-4.5635,-4.4489,-4.3014,-4.1113,-4.0141,-3.9863,-4.0378,-4.1367,-4.2556,-4.3968,-4.5509,-4.6704,-4.7512,-4.9049,-4.9914,-5.0165,-5.0932,-5.1481,-5.1811,-5.1811,-5.1811,-5.1811,-5.1811,-5.1059,-4.9738,-4.8453,-4.6856,-4.5095,-4.427,-4.4161,-4.4454,-4.4454,-4.4234,-4.3959,-4.3994,0.0,0.0,0.0,0.0,0.0,0.0,0.0,0.0,0.0,0.0,0.0,0.0,0.0,0.0,0.0,0.0,0.0,0.0,0.0,0.0,0.0,0.0,0.0,0.0,-4.554,-4.6122,-4.8479,-4.867,-4.9123,-5.0669,-5.1402,-5.2044,-5.2671,-5.2414,-5.212,-5.1761,-5.1668,-5.1691,-5.1888,-5.2242,-5.2712,-5.327,-5.2956,-5.2612,-5.2309,-5.1557,-5.1014,-5.0682,-5.0682,-5.0682,-5.0682,-5.0682,-5.0682,-5.063,-4.9887,-4.9266,-4.8758,-4.7622,-4.6855,0.0,0.0,0.0,0.0,0.0,-4.54,-4.429,0.0,0.0,0.0,-4.0534,-4.0496,-4.0227,-3.9419,-3.9977,-4.0215,-3.9406,-4.1436,-4.331,-4.4253,-4.496,-4.5322,-4.5225,-4.3433,-4.191,-4.0997,-4.0675,-4.062,-4.0806,-4.2946,-4.4228,-4.4413,-4.657,-4.7636,-4.7534,-4.9141,-5.0208,-5.082,-5.1722,-5.253,-5.3185,-5.3206,-5.3206,-5.3206,-5.3206,-5.275,-5.1963,-5.1244,-4.9077,-4.6232,-4.5424,-4.5553,-4.6159,-4.6067,-4.5626,-4.5076,-4.4911,0.0,0.0,0.0,0.0,0.0,0.0,0.0,0.0,0.0,0.0,0.0,0.0,0.0,0.0,0.0,0.0,0.0,0.0,0.0,0.0,0.0,0.0,0.0,0.0,-4.6516,-4.7173,-5.0668,-5.0807,-5.0777,-5.1287,-5.2649,-5.3912,-5.483,-5.4614,-5.4223,-5.3883,-5.3593,-5.3251,-5.281,0.0,0.0,0.0,0.0,-5.3503,-5.2561,-5.1929,-5.1198,-5.0415,-5.0484,-5.0484,-5.0415,-5.0415,-5.0415,-5.0363,-4.9614,-4.9284,-4.9179,-4.7515,-4.6759,-4.662,-4.615,-4.5972,-4.598,-4.583,-4.5467,-4.4957,0.0,0.0,0.0,-4.0534,-4.0496,-4.0227,-3.9419,-3.9977,-4.0215,-3.9406,-4.0916,-4.2406,-4.3346,-4.4102,-4.4246,-4.3553,-4.2747,-4.1782,-4.0588,-4.1053,-4.1943,-4.3243,-4.4413,-4.5658,-4.6958,-4.7392,-4.788,-4.8384,-4.9933,-5.0738,-5.0839,-5.2334,-5.3106,-5.3206,-5.3254,-5.3277,-5.3277,-5.3277,-5.2878,-5.2201,-5.1912,-5.06,-4.8802,-4.7939,-4.77,-4.7755,-4.7094,-4.7168,-4.7407,-4.6104,-4.5553,-4.5314,-4.4672,-4.3976,0.0,0.0,0.0,0.0,0.0,0.0,0.0,0.0,0.0,0.0,0.0,0.0,0.0,0.0,0.0,0.0,0.0,0.0,0.0,-4.5736,-4.7207,-4.8676,-5.0057,-5.1713,-5.2818,-5.2942,-5.3753,-5.4388,-5.4589,-5.3991,-5.3639,-5.3649,-5.2909,-5.274,-5.3389,-5.3489,-5.3575,-5.3693,-5.3103,-5.2485,-5.1824,-5.1604,-5.1135,-5.0415,0.0,0.0,-5.0415,-5.0415,-5.0415,-5.0363,-4.9614,-4.9284,-4.9179,-4.7595,-4.6508,-4.584,-4.5839,-4.5897,-4.584,-4.4703,-4.4635,-4.4817,0.0,0.0,0.0,-4.0607,-4.0534,-4.0362,-3.9958,-4.0246,-4.0369,-3.9942,-4.1016,-4.1986,-4.2456,-4.2808,-4.2817,-4.2396,-4.1606,-4.0939,-4.0425,-4.1618,-4.2843,-4.3949,-4.5602,-4.6884,-4.7683,-4.8466,-4.9008,-4.9307,-5.0878,-5.1631,-5.1569,-5.2827,-5.3378,-5.3355,-5.3398,-5.34,-5.34,-5.34,-5.3219,-5.289,-5.2808,-5.223,-5.1323,-4.9955,-4.9476,-4.9499,-4.9114,-4.8673,-4.8177,-4.737,-4.6562,-4.5828,-4.5424,-4.462,-4.378,0.0,0.0,0.0,0.0,0.0,0.0,0.0,0.0,0.0,0.0,0.0,0.0,0.0,0.0,-4.3299,-4.3804,0.0,-4.6082,-4.7568,-4.8694,-4.9959,-5.1494,-5.2684,-5.3253,-5.2856,-5.3494,-5.3974,-5.4019,-5.3646,-5.3452,-5.3602,-5.3449,-5.3418,-5.3602,-5.3939,-5.4177,-5.4296,-5.3142,-5.2565,-5.2683,-5.1772,-5.1153,-5.0858,-5.1171,-5.0905,-5.0223,-5.0587,-5.0553,-5.0206,-5.0206,-4.9998,-4.953,-4.7979,-4.6861,-4.6081,-4.5797,-4.577,-4.5835,-4.5191,-4.5253,-4.5424,0.0,0.0,0.0,-4.0701,-4.0605,-4.0519,-4.0496,-4.0496,-4.0496,-4.0496,-4.1104,-4.1546,-4.1546,-4.1352,-4.1178,-4.1138,-4.0433,-4.0272,-4.0938,-4.245,-4.3762,-4.4749,-4.6973,-4.8166,-4.8166,-4.9578,-5.0286,-5.0213,-5.1694,-5.2358,-5.2317,-5.315,-5.3519,-5.3499,-5.3519,-5.3539,-5.3539,-5.3539,-5.3539,-5.3539,-5.3479,-5.34,-5.315,-5.1637,-5.114,-5.1206,-5.0747,-4.9591,-4.8251,-4.7939,-4.6874,-4.5681,-4.5847,-4.526,-4.4432,-4.3936,-4.3148,0.0,0.0,0.0,0.0,0.0,0.0,0.0,0.0,0.0,-4.2396,-4.277,-4.3624,-4.4652,-4.5607,-4.6506,-4.7741,-4.9666,-5.0252,-5.1132,-5.3115,-5.3529,-5.3322,-5.2546,-5.3132,-5.3677,-5.3766,-5.366,-5.366,-5.3827,-5.4261,-5.4298,-5.3862,-5.4402,-5.4741,-5.4691,-5.3372,-5.2926,-5.348,-5.22,-5.1519,-5.1464,-5.1536,-5.1166,-5.0442,-5.0907,-5.0787,-5.0252,-5.07,-5.039,-4.9476,-4.839,-4.7293,-4.632,-4.597,-4.5806,-4.5803,-4.579,-4.595,-4.6074,0.0,0.0,0.0,0.0,0.0,-4.0653,-4.0512,-4.0496,-4.0496,-4.0496,-4.0573,-4.065,-4.065,-3.9949,-3.9382,-3.9157,-3.9658,-4.0866,-4.2938,-4.376,-4.52,-4.7535,-4.9047,-4.9837,-4.9837,-5.0638,-5.1065,-5.1065,-5.1895,-5.2318,-5.2317,-5.3247,-5.3598,-5.3519,-5.3617,-5.3675,-5.3675,-5.3675,-5.3675,-5.3656,-5.3418,-5.33,-5.3258,-5.2883,-5.2807,-5.2656,-5.049,-4.9114,-4.8086,-4.6654,-4.5571,-4.4966,-4.5663,-4.581,-4.5461,-4.4177,-4.3706,-4.3187,-4.1213,-4.069,-4.0826,-4.1495,-4.2153,-4.2652,0.0,0.0,-4.4657,-4.4478,-4.5612,-4.6613,-4.6495,-4.7631,-4.8872,-4.9855,-5.1114,-5.2274,-5.327,-5.396,-5.4098,-5.3356,-5.3925,-5.4391,-5.4405,-5.4391,-5.4454,-5.4658,-5.4572,-5.454,-5.4658,-5.4572,-5.4233,-5.3608,-5.3387,-5.3007,-5.2386,-5.2873,-5.2787,-5.2097,-5.2804,-5.2735,-5.1912,-5.1373,-5.1033,-5.0959,-5.0373,-4.9304,-4.801,-4.8465,-4.7431,-4.5613,-4.6367,-4.6291,-4.5751,-4.5239,-4.552,-4.5986,0.0,0.0,0.0,0.0,0.0,-4.068,-4.0619,-4.0561,-4.0496,-4.0496,-4.0496,-4.0323,-3.9842,-3.9415,-3.9052,-3.8813,-3.9632,-4.1081,-4.3265,-4.4649,-4.6421,-4.8706,-5.0277,-5.1018,-5.0859,-5.1621,-5.2011,-5.2011,-5.2789,-5.3159,-5.3177,-5.3568,-5.3735,-5.3678,-5.3716,-5.3754,-5.3754,-5.3754,-5.3754,-5.3754,-5.3658,-5.3521,-5.3363,-5.2803,-5.1985,-5.0967,-4.9903,-4.8398,0.0,-4.559,-4.4672,-4.4105,-4.4711,-4.4291,-4.347,-4.2963,-4.219,0.0,-4.0666,-4.0502,0.0,0.0,-4.3184,-4.3676,-4.4565,-4.5267,-4.5789,-4.6011,-4.6891,-4.7698,-4.7848,-4.8786,-4.9769,0.0,-5.1498,-5.2308,-5.2666,-5.3753,-5.3908,-5.227,-5.3132,-5.3873,-5.3873,-5.3873,-5.4077,-5.4589,-5.4543,-5.4543,-5.4606,-5.4543,-5.4374,-5.4046,-5.3632,-5.3442,-5.3546,-5.346,-5.3011,-5.2188,-5.2546,-5.2097,-5.0925,-5.1045,-5.1114,-5.1045,-4.9809,-4.893,-4.8293,-4.7741,-4.6975,-4.6096,-4.6011,-4.5875,-4.5658,-4.5573,-4.581,-4.6109,0.0,0.0,0.0,0.0,0.0,-4.0745,-4.0707,-4.0612,-4.0534,-4.0496,-4.0496,-4.0189,-3.94,-3.9407,-3.9319,-3.8918,-3.9757,-4.1139,-4.3102,-4.4875,-4.6726,-4.872,-5.0782,-5.1763,-5.1505,-5.2511,-5.2995,-5.294,-5.3515,-5.3813,-5.3813,-5.3813,-5.3924,-5.4128,-5.4128,-5.4258,-5.4481,-5.424,-5.4128,-5.4071,-5.3848,-5.3528,-5.3038,-5.2003,-5.0375,-4.862,-4.8545,-4.6948,-4.4764,-4.3887,-4.321,-4.2809,-4.3304,-4.283,-4.2085,-4.1846,-4.0623,-3.9542,-4.0549,0.0,0.0,-4.3605,-4.4378,-4.4887,-4.6214,-4.6846,-4.7243,-4.7579,-4.8213,-4.8826,-4.9073,-4.9614,-5.0321,-5.1269,-5.1843,-5.2274,-5.2511,-5.3304,-5.3184,-5.1338,-5.1925,-5.2546,-5.2753,-5.3149,-5.3718,-5.4443,-5.4512,-5.4512,-5.4512,-5.4512,-5.4512,-5.4512,-5.3994,-5.396,-5.4494,-5.3977,-5.3425,-5.2808,-5.2649,-5.1977,-5.0942,-5.1063,-5.0994,-5.0735,-4.9602,-4.8879,-4.843,-4.7551,-4.6855,-4.6287,-4.5889,-4.5692,-4.5667,-4.5821,-4.5998,-4.6147,0.0,0.0,0.0,0.0,0.0,-4.0854,-4.0726,-4.0694,-4.066,-4.0512,-4.0496,-4.0189,-3.94,-3.9988,-4.0101,-3.9169,-3.9827,-4.1026,-4.2708,-4.4159,-4.5714,-4.7479,-5.0459,-5.1967,-5.169,-5.33,-5.4017,-5.3775,-5.3794,-5.3813,-5.3813,-5.3813,-5.4221,-5.4964,-5.4964,-5.5429,-5.6172,-5.5336,-5.4923,-5.4806,-5.4028,-5.3155,-5.2151,-5.0489,-4.8348,-4.6175,-4.6067,-4.4452,-4.2252,-4.1172,-4.0813,-4.0887,-4.1395,-4.2096,-4.2452,-4.1361,-3.9666,-3.8638,0.0,0.0,-4.124,-4.429,-4.5582,-4.6354,-4.7187,-4.8503,-4.9512,-4.9296,-4.9823,-5.0278,-5.0017,-4.9993,-5.0493,-5.1912,-5.217,-5.2463,-5.3253,-5.2735,-5.1964,-5.12,-5.0528,-5.039,0.0,-5.2528,-5.3718,-5.4443,-5.4512,-5.4512,-5.4512,-5.4512,-5.4512,-5.4512,-5.4494,-5.4494,-5.4512,-5.4494,-5.446,-5.4425,-5.3718,-5.3339,-5.3253,-5.1787,-5.0718,-5.0045,-4.9993,-4.9131,-4.7775,-4.8448,-4.7513,-4.5684,-4.6339,-4.6255,-4.577,-4.5658,-4.577,-4.6023,0.0,0.0,0.0,0.0,0.0,0.0,-4.0845,-4.0782,-4.0725,-4.064,-4.008,0.0,0.0,0.0,0.0,0.0,-3.9853,-4.1006,-4.269,-4.4281,-4.5849,-4.7365,-5.005,-5.1366,-5.1124,-5.2742,-5.3455,-5.3196,-5.3774,-5.3963,-5.3813,-5.3813,-5.3943,-5.4203,-5.4203,-5.437,-5.463,-5.4333,-5.4202,-5.4052,-5.2716,-5.1936,-5.1286,-4.8529,-4.6206,-4.4298,0.0,-4.1895,-4.0547,-3.9462,-3.9123,-3.9166,-3.9478,-3.94,-3.9075,-3.8498,-3.8599,-3.9284,0.0,0.0,-4.35,-4.659,-4.753,-4.8074,-4.9416,-5.0118,-5.0406,-5.0087,-4.9023,-4.8055,-4.779,-4.7751,-4.8234,-4.9689,-5.1205,-5.2274,-5.258,-5.2839,-5.1977,-4.92,-4.9976,0.0,0.0,0.0,0.0,-5.3684,-5.377,-5.3994,-5.4477,-5.4512,-5.4512,-5.4512,-5.4029,-5.4011,-5.4512,-5.4011,-5.377,-5.3753,-5.2494,-5.1632,-5.1132,-5.0614,-5.0235,-4.9976,-4.9459,-4.862,-4.7672,-4.7431,-4.6596,-4.5511,-4.5717,-4.5674,-4.5554,-4.5563,-4.5718,-4.5871,0.0,0.0,0.0,0.0,0.0,0.0,0.0,0.0,0.0,0.0,0.0,0.0,0.0,0.0,0.0,0.0,0.0,-4.0784,-4.1838,-4.3473,-4.4824,-4.5726,-4.8161,-4.9409,-4.916,-5.0482,-5.1062,-5.0796,-5.1656,-5.2005,-5.1835,-5.2062,-5.2473,-5.3051,-5.2977,-5.3255,-5.3775,-5.32,-5.2772,-5.2345,-5.0729,-4.9691,-4.8804,-4.6079,-4.4126,0.0,-4.0975,-3.9991,-3.9368,-3.8436,-3.8121,-3.8109,-3.8053,-3.7668,-3.7329,-3.7697,-3.8725,-4.0182,0.0,-4.3781,-4.5414,-4.8222,-4.8942,-4.9276,-5.0592,-5.0662,-5.0398,-5.0125,-4.8241,-4.6534,-4.6289,-4.576,-4.5872,-4.7345,-4.881,-5.0033,-5.0861,-5.1188,-5.0562,-4.8344,-4.9137,-4.9585,0.0,0.0,0.0,-5.2839,-5.3253,-5.3615,-5.408,-5.4374,-5.4512,-5.4512,-5.4046,-5.4029,-5.4512,-5.377,-5.3132,-5.258,-5.158,-5.0718,-5.0011,-5.0011,-5.0011,-4.9959,-4.9137,-4.8379,-4.762,-4.6879,-4.613,-4.5476,-4.5476,-4.5476,-4.5476,-4.5581,-4.5667,-4.5821,0.0,0.0,0.0,0.0,0.0,0.0,0.0,0.0,0.0,0.0,0.0,0.0,0.0,0.0,0.0,0.0,0.0,0.0,-4.0316,-4.1829,-4.2737,-4.2737,-4.5067,-4.6267,-4.6087,-4.691,-4.7212,-4.6968,-4.7829,-4.8248,-4.8252,-4.8824,-4.9947,-5.1449,-5.1245,-5.2011,-5.3348,-5.1788,-5.0673,-4.9782,-4.8166,-4.6605,-4.5045,-4.3336,-4.2158,-4.1215,-3.9512,-3.8848,-3.8698,-3.8051,-3.7845,-3.7793,-3.7291,-3.7167,-3.7501,-3.9024,-4.0077,-4.1398,-4.4395,-4.58,-4.6916,-4.9188,-4.9776,-4.9943,-5.0662,-5.0233,-4.9583,-4.937,-4.7352,-4.5586,0.0,0.0,-4.3621,-4.5087,-4.55,-4.6397,-4.8603,-4.831,-4.8103,0.0,0.0,0.0,0.0,0.0,0.0,-5.1964,0.0,-5.3373,-5.346,-5.4132,-5.4512,-5.4512,-5.4477,-5.4477,-5.4512,-5.377,-5.2632,-5.1114,-5.1114,-5.0718,-5.0011,-5.0011,-5.0011,-4.9959,-4.9172,-4.8413,-4.7638,-4.6958,-4.6218,-4.5607,-4.5607,-4.5607,-4.5607,-4.5607,-4.5675,-4.5786,0.0,0.0,0.0,0.0,0.0,0.0,0.0,0.0,0.0,0.0,0.0,0.0,0.0,0.0,0.0,0.0,0.0,0.0,-4.0379,-4.134,-4.1877,-4.182,-4.3634,-4.4616,-4.4562,-4.5993,-4.6613,-4.6392,-4.7225,-4.7529,-4.733,-4.7479,-4.7788,-4.8202,-4.8028,-4.8194,-4.8551,-4.7992,-4.7627,-4.7274,-4.5602,-4.4692,-4.4079,-4.185,-4.0822,-4.0382,-3.9349,-3.8921,-3.8788,-3.832,0.0,0.0,0.0,-3.9425,-4.0164,-4.1512,-4.2868,-4.4343,-4.6291,-4.7783,-4.91,-5.0276,-5.0575,-5.0487,-5.011,-4.9416,-4.8504,-4.7099,-4.4502,-4.2212,0.0,0.0,0.0,-4.432,-4.6975,0.0,-5.0343,-5.0343,0.0,-4.9752,0.0,-4.9493,-4.9683,-4.97,0.0,0.0,-5.2067,-5.3028,-5.4167,-5.4408,-5.4512,-5.4512,-5.3977,-5.3942,-5.4494,-5.377,-5.2632,-5.1114,-5.1114,-5.0718,-5.0011,-5.0011,-5.0011,-4.9993,-4.9786,-4.8959,-4.77,-4.7482,-4.6631,-4.545,-4.5554,-4.5607,-4.5607,-4.5607,-4.5396,-4.5197,0.0,0.0,0.0,0.0,0.0,0.0,0.0,0.0,0.0,0.0,0.0,0.0,0.0,0.0,0.0,0.0,0.0,0.0,0.0,-4.0803,-4.1007,-4.096,-4.1867,-4.2383,-4.2383,-4.33,-4.3725,-4.3607,-4.4425,-4.4729,-4.4599,-4.489,-4.5198,-4.5525,-4.5392,-4.55,-4.5804,-4.5241,-4.4795,0.0,0.0,-4.2184,-4.1702,-4.0346,-3.9779,-3.9662,-3.9174,-3.8939,0.0,0.0,0.0,-3.9678,-4.0477,-4.1304,-4.2257,-4.3821,0.0,-4.6449,-4.7977,-4.9319,-5.0329,-5.0785,-5.0627,-5.0092,-4.8968,-4.7836,-4.6575,-4.4803,-4.2219,0.0,0.0,0.0,0.0,0.0,0.0,0.0,-4.9373,-4.9631,-4.9717,0.0,-5.0011,0.0,-5.0011,-5.0304,-5.0804,0.0,-5.1964,-5.2735,-5.396,-5.4322,-5.4512,-5.4512,-5.4098,-5.377,-5.3494,-5.3097,-5.2114,-5.0631,-5.0631,-5.0407,-5.0011,-5.0011,-5.0011,-4.9959,0.0,-4.851,-4.7638,-4.6965,-4.6173,-4.5423,-4.5554,-4.5607,-4.5555,-4.5303,-4.5072,-4.4949,0.0,0.0,0.0,0.0,0.0,0.0,0.0,0.0,0.0,0.0,-4.0859,-4.079,0.0,0.0,0.0,0.0,0.0,0.0,0.0,0.0,-4.0308,-4.031,-4.0301,-4.0301,-4.0301,-4.0301,-4.0301,-4.0301,-4.0998,-4.1342,-4.1342,-4.1943,-4.2579,-4.3251,-4.3044,-4.3341,-4.3931,-4.3037,-4.2243,-4.1518,-4.0635,-3.9812,-3.9142,0.0,-3.9101,-3.9087,-3.9036,-3.8921,0.0,0.0,-4.1058,-4.087,-4.22,-4.3298,-4.4395,-4.6132,-4.7194,-4.8088,-4.9477,-5.0391,-5.0855,-5.075,-5.0145,-4.9118,-4.7467,-4.5905,-4.426,-4.2497,0.0,-3.8751,-3.8499,-3.8545,-3.9163,-4.0929,0.0,-4.4552,-4.7596,-4.8027,-4.8545,-4.9993,-5.0062,-5.0045,-5.0149,-5.0735,-5.1425,-5.2136,-5.2291,-5.2718,-5.3511,-5.4149,-5.4512,-5.4512,-5.4512,-5.3822,-5.236,-5.2239,-5.1528,-5.0149,-5.0062,-5.0011,-5.0011,-5.0011,-5.0011,-4.9924,-4.8465,-4.7775,-4.7569,-4.6138,-4.55,-4.5423,-4.5581,-4.5632,-4.5572,-4.5065,-4.4823,-4.4788,0.0,0.0,0.0,0.0,0.0,0.0,0.0,0.0,0.0,0.0,-4.0968,-4.0859,0.0,0.0,0.0,0.0,0.0,0.0,0.0,0.0,0.0,-4.031,-4.0301,-4.0301,-4.0301,-4.0301,-4.0301,-4.0301,-4.0435,-4.0511,-4.0511,-4.0635,-4.0749,-4.0873,-4.0682,-4.0664,-4.0786,-4.0434,-4.0212,-4.0037,-3.9708,-3.9468,-3.9324,-3.917,0.0,0.0,-3.9087,0.0,0.0,0.0,-4.2573,-4.3214,-4.4826,-4.656,-4.8161,-4.8887,-4.9429,-4.9925,-5.0541,-5.0785,-5.0733,-5.0066,-4.9328,-4.8205,-4.5993,-4.4219,0.0,0.0,-3.8712,-3.7663,-3.6882,-3.7754,0.0,-4.2344,0.0,0.0,0.0,0.0,-4.9942,0.0,0.0,0.0,0.0,0.0,0.0,0.0,0.0,-5.3529,-5.427,-5.4443,-5.4512,-5.4512,-5.4512,-5.408,-5.3201,-5.2515,-5.1787,-5.0907,-5.0304,-5.0011,-5.0011,-5.0011,-5.0011,-4.9959,-4.8999,0.0,-4.762,-4.6769,-4.5983,-4.5423,-4.5667,-4.5787,-4.577,-4.5783,-4.5033,-4.4155,0.0,0.0,0.0,0.0,0.0,0.0,0.0,-4.1094,-4.1107,-4.1107,-4.1048,-4.0972,-4.0864,-4.0756,-4.07,0.0,0.0,0.0,0.0,0.0,0.0,0.0,-4.0301,-4.0301,-4.0301,-4.0301,-4.0301,-4.0301,0.0,-4.0301,-4.0301,-4.0301,-4.0301,-4.0301,-4.0186,-4.0157,-4.0147,-3.9954,-3.9859,-3.9837,-3.9526,-3.9389,-3.9376,0.0,0.0,0.0,0.0,0.0,0.0,0.0,-4.265,-4.4013,-4.6708,-4.8496,-4.9764,-5.0385,-5.0712,-5.0878,-5.0902,-5.0891,-5.0697,-4.9916,-4.8521,-4.6765,-4.4431,0.0,0.0,0.0,-3.7419,-3.6932,-3.6391,0.0,0.0,0.0,0.0,0.0,0.0,0.0,0.0,0.0,0.0,0.0,0.0,0.0,0.0,0.0,0.0,-5.4132,-5.4494,-5.4512,-5.4512,-5.4512,-5.4512,-5.396,-5.2804,-5.2377,-5.1649,-5.0528,-5.0183,-5.0011,-5.0011,-5.0011,-5.0011,-4.9959,-4.9137,-4.8379,-4.762,-4.6879,-4.6148,-4.5423,-4.5554,-4.5684,-4.5708,-4.4965,-4.4369,-4.3904,0.0,0.0,0.0,0.0,0.0,0.0,-4.1095,-4.1103,-4.1153,-4.1325,-4.1205,-4.1192,-4.1459,-4.1042,-4.0739,0.0,0.0,0.0,0.0,0.0,0.0,0.0,0.0,0.0,0.0,0.0,0.0,0.0,-4.0301,0.0,0.0,0.0,0.0,0.0,-4.0301,-4.0301,-4.0291,-4.0137,-4.0067,0.0,0.0,-3.9464,0.0,0.0,0.0,0.0,0.0,0.0,0.0,0.0,-4.216,-4.3693,-4.7028,-4.9006,-5.0112,-5.0426,-5.0884,-5.12,-5.0832,-5.0831,-5.0662,-4.9679,-4.7696,-4.5354,-4.3079,-4.0639,0.0,0.0,-3.6602,-3.6444,-3.6322,0.0,0.0,0.0,0.0,0.0,0.0,0.0,0.0,0.0,0.0,0.0,0.0,0.0,0.0,0.0,0.0,0.0,-5.4512,-5.4512,-5.4512,-5.4512,-5.4512,-5.3856,-5.2463,-5.2274,-5.1563,-5.0235,-5.008,-5.0011,-5.0011,-5.0011,-4.9907,-4.9717,-4.9068,-4.8275,-4.7414,-4.6855,-4.6148,-4.5397,-4.5476,-4.5615,-4.5656,-4.4495,-4.4124,-4.4044,0.0,0.0,0.0,0.0,0.0,0.0,-4.1098,-4.1095,-4.1359,-4.2085,-4.1555,-4.1672,-4.3185,-4.1867,-4.0859,0.0,0.0,0.0,0.0,0.0,0.0,0.0,0.0,0.0,0.0,0.0,0.0,-4.0301,0.0,0.0,0.0,0.0,0.0,0.0,0.0,0.0,-4.0301,-4.0291,0.0,0.0,0.0,0.0,0.0,0.0,0.0,0.0,0.0,0.0,0.0,0.0,0.0,-4.1947,-4.441,-4.7205,-4.9301,-4.7983,0.0,0.0,-5.0375,-5.0576,-5.0522,-4.8995,-4.6906,-4.4589,-4.2254,0.0,0.0,-3.6896,-3.6602,-3.6444,-3.6322,-3.6422,-3.7232,0.0,0.0,-4.2078,0.0,0.0,0.0,0.0,0.0,0.0,0.0,0.0,0.0,0.0,0.0,0.0,-5.4512,-5.4512,-5.4512,-5.4512,-5.4512,-5.4115,-5.3304,-5.258,-5.1791,-5.0994,-5.0321,-5.0011,-5.0011,-5.0011,-4.9614,-4.8896,-4.8827,0.0,0.0,-4.6648,-4.6148,-4.5423,-4.5667,-4.577,-4.5803,-4.5915,-4.5547,-4.4887,0.0,0.0,0.0,0.0,0.0,0.0,-4.1098,-4.1515,-4.176,-4.1598,-4.1711,-4.1887,-4.2081,-4.1441,-4.119,-4.1611,-4.148,0.0,0.0,0.0,0.0,0.0,0.0,0.0,0.0,0.0,-4.0301,-4.0301,-4.0301,0.0,0.0,0.0,0.0,0.0,0.0,0.0,0.0,-4.0301,0.0,0.0,0.0,0.0,0.0,0.0,0.0,0.0,0.0,0.0,0.0,0.0,0.0,0.0,-4.1117,-4.2928,0.0,0.0,-4.8397,-4.9482,-5.0044,-5.0531,-5.0504,-4.896,-4.6449,-4.3886,-4.2026,0.0,-3.7111,-3.6774,-3.6523,-3.6343,-3.6301,-3.6301,-3.6749,-3.8146,0.0,0.0,0.0,0.0,0.0,0.0,0.0,0.0,0.0,0.0,0.0,0.0,0.0,0.0,-5.4512,-5.4512,-5.4512,-5.4512,-5.4512,-5.3925,-5.2701,-5.2343,-5.1602,-5.0442,-5.0149,-5.0011,-5.0011,-5.0011,-4.9838,-4.9528,-4.9528,0.0,0.0,-4.7269,-4.6517,-4.5397,-4.5528,-4.5641,-4.5768,-4.5416,-4.5215,-4.4922,0.0,0.0,0.0,0.0,0.0,-4.1198,-4.1446,-4.1961,-4.2302,-4.2221,-4.2491,-4.2568,-4.226,-4.1987,-4.2048,-4.2576,-4.2174,0.0,0.0,0.0,0.0,0.0,0.0,0.0,0.0,0.0,-4.0301,-4.0301,-4.0301,-4.0301,0.0,0.0,0.0,0.0,0.0,0.0,0.0,0.0,0.0,0.0,0.0,0.0,0.0,0.0,0.0,0.0,0.0,0.0,0.0,0.0,0.0,0.0,0.0,0.0,0.0,0.0,-4.6651,-4.7773,-4.8716,-4.9566,-4.982,-4.8293,-4.5712,-4.3167,0.0,0.0,-3.6725,-3.6702,-3.6523,-3.636,-3.6301,-3.6301,-3.649,-3.7042,0.0,-3.8651,0.0,0.0,0.0,0.0,0.0,0.0,0.0,0.0,0.0,0.0,0.0,0.0,-5.4512,-5.4512,-5.4512,-5.4512,-5.4512,-5.377,-5.2205,-5.2188,-5.1447,-5.0011,-5.0011,-5.0011,-5.0011,-5.0011,-4.9873,-4.9666,-4.9666,0.0,0.0,-4.7389,-4.6586,-4.5397,-4.545,-4.5607,-4.5743,-4.5254,-4.5236,-4.5203,0.0,0.0,0.0,0.0,0.0,-4.1381,-4.2248,-4.2382,-4.298,-4.464,-4.413,-4.3913,-4.4777,-4.4091,-4.3582,-4.3582,-4.2551,0.0,0.0,0.0,0.0,0.0,0.0,0.0,0.0,0.0,-4.0301,-4.0301,-4.0301,-4.0301,-4.0301,-4.0301,-4.0301,-4.0301,0.0,0.0,0.0,0.0,0.0,0.0,0.0,0.0,0.0,0.0,0.0,0.0,0.0,0.0,0.0,0.0,0.0,0.0,0.0,-3.8643,-3.8702,-4.061,-4.3294,-4.5677,-4.5978,-4.7258,-4.8144,-4.6618,-4.4495,-4.2412,0.0,0.0,-3.6788,-3.6705,-3.6602,-3.6444,-3.6322,-3.6301,-3.6301,-3.6318,-3.7577,0.0,0.0,0.0,0.0,0.0,0.0,0.0,0.0,0.0,0.0,0.0,0.0,0.0,-5.4512,-5.4512,-5.4512,-5.4512,-5.4512,-5.377,-5.2205,-5.2188,-5.1447,-5.0011,-5.0011,-5.0011,-5.0011,-5.0011,-4.9579,-4.881,0.0,0.0,0.0,-4.6613,-4.6121,-4.5423,-4.5554,-4.5667,-4.5838,-4.5947,-4.6073,-4.5968,0.0,0.0,0.0,0.0,0.0,0.0,-4.2211,-4.2831,-4.3413,-4.3936,-4.4286,-4.4364,-4.4052,-4.3766,-4.3837,-4.4444,-4.4074,0.0,0.0,0.0,0.0,0.0,0.0,0.0,0.0,-4.0301,-4.0301,-4.0301,-4.0845,-4.0845,-4.0301,-4.0864,-4.0826,-4.0301,-4.0301,0.0,0.0,0.0,0.0,0.0,0.0,0.0,0.0,0.0,0.0,0.0,0.0,0.0,0.0,0.0,0.0,0.0,0.0,0.0,0.0,-3.8938,-4.0724,-4.2658,-4.3836,-4.4749,-4.5133,-4.4109,-4.2535,-4.0955,-3.9919,0.0,-3.6725,-3.6702,-3.6523,-3.6343,-3.6301,-3.6301,-3.6473,-3.7025,-3.7961,0.0,0.0,0.0,0.0,0.0,0.0,0.0,0.0,0.0,0.0,0.0,0.0,0.0,-5.4512,-5.4512,-5.4512,-5.4512,-5.4512,-5.377,-5.2205,-5.2188,-5.1447,-5.0011,-5.0011,-5.0011,-5.0011,-5.0011,-4.9873,0.0,0.0,0.0,-4.7293,-4.682,-4.6148,-4.5397,-4.545,-4.5554,-4.5667,-4.5821,-4.5947,-4.5933,0.0,0.0,0.0,0.0,0.0,0.0,-4.2669,-4.3523,-4.4208,-4.454,-4.5046,-4.5066,-4.4189,-4.4386,-4.4655,-4.4809,-4.5026,0.0,0.0,0.0,0.0,0.0,0.0,0.0,-4.032,-4.0301,-4.0454,-4.075,-4.1246,-4.1399,-4.1246,-4.1418,-4.1227,-4.075,-4.0435,-4.0301,0.0,0.0,0.0,0.0,0.0,0.0,-3.9101,0.0,0.0,0.0,0.0,0.0,0.0,0.0,0.0,0.0,0.0,0.0,0.0,0.0,-3.8742,-3.9813,-4.1478,-4.2467,-4.2851,-4.2113,-4.0972,0.0,0.0,0.0,-3.6702,-3.6702,-3.6502,-3.6301,-3.6301,-3.6301,-3.6456,-3.6978,0.0,0.0,0.0,0.0,0.0,0.0,0.0,0.0,0.0,0.0,0.0,0.0,0.0,0.0,-5.4512,-5.4512,-5.4512,-5.4512,-5.4512,-5.377,-5.2205,-5.2188,-5.1447,-5.0011,-5.0011,-5.0011,-5.0011,-5.0011,-5.0011,0.0,0.0,-4.8103,0.0,-4.6569,-4.5845,-4.5397,-4.5397,-4.5476,-4.5607,-4.5693,-4.5846,-4.5918,0.0,0.0,0.0,0.0,0.0,0.0,0.0,-4.4384,-4.5205,-4.6082,-4.6192,-4.5877,-4.5059,-4.5698,-4.5793,-4.484,-4.5442,0.0,0.0,0.0,0.0,0.0,0.0,0.0,-4.0416,-4.032,-4.0692,-4.1495,-4.1552,-4.2011,-4.2775,-4.1972,-4.1552,-4.1457,-4.0654,-4.0301,-4.0263,-3.987,-3.9705,-3.9651,-3.9259,-3.9101,0.0,0.0,0.0,0.0,0.0,0.0,0.0,0.0,0.0,0.0,0.0,0.0,0.0,0.0,0.0,0.0,0.0,-4.0358,-4.1113,-4.0432,-3.9691,-3.8933,-3.8199,0.0,0.0,-3.6702,-3.6502,-3.6318,-3.637,-3.6335,-3.6335,0.0,0.0,0.0,0.0,0.0,0.0,0.0,0.0,0.0,0.0,0.0,0.0,0.0,0.0,0.0,-5.4512,-5.4512,-5.4494,-5.4425,-5.4425,-5.3718,-5.2205,-5.2136,-5.1425,-5.0011,-5.0011,-5.0011,-5.0011,-5.0011,-4.9976,0.0,0.0,-4.7655,-4.75,-4.6,-4.5397,-4.5423,-4.5397,-4.5476,-4.5607,-4.5607,-4.5744,-4.5885,0.0,0.0,0.0,0.0,0.0,0.0,0.0,0.0,0.0,0.0,-4.6102,-4.5979,-4.5765,-4.5799,-4.5725,0.0,0.0,0.0,0.0,0.0,0.0,0.0,0.0,0.0,-4.1246,-4.0616,-4.0692,-4.1495,-4.2163,-4.2603,-4.2794,-4.2584,-4.2144,-4.1457,-4.0654,-4.0301,-4.0263,-3.987,-3.9705,-3.9651,-3.9259,-3.9101,0.0,0.0,0.0,0.0,-3.9101,-3.9101,0.0,0.0,0.0,0.0,0.0,0.0,0.0,0.0,-3.7577,-3.7351,-3.7567,0.0,-3.8043,-3.7868,-3.7692,-3.7479,0.0,0.0,0.0,0.0,0.0,0.0,0.0,0.0,0.0,0.0,0.0,0.0,0.0,0.0,0.0,0.0,0.0,0.0,0.0,0.0,0.0,0.0,0.0,-5.4512,-5.4512,-5.4512,-5.4253,-5.3684,-5.3667,-5.3201,-5.2188,-5.1649,-5.0907,-5.0011,-5.0011,-5.0011,-5.0011,-5.0011,-4.9666,0.0,-4.8086,-4.7362,-4.6786,-4.5793,-4.545,-4.5537,-4.545,-4.5476,-4.5607,-4.5607,-4.5658,-4.5701,0.0,0.0,0.0,0.0,0.0,0.0,0.0,0.0,0.0,0.0,-4.6056,-4.5961,-4.5865,-4.5763,-4.5688,0.0,0.0,0.0,0.0,0.0,0.0,0.0,0.0,-4.2221,-4.0979,-4.0511,-4.0903,-4.2106,-4.2565,-4.3195,-4.394,-4.3539,-4.2908,-4.203,-4.0845,-4.0244,-4.0147,-3.9837,-3.9647,-3.9539,-3.9219,0.0,0.0,0.0,0.0,0.0,-3.9101,-3.9073,0.0,-3.8935,-3.8881,-3.8837,0.0,0.0,0.0,0.0,-3.7523,-3.7185,-3.7029,-3.7007,-3.7007,-3.7007,-3.7007,-3.697,-3.6928,0.0,0.0,0.0,0.0,0.0,0.0,0.0,0.0,0.0,0.0,0.0,0.0,0.0,0.0,0.0,0.0,0.0,0.0,0.0,0.0,0.0,0.0,-5.4512,-5.4512,-5.4512,-5.4167,-5.3425,-5.3046,-5.2494,-5.1688,-5.1321,-5.0735,-5.0011,-5.0011,-5.0011,-5.0011,-5.0011,-4.9769,0.0,-4.82,-4.7465,-4.7027,-4.5862,-4.545,-4.5502,-4.5502,-4.5502,-4.5528,-4.5581,-4.5607,-4.5632,0.0,0.0,0.0,0.0,0.0,0.0,0.0,0.0,0.0,0.0,0.0,0.0,0.0,0.0,0.0,0.0,0.0,0.0,0.0,0.0,0.0,0.0,-4.2794,-4.2068,-4.0511,-4.0473,-4.1246,-4.2794,-4.2928,-4.3787,-4.5288,-4.4418,-4.3491,-4.2545,-4.1084,-4.0271,-3.9986,-3.9751,-3.9563,-3.9376,-3.9183,0.0,0.0,0.0,0.0,0.0,0.0,0.0,0.0,-3.8921,-3.8866,-3.8792,-3.8719,0.0,0.0,0.0,0.0,0.0,-3.7009,-3.7007,-3.7007,-3.7007,-3.7007,-3.695,-3.6829,0.0,0.0,0.0,0.0,0.0,0.0,0.0,0.0,0.0,0.0,0.0,0.0,0.0,0.0,0.0,0.0,0.0,0.0,0.0,0.0,0.0,0.0,-5.446,-5.4339,-5.4339,-5.3942,-5.308,-5.2408,-5.1671,-5.0942,-5.0942,-5.0631,-5.0011,-5.0011,-5.0011,-5.0011,-5.0011,-4.9873,-4.9579,0.0,0.0,-4.7241,-4.5931,-4.5397,-4.545,-4.5554,-4.5537,-4.5476,-4.5581,-4.5607,-4.5607,0.0,0.0,0.0,0.0,0.0,0.0,0.0,0.0,0.0,0.0,0.0,0.0,0.0,0.0,0.0,0.0,0.0,0.0,0.0,0.0,0.0,-4.287,-4.2794,-4.2335,-4.1342,-4.1323,-4.18,-4.2794,-4.3472,-4.4341,-4.5288,-4.4418,-4.3176,-4.1686,-4.126,-4.0663,-3.9975,-3.9599,-3.9427,-3.9376,-3.9183,0.0,0.0,0.0,0.0,0.0,0.0,0.0,0.0,-3.8921,-3.8866,-3.8792,-3.8719,0.0,0.0,0.0,0.0,0.0,-3.7048,-3.7007,-3.7007,-3.7007,-3.7007,-3.695,-3.6829,-3.6745,0.0,0.0,0.0,0.0,0.0,0.0,0.0,0.0,0.0,0.0,0.0,0.0,0.0,0.0,0.0,0.0,0.0,0.0,0.0,0.0,0.0,-5.4236,-5.3598,-5.358,-5.2925,-5.1511,-5.1338,-5.0925,-5.0183,-5.0183,-5.0114,-5.0011,-5.0011,-5.0011,-5.0011,-5.0011,-4.9304,-4.8034,0.0,-4.6948,-4.5725,-4.55,-4.5476,-4.5581,-4.5607,-4.5658,-4.5736,-4.5615,-4.5607,-4.5607,0.0,0.0,0.0,0.0,0.0,0.0,0.0,0.0,0.0,0.0,0.0,0.0,0.0,0.0,0.0,0.0,0.0,0.0,0.0,0.0,-4.4743,-4.3491,-4.3452,-4.2851,-4.1533,-4.1495,-4.2144,-4.3452,-4.3815,-4.4456,-4.5269,-4.3959,-4.2887,-4.2004,-4.1007,-4.023,-3.9658,-3.9477,-3.9337,-3.9237,0.0,0.0,0.0,0.0,0.0,0.0,0.0,0.0,0.0,0.0,-3.8837,-3.8735,-3.8723,0.0,0.0,0.0,0.0,0.0,-3.7029,-3.7007,-3.7007,-3.7007,-3.6948,-3.6869,-3.6766,-3.6977,0.0,0.0,0.0,0.0,0.0,0.0,0.0,0.0,0.0,0.0,0.0,0.0,0.0,0.0,0.0,0.0,0.0,0.0,0.0,0.0,0.0,0.0,-5.2804,-5.277,-5.2252,-5.1149,-5.1114,-5.0752,-5.0011,-5.0011,-5.0011,-5.0011,-5.0011,-5.0011,-5.0011,-5.0011,-4.9614,-4.8907,0.0,-4.7293,-4.6569,-4.5742,-4.5423,-4.5502,-4.5581,-4.5658,-4.5693,-4.5693,-4.5693,-4.5666,0.0,0.0,0.0,0.0,0.0,0.0,0.0,0.0,0.0,0.0,0.0,0.0,0.0,0.0,0.0,0.0,0.0,0.0,0.0,-4.5307,-4.4914,-4.4045,-4.4006,-4.33,-4.1839,-4.1991,-4.2717,-4.4006,-4.4197,-4.4647,-4.5269,-4.3787,-4.2865,-4.243,-4.0913,-3.9917,-3.9389,-3.9337,-3.9232,-3.9101,0.0,0.0,0.0,0.0,0.0,0.0,0.0,0.0,0.0,0.0,0.0,0.0,0.0,0.0,0.0,-3.7721,-3.7356,-3.7007,-3.7007,-3.7007,-3.6987,-3.6968,-3.6888,-3.6841,-3.6931,-3.7297,-3.7465,0.0,0.0,0.0,0.0,0.0,0.0,0.0,0.0,0.0,0.0,0.0,0.0,0.0,0.0,0.0,0.0,0.0,0.0,0.0,0.0,0.0,-5.1981,-5.1929,-5.1584,-5.0873,-5.0856,-5.058,-5.0011,-4.9821,-4.9821,-5.0011,-5.0011,-5.0011,-5.0011,-5.0011,-4.9804,-4.9407,-4.8189,-4.7482,-4.7052,-4.588,-4.5397,-4.5423,-4.5554,-4.5632,-4.5641,-4.5744,-4.5795,-4.5734,0.0,0.0,0.0,0.0,0.0,0.0,0.0,0.0,0.0,0.0,0.0,0.0,0.0,0.0,0.0,0.0,0.0,0.0,0.0,-4.5307,-4.4914,-4.4045,-4.4006,-4.3586,-4.2737,-4.3433,-4.3873,-4.4006,-4.4819,-4.5239,-4.5288,-4.436,-4.3418,-4.2438,-4.1396,-4.0364,-3.9376,-3.9192,-3.9115,-3.9101,-3.9101,0.0,0.0,0.0,0.0,0.0,0.0,0.0,0.0,0.0,0.0,0.0,0.0,0.0,-3.7739,-3.7487,-3.7223,-3.7007,-3.7007,-3.7007,-3.6968,-3.6849,-3.6809,-3.6963,-3.7572,-3.7658,0.0,-3.8306,0.0,0.0,0.0,0.0,0.0,0.0,0.0,0.0,0.0,0.0,0.0,0.0,0.0,0.0,0.0,0.0,0.0,0.0,0.0,0.0,-5.1269,-5.1183,-5.0856,-5.0114,-5.008,-5.0062,-5.0011,-4.924,-4.924,-5.0011,-5.0011,-5.0011,-5.0011,-5.0011,-4.9235,-4.7872,-4.7741,-4.6879,-4.5552,-4.5449,-4.5397,-4.5423,-4.5554,-4.5684,-4.5787,-4.5812,-4.5795,-4.5795,0.0,0.0,0.0,0.0,0.0,0.0,0.0,0.0,0.0,0.0,0.0,0.0,0.0,0.0,0.0,0.0,0.0,0.0,0.0,-4.5307,-4.5144,-4.4819,-4.4819,-4.4666,-4.436,-4.4121,-4.4274,-4.4819,-4.5144,-4.501,-4.4465,-4.3512,-4.2525,-4.151,-4.0458,-3.9701,-3.921,-3.9142,-3.9101,-3.9101,-3.9045,-3.9036,0.0,0.0,0.0,0.0,0.0,0.0,0.0,0.0,-3.8765,-3.8692,-3.858,-3.8186,-3.7774,-3.7667,-3.7338,-3.7007,-3.7007,-3.7341,-3.767,-3.7563,-3.7484,0.0,0.0,-3.8715,-3.9456,-3.8755,-3.9715,0.0,0.0,0.0,0.0,0.0,0.0,0.0,0.0,0.0,0.0,0.0,0.0,0.0,0.0,0.0,0.0,0.0,0.0,0.0,-5.0476,-5.0424,-5.0304,-5.0011,-5.0011,-4.9769,-4.924,-4.8947,-4.8947,-4.924,-4.924,-4.924,-4.924,-4.924,-4.87,-4.7655,-4.7234,-4.67,-4.6104,-4.5604,-4.5397,-4.5423,-4.5554,-4.5632,-4.5684,-4.577,-4.5795,-4.5768,0.0,0.0,0.0,0.0,0.0,0.0,0.0,0.0,0.0,0.0,0.0,0.0,0.0,0.0,0.0,0.0,0.0,0.0,-4.5307,-4.5307,-4.5182,-4.4895,-4.4895,-4.4895,-4.4895,-4.4312,-4.4437,-4.5307,-4.5307,-4.4836,-4.3914,-4.296,-4.1927,-4.0866,-3.984,-3.9285,-3.9101,-3.9073,-3.9059,-3.9059,-3.8993,-3.8964,0.0,0.0,0.0,0.0,0.0,0.0,0.0,0.0,-3.8735,-3.8676,-3.8483,-3.8136,-3.7774,-3.7595,-3.7457,-3.7306,-3.706,-3.7532,-3.8018,-3.7682,0.0,0.0,-3.7953,-3.9283,-4.0377,-3.9784,-4.1136,0.0,0.0,0.0,0.0,0.0,0.0,0.0,0.0,0.0,0.0,0.0,0.0,0.0,0.0,0.0,0.0,0.0,0.0,0.0,0.0,-4.9769,-4.9631,-4.9631,-4.9407,-4.9028,-4.8448,-4.8206,-4.8206,-4.8448,-4.8206,-4.8344,-4.8792,-4.8551,-4.8034,-4.731,-4.6837,-4.6475,-4.6173,-4.5621,-4.5397,-4.5397,-4.5502,-4.5563,-4.5607,-4.5693,-4.577,-4.5751,0.0,0.0,0.0,0.0,0.0,0.0,0.0,0.0,-4.5307,-4.5307,-4.5307,0.0,0.0,0.0,0.0,0.0,0.0,0.0,-4.5307,-4.5307,-4.4914,-4.4045,-4.4006,-4.4006,-4.4006,-4.3987,-4.4418,-4.5288,-4.5277,-4.4764,-4.376,-4.2886,-4.1839,-4.0639,-3.9776,-3.9304,-3.9101,-3.9021,-3.8993,-3.8979,-3.8939,-3.891,-3.891,0.0,0.0,0.0,0.0,0.0,0.0,0.0,-3.8707,-3.8596,-3.7983,-3.7791,-3.7703,-3.7164,-3.7514,-3.7935,-3.72,-3.7532,-3.7892,0.0,0.0,0.0,-3.8679,-3.9198,-4.0146,-4.1698,-4.2654,-4.3224,-4.3224,0.0,0.0,0.0,0.0,0.0,0.0,0.0,0.0,0.0,0.0,0.0,0.0,0.0,0.0,0.0,0.0,0.0,0.0,-4.9223,-4.8792,-4.8775,-4.8068,-4.7689,-4.77,-4.6975,-4.6975,-4.7672,-4.6958,-4.7372,-4.8741,-4.8017,-4.7303,-4.6596,-4.6596,-4.6121,-4.5397,-4.5397,-4.5397,-4.5397,-4.5397,-4.5476,-4.5607,-4.5607,-4.5667,-4.5812,0.0,0.0,0.0,0.0,0.0,0.0,0.0,0.0,-4.5307,-4.5307,-4.5307,0.0,0.0,0.0,0.0,0.0,0.0,0.0,-4.5307,-4.5307,-4.5182,-4.4934,-4.4331,-4.4006,-4.4006,-4.3452,-4.3558,-4.4399,-4.4293,-4.3463,-4.1952,-4.1465,-4.0723,-3.9776,-3.9322,-3.9092,-3.9021,-3.895,-3.8921,-3.8921,-3.8866,-3.8837,-3.8822,0.0,0.0,0.0,0.0,0.0,0.0,0.0,0.0,0.0,-3.8272,-3.7984,-3.7739,-3.7374,-3.7304,-3.7288,-3.706,-3.7895,0.0,-3.8341,0.0,0.0,0.0,-4.1147,0.0,0.0,-4.4165,-4.4311,-4.5389,0.0,0.0,0.0,0.0,0.0,0.0,0.0,0.0,0.0,0.0,0.0,0.0,0.0,0.0,0.0,0.0,0.0,0.0,-4.8913,-4.8551,-4.8034,-4.7793,-4.7458,-4.6941,-4.6717,-4.6717,-4.6924,-4.6121,-4.6276,-4.7269,-4.7044,-4.6483,-4.5759,-4.5759,-4.5621,-4.5397,-4.5397,-4.5397,-4.5397,-4.5397,-4.5423,-4.545,-4.545,-4.5476,-4.5528,0.0,0.0,0.0,0.0,0.0,0.0,0.0,0.0,-4.5307,-4.5307,-4.5307,-4.5307,0.0,0.0,0.0,0.0,0.0,0.0,-4.5307,-4.5307,-4.5144,-4.48,-4.4274,-4.3854,-4.3529,-4.3367,-4.3195,-4.3023,-4.3191,-4.2496,-4.1009,-4.1117,-4.0486,-3.9256,-3.9412,-3.9275,-3.8968,-3.8896,-3.8866,-3.8885,-3.9142,-3.9041,-3.8802,0.0,0.0,0.0,0.0,0.0,0.0,0.0,0.0,0.0,-3.8221,-3.7966,-3.7739,-3.7355,-3.7337,-3.7426,-3.7384,-3.8216,0.0,-3.8903,-3.9388,-4.0268,-4.1695,0.0,0.0,0.0,0.0,0.0,0.0,0.0,0.0,0.0,0.0,0.0,0.0,0.0,0.0,0.0,0.0,0.0,0.0,0.0,0.0,0.0,0.0,0.0,0.0,-4.8241,-4.7707,-4.7286,-4.6948,-4.6569,-4.6148,-4.5837,-4.5682,-4.5682,-4.5199,-4.5216,-4.5699,-4.5992,-4.5845,-4.5397,-4.5397,-4.5397,-4.5397,-4.5397,-4.5397,-4.5397,-4.5397,-4.5397,-4.5397,-4.5397,-4.5397,-4.5397,0.0,0.0,-4.4231,-4.4298,0.0,0.0,0.0,0.0,-4.5269,-4.5182,-4.525,-4.5269,0.0,0.0,0.0,0.0,0.0,0.0,0.0,-4.5307,-4.4953,-4.414,-4.4045,-4.3586,-4.2698,-4.3395,-4.2965,-4.1341,-4.2017,-4.1756,-4.0627,-4.1381,-4.0793,-3.9141,-3.9867,-3.973,-3.8988,-3.884,-3.8792,-3.8865,-3.9509,-3.935,-3.8781,-3.9515,0.0,0.0,0.0,0.0,0.0,0.0,0.0,0.0,-3.7983,-3.7809,-3.7685,-3.7164,-3.7514,-3.8088,-3.8038,0.0,0.0,-3.8959,0.0,0.0,0.0,0.0,0.0,0.0,0.0,0.0,0.0,0.0,0.0,0.0,0.0,0.0,0.0,0.0,0.0,0.0,0.0,0.0,0.0,0.0,0.0,0.0,0.0,0.0,0.0,-4.7269,-4.6475,-4.6389,-4.5604,-4.519,-4.519,-4.4527,-4.4207,-4.4207,-4.4276,-4.4311,-4.4328,-4.5079,-4.5363,-4.5294,-4.5363,-4.5363,-4.5311,-4.5363,-4.5397,-4.5397,-4.5397,-4.5397,-4.5397,-4.5397,-4.5397,-4.5397,0.0,0.0,-4.4413,-4.5026,0.0,0.0,0.0,0.0,0.0,-4.4369,-4.4876,0.0,0.0,0.0,0.0,0.0,0.0,0.0,0.0,-4.5307,-4.522,-4.5029,-4.438,-4.33,-4.18,-4.1953,-4.1395,-4.0083,-4.0919,-4.0842,-3.9917,-4.0359,-4.0344,-3.9937,-4.0007,-3.9946,-3.9728,-3.9026,-3.8719,-3.8738,-3.8891,-3.8854,-3.8726,-3.8891,-3.8854,0.0,0.0,0.0,0.0,0.0,0.0,0.0,-3.7983,-3.7809,-3.7685,-3.7164,-3.7514,-3.8088,-3.8038,-3.8928,0.0,0.0,0.0,0.0,0.0,0.0,0.0,0.0,0.0,0.0,0.0,0.0,0.0,0.0,0.0,0.0,0.0,0.0,0.0,0.0,0.0,0.0,0.0,0.0,0.0,0.0,0.0,0.0,-4.7113,-4.6155,-4.5406,-4.4829,-4.4069,-4.3672,-4.3672,-4.3517,-4.3431,-4.3431,-4.4018,-4.4311,-4.4328,-4.5079,-4.5096,-4.4561,-4.5139,-4.5079,-4.4578,-4.5156,-4.5397,-4.5397,-4.5397,-4.5397,-4.5397,-4.5397,-4.5397,-4.5397,0.0,0.0,0.0,0.0,0.0,0.0,0.0,0.0,0.0,0.0,0.0,0.0,0.0,0.0,0.0,0.0,-4.5048,0.0,0.0,-4.5307,-4.5307,-4.5307,-4.4857,-4.3845,-4.2163,-4.2037,-4.1284,-3.9848,-4.0111,-3.9946,-3.9414,-3.9951,-3.9978,-3.9582,-3.9884,-3.9771,-3.9357,-3.8888,-3.8707,-3.8726,-3.9129,-3.9038,-3.8744,-3.9129,-3.9038,-3.8707,-3.8707,0.0,0.0,0.0,0.0,0.0,0.0,0.0,-3.7685,-3.7164,-3.7271,-3.7614,0.0,0.0,0.0,0.0,0.0,0.0,0.0,0.0,0.0,0.0,0.0,0.0,0.0,0.0,0.0,0.0,0.0,0.0,0.0,0.0,0.0,0.0,0.0,0.0,0.0,0.0,0.0,0.0,0.0,-4.6414,-4.6035,-4.5303,-4.4527,-4.3793,-4.3396,-4.3362,-4.3724,-4.3,-4.2827,-4.3189,-4.3586,-4.4156,-4.4837,-4.5207,-4.5173,-4.4854,-4.5225,-4.5173,-4.4854,-4.5225,-4.5397,-4.5397,-4.5397,-4.5397,-4.5397,-4.5397,-4.5397,-4.5397,0.0,0.0,0.0,0.0,0.0,0.0,0.0,0.0,0.0,0.0,0.0,0.0,0.0,0.0,-4.3796,0.0,0.0,0.0,0.0,0.0,0.0,-4.5307,-4.5307,-4.4503,-4.2792,-4.2591,-4.1638,-3.9911,-3.9551,-3.9272,-3.9092,-3.9841,-3.9786,-3.9121,-3.9725,-3.9574,-3.8909,-3.8762,-3.8707,-3.8762,-3.9423,-3.9294,-3.8781,-3.9441,-3.9276,-3.8707,-3.8707,-3.8707,-3.8707,-3.8707,0.0,0.0,0.0,0.0,-3.7632,-3.7145,-3.7095,-3.7281,0.0,0.0,0.0,0.0,0.0,0.0,0.0,0.0,0.0,0.0,0.0,0.0,0.0,0.0,0.0,0.0,0.0,0.0,0.0,0.0,0.0,0.0,0.0,0.0,0.0,0.0,0.0,0.0,0.0,-4.5207,-4.5207,-4.4371,-4.3621,-4.3017,-4.2861,-4.3155,-4.3897,-4.2654,-4.2413,-4.3189,-4.3327,-4.4096,-4.5397,-4.5397,-4.5328,-4.5207,-4.5328,-4.5328,-4.5207,-4.5345,-4.5397,-4.5397,-4.5397,-4.5397,-4.5397,-4.5397,-4.5397,-4.5397,0.0,0.0,0.0,0.0,0.0,0.0,0.0,0.0,0.0,0.0,-4.4064,-4.372,0.0,0.0,0.0,-4.2966,-4.3701,-4.4159,-4.4159,0.0,0.0,-4.5307,-4.5307,-4.4442,-4.2577,-4.2517,-4.1514,-3.9477,-3.9363,-3.9205,-3.9026,-3.9767,-4.0025,-3.9841,-3.9908,-3.9843,-3.968,-3.9001,-3.8707,-3.8707,-3.8817,-3.8799,-3.8707,-3.8817,-3.8799,-3.8707,-3.8707,-3.8707,-3.8707,-3.8707,-3.8551,0.0,0.0,0.0,-3.7393,-3.7087,-3.7444,-3.7927,0.0,0.0,0.0,0.0,0.0,0.0,0.0,0.0,0.0,0.0,0.0,0.0,0.0,0.0,0.0,0.0,0.0,0.0,0.0,0.0,0.0,0.0,0.0,0.0,0.0,0.0,0.0,0.0,-4.4923,-4.4449,-4.4449,-4.3103,-4.2275,-4.2171,-4.155,-4.1567,-4.2309,-4.2102,-4.2413,-4.3207,-4.3845,-4.4578,-4.5397,-4.5397,-4.5061,-4.4475,-4.513,-4.5044,-4.4492,-4.5147,-4.5397,-4.5397,-4.5397,-4.5397,-4.5397,-4.5397,-4.5397,-4.5397,0.0,0.0,0.0,0.0,0.0,0.0,0.0,0.0,0.0,0.0,0.0,-4.3004,0.0,0.0,0.0,-4.2068,-4.2851,-4.351,-4.3968,-4.394,-4.4093,-4.4551,-4.4456,-4.358,-4.1811,-4.2035,-4.1255,-3.9389,-3.9224,-3.9078,-3.8954,-3.9232,-3.9371,-3.9326,-3.9252,-3.9239,-3.9203,-3.8854,-3.8707,-3.8707,-3.8707,-3.8964,-3.9313,-3.8872,-3.8982,-3.9313,-3.8854,-3.8596,-3.8469,-3.8469,-3.8272,-3.7966,-3.7685,0.0,0.0,0.0,-3.7235,0.0,-3.7735,0.0,0.0,0.0,0.0,0.0,0.0,0.0,0.0,0.0,0.0,0.0,0.0,0.0,0.0,0.0,0.0,0.0,0.0,0.0,0.0,0.0,0.0,0.0,0.0,0.0,0.0,0.0,-4.5113,-4.4734,-4.4328,-4.3655,-4.2896,-4.2033,-4.212,-4.2344,-4.2672,-4.2672,-4.3069,-4.3828,-4.4156,-4.4682,-4.5397,-4.5397,-4.5207,-4.4941,-4.5259,-4.5207,-4.4941,-4.5259,-4.5397,-4.5397,-4.5397,-4.5397,-4.5397,-4.5397,-4.5397,-4.5397,0.0,0.0,0.0,0.0,0.0,0.0,0.0,0.0,0.0,0.0,0.0,0.0,0.0,0.0,0.0,0.0,-4.1972,-4.2813,-4.3643,-4.3078,-4.3077,-4.3887,-4.3544,-4.2697,-4.14,-4.1487,-4.0822,-3.9304,-3.9045,-3.8921,-3.8881,-3.9028,-3.8979,-3.878,-3.894,-3.8891,-3.8707,-3.8927,-3.8891,-3.8726,-3.8927,-3.9302,-3.9731,-3.9331,-3.9502,-3.9855,-3.9051,-3.8647,-3.8444,0.0,-3.7949,-3.7667,-3.7467,-3.7354,0.0,0.0,0.0,0.0,0.0,0.0,0.0,0.0,0.0,0.0,0.0,0.0,0.0,0.0,0.0,0.0,0.0,0.0,0.0,0.0,0.0,0.0,0.0,0.0,0.0,0.0,0.0,0.0,0.0,0.0,0.0,0.0,-4.513,-4.4803,-4.4069,-4.4018,-4.35,-4.2344,-4.2896,-4.3293,-4.3483,-4.3672,-4.3949,-4.4311,-4.4501,-4.4872,-4.5397,-4.5397,-4.5397,-4.5397,-4.5397,-4.5397,-4.5397,-4.5397,-4.5397,-4.5397,-4.5397,-4.5397,-4.5397,-4.5397,-4.5397,-4.5397,0.0,0.0,0.0,0.0,0.0,0.0,0.0,0.0,0.0,0.0,0.0,0.0,-4.159,-4.0826,-4.0358,-4.0358,-4.1094,-4.1934,-4.2813,-4.2642,-4.2867,-4.3673,-4.2789,0.0,-4.1865,-4.1079,-4.0132,-3.9021,-3.8881,-3.8822,-3.8825,-3.9506,-3.9439,-3.8744,-3.9496,-3.9405,-3.8762,-3.9515,-3.9405,-3.8781,-3.9533,-3.9666,-3.9506,-4.0216,-4.0329,-3.9984,-3.9247,-3.8978,0.0,0.0,0.0,0.0,0.0,0.0,0.0,0.0,0.0,0.0,0.0,0.0,0.0,0.0,0.0,0.0,0.0,0.0,0.0,0.0,0.0,0.0,0.0,0.0,0.0,0.0,0.0,0.0,0.0,0.0,0.0,0.0,0.0,0.0,0.0,0.0,0.0,0.0,-4.4363,-4.4035,-4.3293,-4.3258,-4.3224,-4.3138,-4.3172,-4.3534,-4.4242,-4.4941,-4.4958,-4.4311,-4.501,-4.5363,-4.5397,-4.5397,-4.5397,-4.5397,-4.5397,-4.5397,-4.5397,-4.5397,-4.5397,-4.5397,-4.5397,-4.5397,-4.5397,-4.5397,-4.5397,-4.5397,0.0,0.0,0.0,0.0,0.0,0.0,0.0,0.0,0.0,0.0,0.0,0.0,0.0,-4.0358,-4.0098,-4.0098,-4.0201,-4.0666,-4.1582,-4.1018,-4.1028,-4.1926,-4.1469,-4.089,-4.0248,-4.0295,-3.988,-3.8939,-3.8833,-3.8807,-3.8807,-3.9029,-3.8982,-3.8744,-3.9533,-3.9441,-3.8726,-3.9019,-3.8964,-3.8731,-3.9258,-3.9743,-4.0164,-4.0111,-4.0392,-4.0694,0.0,0.0,0.0,0.0,0.0,0.0,0.0,0.0,0.0,0.0,0.0,0.0,0.0,0.0,0.0,0.0,0.0,0.0,0.0,0.0,0.0,0.0,0.0,0.0,0.0,0.0,0.0,0.0,0.0,0.0,0.0,0.0,0.0,0.0,0.0,0.0,0.0,0.0,0.0,0.0,0.0,-4.4906,-4.463,-4.4613,-4.4389,-4.3914,-4.4371,-4.4751,-4.501,-4.5259,-4.5259,-4.501,-4.5259,-4.5397,-4.5397,-4.5397,-4.5397,-4.5397,-4.5397,-4.5397,-4.5397,-4.5397,-4.5397,-4.5397,-4.5397,-4.5397,-4.5397,-4.5397,-4.5397,-4.5397,0.0,0.0,0.0,0.0,0.0,-4.332,-4.2479,-4.2603,-4.2478,-4.1551,0.0,0.0,0.0,0.0,-3.9837,-3.9837,-3.967,-3.9832,-4.0457,-3.9846,-3.9865,-4.076,-4.0309,-3.9881,-3.9579,-3.9933,-3.9723,-3.8881,-3.9083,-3.9038,-3.878,-3.8995,-3.8964,-3.8744,-3.9533,-3.9441,-3.8728,-3.9097,-3.9104,-3.8925,-3.9553,-4.0111,-4.0558,-4.0477,-4.0763,0.0,0.0,0.0,0.0,0.0,0.0,0.0,0.0,0.0,0.0,0.0,0.0,0.0,-3.6423,0.0,0.0,0.0,0.0,0.0,0.0,0.0,0.0,0.0,0.0,0.0,0.0,0.0,0.0,0.0,0.0,0.0,0.0,0.0,0.0,0.0,0.0,0.0,0.0,0.0,0.0,0.0,0.0,0.0,-4.5044,-4.5259,-4.5173,-4.4665,-4.5121,-4.5276,-4.5044,-4.5276,-4.5276,-4.5044,-4.5276,-4.5397,-4.5397,-4.5397,-4.5397,-4.5397,-4.5397,-4.5397,-4.5397,-4.5397,-4.5397,-4.5397,-4.5397,-4.5397,-4.5397,-4.5397,-4.5397,-4.5397,0.0,0.0,-4.263,-4.1742,-4.224,-4.247,-4.159,-4.2173,-4.2312,-4.1195,0.0,0.0,0.0,0.0,0.0,-3.9471,-3.9489,-3.9489,-3.9471,-3.9285,-3.9537,-4.0319,-3.9415,-3.9261,-4.0037,-4.0001,-3.9583,-3.8807,-3.9506,-3.946,-3.8726,-3.9496,-3.9441,-3.8726,-3.9515,-3.9441,-3.8789,-3.9871,-3.9913,-3.9336,-4.0477,-4.0778,-4.0588,-4.1384,0.0,0.0,-4.0386,-4.0103,0.0,-3.9181,0.0,0.0,0.0,0.0,0.0,0.0,0.0,0.0,0.0,0.0,0.0,0.0,0.0,0.0,0.0,0.0,0.0,0.0,0.0,0.0,0.0,0.0,0.0,0.0,0.0,0.0,0.0,0.0,0.0,0.0,0.0,0.0,0.0,0.0,0.0,0.0,-4.501,-4.5096,-4.438,-4.501,-4.5397,-4.5397,-4.5397,-4.5061,-4.4345,-4.5044,-4.5044,-4.4345,-4.5061,-4.5397,-4.5397,-4.5397,-4.5397,-4.5397,-4.5397,-4.5397,-4.5397,-4.5397,-4.5397,-4.5397,-4.5397,-4.5397,-4.5397,-4.5397,-4.5397,-4.5397,0.0,-4.2814,-4.2546,-4.1676,-4.1676,-4.1454,-4.0494,-4.0507,-4.0465,0.0,0.0,0.0,-4.0334,-4.0229,-3.9857,-3.9129,-3.9017,-3.9017,-3.9059,-3.8979,-3.9028,-3.9293,-3.905,-3.8973,-3.915,-3.9138,-3.9001,-3.8719,-3.8943,-3.8927,-3.8707,-3.8927,-3.8909,-3.8707,-3.8927,-3.9026,-3.9055,-3.8825,-3.9243,-4.0059,-3.9789,-4.001,0.0,0.0,0.0,0.0,0.0,-4.0378,-3.9903,0.0,-3.9311,-3.8747,0.0,0.0,0.0,0.0,0.0,0.0,-3.6456,0.0,0.0,0.0,0.0,0.0,-3.7633,-3.8134,0.0,0.0,0.0,0.0,0.0,0.0,0.0,0.0,0.0,0.0,0.0,0.0,0.0,0.0,0.0,0.0,0.0,0.0,0.0,0.0,-4.5276,-4.5311,-4.5113,-4.5276,-4.5397,-4.5397,-4.5397,-4.5294,-4.5113,-4.5294,-4.5294,-4.5113,-4.5294,-4.5397,-4.5397,-4.5397,-4.5397,-4.5397,-4.5397,-4.5397,-4.5397,-4.5397,-4.5397,-4.5397,-4.5397,-4.5397,-4.5397,-4.5397,-4.5397,-4.5397,-4.1608,-4.1587,-4.1402,-4.0775,-4.0626,-4.0419,-3.9826,-3.9693,-3.9599,0.0,0.0,0.0,-3.9821,-3.9769,-3.9453,-3.8877,-3.8795,-3.8762,-3.8807,-3.8795,-3.878,-3.8807,-3.8825,-3.881,-3.8765,-3.9096,-3.9065,-3.8707,-3.9038,-3.9038,-3.8707,-3.8707,-3.8707,-3.8692,-3.8515,-3.8904,-3.9607,-3.8187,-3.8668,0.0,-4.0038,0.0,0.0,-4.0839,-4.0959,0.0,0.0,0.0,-4.0331,-4.0331,-3.9818,0.0,0.0,0.0,0.0,0.0,0.0,0.0,0.0,0.0,0.0,0.0,0.0,0.0,-3.6978,-3.7512,-3.8203,0.0,0.0,0.0,0.0,0.0,0.0,0.0,0.0,0.0,0.0,0.0,0.0,0.0,0.0,0.0,0.0,-4.4251,-4.5079,-4.538,-4.5397,-4.5397,-4.5397,-4.5397,-4.5397,-4.5397,-4.5397,-4.5397,-4.5397,-4.5397,-4.5397,-4.5397,-4.5397,-4.5397,-4.5397,-4.5397,-4.5397,-4.5397,-4.5397,-4.5397,-4.5397,-4.5397,-4.5397,-4.5397,-4.5397,-4.5397,-4.5397,-4.5397,-4.5397,-4.5397,0.0,-3.9881,-3.9785,-3.9544,-3.9502,-3.9489,-3.9464,-3.9446,-3.935,0.0,-3.9212,-3.9168,-3.8756,-3.8872,-3.8891,-3.8726,-3.8707,-3.8707,-3.8707,-3.8707,-3.8707,-3.8707,-3.8707,-3.8707,-3.8707,-3.9405,-3.9423,-3.8707,-3.9423,-3.9405,-3.8707,-3.8707,-3.8728,-3.8755,-3.838,-3.9045,-4.0257,-3.8075,0.0,-4.0381,-4.0568,-4.0756,0.0,0.0,-4.0912,-4.0912,-4.0912,-4.0912,-4.0912,-4.0912,-4.0377,0.0,0.0,0.0,0.0,0.0,-3.7577,0.0,0.0,0.0,0.0,0.0,0.0,0.0,-3.649,-3.7422,-3.8496,-3.8496,0.0,0.0,0.0,0.0,0.0,0.0,0.0,0.0,0.0,0.0,0.0,0.0,0.0,0.0,-4.3069,-4.381,-4.4561,-4.5225,-4.5345,-4.5397,-4.5397,-4.5397,-4.5397,-4.5397,-4.5397,-4.5397,-4.5397,-4.5397,-4.5397,-4.5397,-4.5397,-4.5397,-4.5397,-4.5397,-4.5397,-4.5397,-4.5397,-4.5397,-4.5397,-4.5397,-4.5397,-4.5397,-4.5397,-4.5397,-4.5397,-4.5397,-4.5397,-4.5397,-3.9773,-3.9693,-3.9635,-3.9587,-3.9489,-3.9363,-3.9192,-3.9124,-3.9017,-3.881,-3.9921,-4.0202,-3.8854,-3.9863,-4.0104,-3.8817,-3.8707,-3.8707,-3.8707,-3.8707,-3.8707,-3.8707,-3.8707,-3.8707,-3.8707,-3.8854,-3.8854,-3.8707,-3.8854,-3.8854,-3.8707,-3.8707,-3.8894,-3.9266,-3.9077,-3.9551,-4.0409,-3.9247,0.0,-4.0683,-3.952,0.0,-4.0912,-4.0912,-4.0912,-4.0912,-4.0912,-4.0912,-4.0912,-4.0912,-4.0377,-3.9664,0.0,0.0,0.0,-3.8232,0.0,0.0,0.0,0.0,0.0,0.0,0.0,0.0,-3.6611,-3.7025,-3.7719,0.0,0.0,0.0,0.0,0.0,0.0,0.0,0.0,0.0,0.0,0.0,0.0,0.0,0.0,0.0,-4.224,-4.35,-4.4363,-4.4492,-4.5079,-4.5397,-4.5397,-4.5397,-4.5397,-4.5397,-4.5397,-4.5397,-4.5397,-4.5397,-4.5397,-4.5397,-4.5397,-4.5397,-4.5397,-4.5397,-4.5397,-4.5397,-4.5397,-4.5397,-4.5397,-4.5397,-4.5397,-4.5397,-4.5397,-4.5397,-4.5397,-4.5397,-4.5397,-4.5397,-3.9446,-3.9376,-3.9298,-3.9183,-3.9106,-3.9021,-3.8925,-3.8862,-3.8807,-3.8704,-3.9753,-4.0194,-3.9386,-4.0029,-4.0175,-3.9368,-3.8927,-3.9038,-3.9829,-3.9148,-3.8891,-3.9276,-3.8909,-3.8707,-3.8707,-3.8707,-3.8707,-3.8707,-3.8707,-3.8707,-3.8707,-3.8707,-3.8919,-3.9296,-3.9013,-3.9462,-4.0323,-3.9334,-3.9683,-4.0808,-3.9612,0.0,-4.0912,-4.0912,-4.0912,-4.0912,-4.0912,-4.0912,-4.0912,-4.0912,-4.0636,0.0,0.0,-3.9715,-3.96,0.0,-3.9405,-4.0112,0.0,0.0,0.0,-3.887,0.0,0.0,0.0,-3.7198,-3.7512,0.0,0.0,0.0,0.0,0.0,0.0,0.0,0.0,0.0,0.0,0.0,0.0,0.0,0.0,0.0,-4.2516,-4.3293,-4.4069,-4.4785,-4.5173,-4.5397,-4.5397,-4.5397,-4.5397,-4.5397,-4.5397,-4.5397,-4.5397,-4.5397,-4.5397,-4.5397,-4.5397,-4.5397,-4.5397,-4.5397,-4.5397,-4.5397,-4.5397,-4.5397,-4.5397,-4.5397,-4.5397,-4.5397,-4.5397,-4.5397,-4.5397,-4.5397,-4.5397,-4.5397,-3.9129,-3.9073,-3.8974,-3.878,-3.8723,-3.8707,-3.8707,-3.8707,-3.8762,-3.8909,-3.9772,-4.0286,-4.0139,-4.0267,-4.0286,-4.0139,-3.9517,-3.9685,-4.1003,-3.9866,-3.9371,-3.9882,-3.9276,-3.8927,-3.8927,-3.8927,-3.8927,-3.8927,-3.8927,-3.8854,-3.8692,-3.8776,-3.9008,-3.9337,-3.9059,-3.9499,-4.0377,0.0,0.0,-4.0825,0.0,-4.0164,-4.0912,-4.0912,-4.0912,-4.0912,-4.0912,-4.0912,-4.0912,-4.0912,-4.0912,-4.0791,-4.0129,-4.0394,0.0,0.0,0.0,0.0,0.0,0.0,0.0,0.0,0.0,-3.8525,0.0,0.0,0.0,0.0,0.0,0.0,0.0,0.0,0.0,0.0,0.0,0.0,0.0,0.0,0.0,0.0,0.0,0.0,-4.2637,-4.2896,-4.3603,-4.5096,-4.5173,-4.5242,-4.5397,-4.5397,-4.5397,-4.5397,-4.5397,-4.5397,-4.5397,-4.5397,-4.5397,-4.5397,-4.5397,-4.5397,-4.5397,-4.5397,-4.5397,-4.5371,-4.5371,-4.5371,-4.5371,-4.5371,-4.5371,-4.5397,-4.5397,-4.5397,-4.5397,-4.5397,-4.5397,-4.5397,-3.9007,-3.8964,-3.8906,-3.8881,-3.878,-3.8707,-3.8707,-3.8707,-3.8964,-3.9662,-4.1093,-4.1772,-4.104,-4.1607,-4.1735,-4.1022,-4.0773,-4.0791,-4.1077,-4.0809,-4.0425,-3.9918,-3.9808,-3.9753,-3.9753,-3.9753,-3.9753,-3.9753,-3.9753,-3.9405,-3.871,-3.8995,-3.9427,-3.9905,-4.0067,-4.0429,0.0,0.0,-4.0077,0.0,-4.0008,-4.0164,0.0,-4.0912,-4.0912,-4.0912,-4.0912,-4.0912,-4.0912,0.0,-4.0912,-4.0877,0.0,-4.0825,-4.0877,0.0,0.0,0.0,0.0,0.0,0.0,0.0,-3.9146,0.0,0.0,0.0,-3.7305,-3.6577,0.0,0.0,0.0,0.0,0.0,0.0,0.0,0.0,0.0,0.0,0.0,0.0,0.0,0.0,0.0,-4.1757,-4.2775,-4.4311,-4.4432,-4.4699,-4.5363,-4.5397,-4.5397,-4.5397,-4.5397,-4.5397,-4.5397,-4.5397,-4.5397,-4.5397,-4.5397,-4.5397,-4.5397,-4.5397,-4.5344,-4.522,-4.522,-4.522,-4.522,-4.522,-4.53,-4.5397,-4.5397,-4.5397,-4.5397,-4.5397,-4.5397,-4.5397,-3.884,-3.881,-3.878,-3.878,-3.8753,-3.8707,-3.8707,-3.8707,-3.9166,-4.0432,-4.1185,-4.1662,-4.1791,0.0,0.0,0.0,0.0,-4.1344,0.0,0.0,-4.1013,-4.1277,-4.0855,-4.0598,-4.0598,-4.0139,-3.99,-3.99,-3.9423,-3.8907,-3.8352,-3.8932,-3.9318,-3.956,-4.0067,0.0,-4.0965,0.0,-4.0601,0.0,0.0,0.0,0.0,-4.0912,-4.0912,-4.0912,-4.0912,-4.0912,-4.0912,0.0,-4.0912,0.0,0.0,0.0,0.0,0.0,0.0,0.0,0.0,0.0,0.0,0.0,0.0,0.0,-3.8491,0.0,-3.7927,0.0,0.0,0.0,0.0,0.0,0.0,0.0,-3.7771,0.0,0.0,0.0,0.0,0.0,0.0,0.0,0.0,0.0,0.0,0.0,-4.4069,-4.4449,-4.4751,-4.5156,-4.5397,-4.5397,-4.5397,-4.5397,-4.5397,-4.5397,-4.5397,-4.5397,-4.5397,-4.5397,-4.5397,-4.53,-4.5247,-4.5194,-4.5113,-4.514,-4.5177,-4.5113,-4.5194,-4.5371,-4.5238,-4.5264,-4.5397,-4.5397,-4.5371,-4.53,-3.8759,0.0,-3.8719,-3.8719,-3.8704,-3.8707,-3.8707,-3.9258,-4.0029,-4.0967,-4.148,-4.1992,-4.2561,-4.2618,0.0,0.0,-4.1897,-4.2026,0.0,0.0,-4.1696,-4.2062,0.0,0.0,-4.1238,-4.0787,-4.0451,-4.0198,-3.9514,-3.8915,-3.8394,-3.8942,-3.9318,-3.9526,-4.0185,-4.0642,-4.0912,0.0,-4.0912,-4.0912,-4.0912,-4.0912,-4.0912,-4.0912,-4.0912,-4.0912,-4.0912,-4.0912,-4.0912,-4.0912,-4.0912,0.0,-4.0912,0.0,0.0,0.0,0.0,0.0,-4.0912,0.0,0.0,0.0,0.0,0.0,0.0,0.0,0.0,0.0,0.0,0.0,0.0,0.0,0.0,0.0,0.0,-3.7616,0.0,0.0,0.0,0.0,0.0,0.0,0.0,0.0,0.0,0.0,0.0,-4.3862,-4.4276,-4.4803,-4.5173,-4.5397,-4.5397,-4.5397,-4.5397,-4.5397,-4.5397,-4.5397,-4.5397,-4.5371,-4.5344,-4.523,-4.515,-4.5086,-4.4978,-4.5005,-4.5123,-4.5005,-4.5113,-4.5371,-4.5086,-4.514,-4.5344,-4.5344,-4.5247,-4.515,-3.8885,-3.875,-3.8807,-3.8807,-3.875,-3.8707,-3.8707,-4.0689,-4.1919,0.0,0.0,0.0,0.0,0.0,0.0,0.0,0.0,-4.3069,-4.3214,0.0,-4.265,0.0,0.0,-4.2061,0.0,-4.2007,-4.1812,-4.0959,-4.0613,-3.9967,-3.9067,-3.9157,-3.9564,-4.0272,-4.0706,-4.0877,-4.0912,-4.0912,-4.0912,-4.0912,-4.0912,-4.0912,-4.0912,0.0,-4.0912,-4.0912,-4.0912,0.0,0.0,-4.0912,-4.0912,0.0,0.0,0.0,0.0,0.0,0.0,0.0,0.0,0.0,0.0,-3.9922,0.0,0.0,0.0,0.0,-3.8577,0.0,0.0,0.0,0.0,0.0,0.0,0.0,0.0,0.0,0.0,0.0,0.0,0.0,0.0,0.0,0.0,0.0,0.0,0.0,0.0,0.0,-4.4225,-4.4328,-4.4647,-4.538,-4.5397,-4.5397,-4.5397,-4.5397,-4.5397,-4.5397,-4.5397,-4.5327,-4.522,-4.5203,-4.5059,-4.4803,-4.4803,-4.4886,-4.5005,-4.4858,-4.5049,-4.5371,-4.5086,-4.5086,-4.522,-4.522,-4.5113,-4.5032,-3.9567,-3.9509,-3.9359,-3.8827,0.0,-3.9662,-4.0212,-4.0967,0.0,0.0,0.0,0.0,0.0,-4.3226,-4.2773,0.0,0.0,-4.2378,-4.24,-4.2671,0.0,0.0,0.0,-4.2849,0.0,0.0,0.0,-4.1397,-4.049,-3.9737,-3.9175,-3.9177,-3.9446,-3.9909,-4.0043,-4.0411,0.0,0.0,0.0,0.0,0.0,-4.0912,-4.0912,0.0,-4.0912,-4.0912,-4.0912,-4.0912,0.0,-4.0912,-4.0912,-4.0912,-4.0912,-4.0912,-4.0912,-4.0912,-4.0912,0.0,0.0,0.0,-4.0843,-4.0567,0.0,0.0,0.0,0.0,0.0,0.0,0.0,0.0,0.0,0.0,0.0,0.0,0.0,0.0,0.0,0.0,0.0,0.0,0.0,0.0,0.0,0.0,0.0,0.0,0.0,0.0,0.0,-4.4035,-4.463,-4.538,-4.5397,-4.5397,-4.5397,-4.5397,-4.5397,-4.5397,-4.5397,-4.5344,-4.5194,-4.5113,-4.4951,-4.482,-4.4709,-4.472,-4.4858,-4.472,-4.4858,-4.513,-4.494,-4.4913,-4.4968,-4.5123,-4.5059,-4.4886,-3.9456,-3.9739,0.0,0.0,0.0,0.0,0.0,0.0,0.0,0.0,-4.2361,0.0,-4.4331,0.0,-4.2736,0.0,-4.2431,-4.1969,-4.1969,-4.2234,0.0,-4.1945,-4.2577,0.0,0.0,0.0,0.0,0.0,0.0,-3.9847,-3.955,-3.9163,-3.9246,-3.9698,0.0,-3.9974,-4.0498,0.0,-4.0912,0.0,0.0,-4.084,0.0,0.0,-4.0817,-4.0894,0.0,-4.0864,-4.0912,-4.0912,-4.0912,-4.0912,-4.0912,-4.0912,-4.0912,-4.0912,-4.0912,-4.0912,-4.0912,-4.0912,0.0,-4.0912,-4.0912,0.0,-4.0912,0.0,0.0,0.0,0.0,0.0,0.0,0.0,0.0,0.0,0.0,0.0,0.0,-3.8525,0.0,0.0,0.0,0.0,0.0,0.0,0.0,0.0,0.0,0.0,0.0,0.0,-4.4354,-4.5363,-4.5397,-4.5397,-4.5397,-4.5397,-4.5397,-4.5397,-4.5371,-4.5247,-4.5123,-4.4978,-4.4858,-4.472,-4.4626,-4.4682,-4.4776,-4.4654,-4.4748,-4.4978,-4.4858,-4.4803,-4.4831,-4.5113,-4.5059,-4.4892,-3.8718,-3.953,0.0,0.0,-4.1483,0.0,0.0,0.0,-4.2353,0.0,-4.2807,-4.3611,-4.4458,-4.3695,-4.315,-4.3186,-4.2359,-4.1839,-4.1839,-4.1927,0.0,0.0,-4.1903,-4.1969,-4.1494,0.0,0.0,0.0,0.0,-4.0337,-4.0149,-3.9096,-3.8957,-3.9646,-3.9646,0.0,-3.975,-4.0567,-4.0912,-4.0888,-4.0745,-4.0697,-4.0673,-4.0534,-4.0655,-4.0847,-4.0745,-4.0793,-4.0871,-4.0888,-4.0888,-4.0871,-4.0871,-4.0871,-4.0888,-4.0888,-4.0894,-4.0912,-4.0912,-4.0912,-4.0912,-4.0912,-4.0912,0.0,0.0,0.0,-4.0912,0.0,0.0,0.0,0.0,0.0,0.0,0.0,0.0,0.0,0.0,0.0,0.0,0.0,0.0,0.0,0.0,0.0,0.0,0.0,0.0,0.0,0.0,0.0,-4.3897,-4.5345,-4.5397,-4.5397,-4.5397,-4.5397,-4.5397,-4.5397,-4.5274,-4.514,-4.5005,-4.4858,-4.4737,-4.4615,-4.4615,-4.4682,-4.4776,-4.4654,-4.4765,-4.4951,-4.4858,-4.4803,-4.4831,-4.5086,-4.5103,-4.5121,-3.9407,-4.0231,-4.1049,0.0,-4.1368,-4.1303,0.0,0.0,0.0,0.0,-4.3075,-4.3447,-4.5003,-4.3458,-4.2536,-4.3145,-4.1963,0.0,0.0,0.0,0.0,-4.1041,-4.1687,-4.1885,-4.1494,-4.1604,0.0,-4.1345,0.0,0.0,-3.9818,-3.8984,-3.8698,-3.887,0.0,0.0,-3.975,-4.0567,-4.084,-4.0745,-4.0721,-4.0648,0.0,0.0,-4.0461,-4.0607,-4.0673,-4.0673,-4.0607,-4.0721,-4.0697,-4.0607,-4.0607,-4.0655,-4.0745,-4.0745,-4.0817,-4.0912,-4.0912,-4.0912,-4.0912,-4.0912,-4.0912,-4.0912,0.0,0.0,0.0,0.0,0.0,0.0,0.0,0.0,0.0,0.0,0.0,0.0,0.0,0.0,0.0,-4.0532,0.0,0.0,0.0,0.0,0.0,0.0,0.0,0.0,0.0,0.0,0.0,-4.5345,-4.5397,-4.5397,-4.5397,-4.5397,-4.5397,-4.5397,-4.5274,-4.514,-4.5005,-4.4858,-4.4737,-4.4615,-4.4615,-4.4626,-4.4654,-4.4598,-4.4626,-4.4709,-4.4776,-4.4858,-4.4923,-4.4803,-4.5133,-4.5671,-3.9631,0.0,0.0,-4.0801,0.0,0.0,-4.2071,-4.1934,0.0,-4.3387,-4.3188,0.0,-4.4328,-4.3285,-4.2568,-4.2672,-4.1585,0.0,-4.0912,0.0,0.0,-4.0912,-4.13,-4.1423,-4.1237,-4.1237,0.0,-4.1237,0.0,0.0,-3.9681,-3.8612,-3.8134,-3.8134,0.0,-3.8358,0.0,-3.9928,-4.049,-4.0697,-4.0648,0.0,0.0,-4.0263,-4.0263,-4.032,-4.0478,-4.051,-4.051,-4.0583,-4.0558,-4.051,-4.051,-4.0558,-4.0607,-4.0673,-4.0745,-4.084,-4.0871,-4.0912,-4.0912,-4.0912,-4.0912,-4.0912,-4.0912,-4.0912,-4.0912,0.0,-4.0912,-4.0912,0.0,0.0,0.0,0.0,0.0,0.0,0.0,0.0,0.0,0.0,-4.0912,0.0,0.0,0.0,0.0,0.0,0.0,0.0,0.0,0.0,0.0,-4.4889,-4.5225,-4.5397,-4.5397,-4.5397,-4.5397,-4.5397,-4.5194,-4.5086,-4.4978,-4.4803,-4.4682,-4.4615,-4.4615,-4.4615,-4.4615,-4.4615,-4.4615,-4.4615,-4.4682,-4.4776,-4.492,-4.5027,-4.5416,-4.5937,0.0,0.0,0.0,0.0,0.0,0.0,0.0,-4.1555,0.0,-4.3024,0.0,-4.3086,-4.3189,-4.3103,-4.2758,-4.2068,0.0,-4.0912,-4.0912,-4.0912,-4.0912,-4.0912,-4.0912,-4.0912,-4.0912,-4.0912,0.0,0.0,0.0,0.0,-3.9526,-3.8151,-3.7443,0.0,0.0,0.0,0.0,-3.9123,-4.007,-4.0673,-4.0534,-4.0387,-4.0263,-4.0121,-4.0096,-4.0113,-4.0238,-4.0337,-4.0461,-4.0485,-4.0461,-4.0461,-4.0461,-4.0461,-4.051,-4.0624,-4.0673,-4.0721,-4.0817,-4.0847,-4.0871,-4.0871,-4.0871,-4.0888,-4.0912,-4.0912,-4.0912,-4.0912,-4.0912,-4.0912,0.0,0.0,0.0,0.0,0.0,0.0,0.0,0.0,0.0,0.0,0.0,0.0,0.0,0.0,0.0,0.0,0.0,0.0,0.0,0.0,0.0,-4.4276,-4.5027,-4.5397,-4.5397,-4.5397,-4.5397,-4.5371,-4.5113,-4.4978,-4.4968,-4.4709,-4.4615,-4.4615,-4.4615,-4.4615,-4.4615,-4.4615,-4.4615,-4.4615,-4.4615,-4.4722,-4.4986,-4.5523,-4.5908,-4.6248,0.0,0.0,0.0,0.0,0.0,-4.1153,-4.1919,-4.1419,-4.1488,-4.3,-4.262,-4.2465,-4.312,-4.262,-4.2154,-4.1992,-4.1343,0.0,0.0,0.0,0.0,-4.0912,-4.0912,-4.0912,-4.0912,-4.0912,-4.0912,0.0,0.0,0.0,-3.8767,-3.7909,-3.715,0.0,0.0,0.0,-3.9319,-3.9479,0.0,-4.0534,-4.0387,-4.0238,-4.0121,-4.0113,-4.0096,-4.0096,-4.0138,-4.0163,-4.0188,-4.0288,-4.0263,-4.0171,-4.0171,-4.0238,-4.0337,-4.0355,-4.0527,-4.0673,-4.0583,-4.0631,-4.0745,-4.0745,-4.0745,-4.0769,-4.0871,-4.0912,-4.0912,-4.0912,-4.0912,-4.0912,-4.0912,0.0,0.0,0.0,0.0,0.0,0.0,0.0,0.0,0.0,0.0,-4.029,0.0,0.0,0.0,0.0,0.0,0.0,0.0,0.0,0.0,0.0,-4.5027,0.0,0.0,0.0,-4.5327,-4.523,-4.5086,-4.4923,-4.4831,-4.4682,-4.4615,-4.4615,-4.4615,-4.4615,-4.4615,-4.4615,-4.4615,-4.4615,-4.4615,-4.4987,-4.5546,-4.5652,-4.6481,-4.7577,0.0,0.0,0.0,0.0,0.0,0.0,0.0,-4.1378,-4.1309,-4.243,-4.224,-4.1999,-4.2016,-4.1999,-4.1861,-4.1464,-4.1101,-4.0912,-4.0912,-4.0912,-4.0912,-4.0912,-4.0912,0.0,-4.0912,-4.0912,-4.0912,-4.0912,0.0,0.0,-3.856,-3.7426,0.0,-3.6318,0.0,-3.7715,0.0,0.0,0.0,-4.0485,-4.0337,-4.0213,-4.0096,-4.0096,-4.0096,-4.0096,-4.0096,-4.0096,-4.0113,-4.0163,-4.0163,-4.0096,-4.0096,-4.0121,-4.0213,-4.028,-4.0404,-4.0485,-4.051,-4.0558,-4.06,-4.06,-4.0648,-4.0697,-4.068,-4.0799,-4.0888,-4.0817,-4.0864,-4.0912,-4.0912,-4.0912,0.0,0.0,0.0,0.0,0.0,0.0,0.0,0.0,0.0,0.0,0.0,0.0,0.0,0.0,0.0,-3.9077,-4.0215,0.0,-4.2137,0.0,0.0,0.0,-4.5397,0.0,-4.5327,-4.5203,-4.5059,-4.494,-4.482,-4.4654,-4.4615,-4.4615,-4.4615,-4.4615,-4.4615,-4.4615,-4.4615,-4.4615,-4.4615,-4.5043,-4.5754,-4.6126,-4.6972,-4.7889,0.0,-4.0935,0.0,0.0,-4.0912,0.0,-4.1688,-4.1274,-4.117,-4.1888,-4.1854,-4.155,-4.0963,-4.1429,-4.1533,-4.0963,-4.0912,-4.0912,-4.0912,-4.0912,-4.0912,-4.0912,-4.0912,-4.0912,-4.0912,-4.0912,-4.0912,0.0,0.0,0.0,0.0,-3.7094,0.0,0.0,0.0,0.0,0.0,0.0,-3.9326,-4.0436,-4.0313,-4.0188,-4.0096,-4.0096,-4.0096,-4.0096,-4.0096,-4.0096,-4.0096,-4.0096,-4.0096,-4.0096,-4.0096,-4.0096,-4.0138,-4.0213,-4.028,-4.033,-4.0395,-4.0436,-4.0461,-4.0461,-4.0551,-4.06,-4.051,-4.0655,-4.0776,-4.0721,-4.0817,-4.0912,-4.0912,-4.0912,0.0,0.0,0.0,0.0,0.0,0.0,0.0,0.0,0.0,0.0,0.0,0.0,0.0,0.0,0.0,-3.8681,-3.9422,-4.0394,-4.1619,0.0,0.0,-4.4647,-4.5397,0.0,-4.5318,-4.5167,-4.5059,-4.4896,-4.4748,-4.4654,-4.4615,-4.4615,-4.4615,-4.4615,-4.4615,-4.4615,-4.4615,-4.4632,-4.4784,-4.528,-4.6024,-4.6769,-4.7513,-4.8125,0.0,0.0,0.0,0.0,0.0,0.0,-4.0998,-4.0946,-4.117,-4.1888,-4.1429,-4.0981,-4.0912,-4.0963,-4.0981,-4.0912,-4.0912,-4.0912,-4.0912,-4.0912,-4.0912,-4.0912,-4.0912,-4.0912,-4.0912,-4.0912,-4.0912,0.0,0.0,-3.8939,0.0,0.0,0.0,0.0,0.0,0.0,0.0,-3.9052,-3.9703,-4.0305,-4.0163,-4.0096,-4.0096,-4.0096,-4.0096,-4.0096,-4.0096,-4.0096,-4.0096,-4.0096,-4.0096,-4.0096,-4.0096,-4.0096,-4.0096,-4.0113,-4.0213,-4.028,-4.0163,-4.0238,-4.033,-4.033,-4.033,-4.0379,-4.0485,-4.0534,-4.0558,-4.0673,-4.0817,-4.0912,-4.0912,-4.0912,-4.0912,0.0,0.0,0.0,0.0,0.0,0.0,0.0,0.0,0.0,0.0,-3.8422,0.0,0.0,-3.7944,-3.7927,-3.8646,-4.0101,-4.1619,-4.3138,-4.3914,-4.4647,-4.5397,-4.5397,-4.5264,-4.5005,-4.5005,-4.4858,-4.4626,-4.4615,-4.4615,-4.4615,-4.4615,-4.4615,-4.4615,-4.4615,-4.4615,-4.4682,-4.5331,-4.6041,-4.6786,-4.753,-4.8274,-4.89,0.0,0.0,0.0,0.0,0.0,0.0,0.0,-4.0912,-4.1015,-4.1309,-4.1084,-4.0912,-4.0912,-4.0912,-4.0912,-4.0912,-4.0912,-4.0912,-4.0912,-4.0912,-4.0912,-4.0912,-4.0912,-4.0912,-4.0912,-4.0912,-4.0912,0.0,0.0,0.0,0.0,0.0,0.0,0.0,0.0,-3.8493,-3.9077,-3.9286,-3.9747,-4.0305,-4.0163,-4.0096,-4.0096,-4.0096,-4.0096,-4.0096,-4.0096,-4.0096,-4.0096,-4.0096,-4.0096,-4.0096,-4.0096,-4.0096,-4.0096,-4.0096,-4.0138,-4.0163,-4.0096,-4.0138,-4.0188,-4.0188,-4.0238,-4.0288,-4.0263,-4.037,-4.051,-4.0558,-4.0752,-4.0912,-4.0912,-4.0912,-4.0912,-4.0912,0.0,0.0,0.0,0.0,0.0,0.0,0.0,0.0,0.0,0.0,0.0,0.0,0.0,-3.7508,-3.9163,-3.9422,0.0,-4.312,0.0,-4.4199,-4.538,-4.53,-4.5194,-4.5005,-4.4913,-4.4776,-4.4615,-4.4615,-4.4615,-4.4615,-4.4615,-4.4615,-4.4615,-4.4615,-4.4615,-4.4682,-4.5415,-4.616,-4.6887,-4.7648,-4.8376,-4.9001,-4.0959,0.0,-4.0912,0.0,-4.0912,-4.0912,-4.0912,-4.0912,-4.0912,-4.0912,-4.0912,-4.0912,-4.0912,-4.0912,-4.0912,-4.0912,-4.0912,-4.0912,-4.0912,-4.0912,-4.0912,-4.0912,-4.0912,0.0,-4.0912,-4.0912,-4.0912,-4.0912,-4.0077,0.0,0.0,0.0,0.0,0.0,-3.8773,-3.9078,-3.9476,-3.9614,-3.9885,-4.0238,-4.0138,-4.0096,-4.0096,-4.0096,-4.0096,-4.0096,-4.0096,-4.0096,-4.0096,-4.0096,-4.0096,-4.0096,-4.0096,-4.0096,-4.0096,-4.0096,-4.0096,-4.0096,-4.0096,-4.0096,-4.0096,-4.0096,-4.0163,-4.0213,-4.0138,-4.0246,-4.0395,-4.0468,-4.0704,-4.0912,-4.0912,-4.0912,-4.0912,-4.0912,0.0,0.0,0.0,0.0,0.0,0.0,-4.0705,-4.0653,-4.0877,-3.9514,0.0,0.0,0.0,0.0,0.0,0.0,0.0,0.0,0.0,0.0,-4.5069,-4.4988,-4.4852,-4.4714,-4.4759,-4.4737,-4.4615,-4.4615,-4.4615,-4.4615,-4.4615,-4.4615,-4.4615,-4.4615,-4.4733,-4.4993,-4.5737,-4.6464,-4.7208,-4.797,-4.8562,-4.9001,-4.1093,-4.0982,-4.0912,-4.0912,-4.0912,-4.0912,-4.0912,-4.0912,-4.0912,-4.0912,-4.0912,-4.0912,-4.0912,-4.0912,-4.0912,-4.0912,-4.0912,-4.0912,-4.0912,-4.0912,-4.0912,0.0,0.0,-4.0912,-4.0912,-4.0912,-4.0912,-4.0912,0.0,0.0,-4.0877,0.0,-3.9301,-3.8629,-3.9215,-3.9459,-3.9426,-4.0031,-4.0213,-4.0096,-4.0096,-4.0096,-4.0096,-4.0096,-4.0096,-4.0096,-4.0096,-4.0096,-4.0096,-4.0096,-4.0096,-4.0096,-4.0096,-4.0096,-4.0096,-4.0096,-4.0096,-4.0096,-4.0096,-4.0096,-4.0096,-4.0096,-4.0096,-4.0096,-4.0096,-4.0096,-4.0171,-4.0461,-4.0704,-4.0912,-4.0912,-4.0912,-4.0912,-4.0912,0.0,0.0,0.0,0.0,0.0,0.0,-4.0198,-4.0026,-4.0825,-3.9514,0.0,0.0,0.0,0.0,0.0,0.0,0.0,-4.2842,-4.2454,0.0,-4.4293,-4.4293,-4.4207,-4.403,-4.4564,-4.4737,-4.4615,-4.4615,-4.4615,-4.4615,-4.4615,-4.4615,-4.4615,-4.4615,-4.501,-4.5771,-4.6498,-4.7242,-4.7973,-4.8714,-4.9001,-4.9001,-4.0959,-4.0935,-4.0912,-4.0912,-4.0912,-4.0912,-4.0912,-4.0912,-4.0912,-4.0912,-4.0912,-4.0912,-4.0912,-4.0912,-4.0912,0.0,-4.0912,-4.0912,0.0,-4.0912,-4.0912,-4.0912,-4.0912,-4.0912,-4.0912,-4.0912,-4.0912,-4.0912,0.0,0.0,0.0,-4.0653,-4.0394,-4.0164,-4.0264,-4.0247,-4.0168,-4.0277,-4.0213,-4.0096,-4.0096,-4.0096,-4.0096,-4.0096,-4.0096,-4.0096,-4.0096,-4.0096,-4.0096,-4.0096,-4.0096,-4.0096,-4.0096,-4.0096,-4.0096,-4.0096,-4.0096,-4.0096,-4.0096,-4.0096,-4.0096,-4.0096,-4.0096,-4.0096,-4.0096,-4.0163,-4.0288,-4.0461,-4.0631,-4.0793,-4.0871,-4.0912,-4.0912,-4.0912,-4.0912,0.0,0.0,0.0,0.0,0.0,-4.0687,-4.0636,-4.0877,-3.9957,0.0,0.0,0.0,0.0,0.0,0.0,0.0,0.0,-4.2011,0.0,-4.4418,-4.4219,-4.4305,-4.4686,-4.4665,-4.4626,-4.4615,-4.4615,-4.4615,-4.4615,-4.4615,-4.4615,-4.4615,-4.4615,-4.5026,-4.5771,-4.6498,-4.7259,-4.7973,-4.8731,-4.9001,-4.9001,-4.0912,-4.0912,-4.0912,-4.0912,-4.0912,-4.0912,-4.0912,-4.0912,-4.0912,-4.0912,-4.0912,-4.0912,-4.0912,-4.0912,0.0,-4.0912,-4.0912,-4.0912,-4.0912,-4.0912,-4.0912,-4.0912,-4.0912,-4.0912,-4.0912,-4.0912,0.0,-4.0912,-4.0912,-4.0912,-4.0912,-4.0912,-4.0871,-4.0817,-4.068,-4.0534,-4.0412,-4.0288,-4.0188,-4.0096,-4.0096,-4.0096,-4.0096,-4.0096,-4.0096,-4.0096,-4.0096,-4.0096,-4.0096,-4.0096,-4.0096,-4.0096,-4.0096,-4.0096,-4.0096,-4.0096,-4.0096,-4.0163,-4.0426,-4.0316,-4.0231,-4.0807,-4.0519,-4.0096,-4.0096,-4.0213,-4.0313,-4.0412,-4.0534,-4.0631,-4.0728,-4.0776,-4.0817,-4.0817,-4.0864,-4.0912,-4.0912,0.0,0.0,0.0,0.0,0.0,0.0,-4.0227,-4.0124,0.0,0.0,0.0,0.0,0.0,0.0,-4.2068,-4.1655,-4.2128,-4.3693,-4.368,-4.3856,-4.4276,-4.4497,-4.4485,-4.4298,-4.4514,-4.4615,-4.4615,-4.4615,-4.4615,-4.4632,-4.4919,-4.5449,-4.6194,-4.6938,-4.7665,-4.8392,-4.8832,-4.9001,-4.9001,-4.0912,-4.0912,-4.0912,0.0,-4.0912,-4.0912,-4.0912,-4.0912,-4.0912,-4.0912,-4.0912,-4.0912,-4.0912,-4.0912,-4.0912,-4.0912,0.0,0.0,0.0,-4.0912,-4.0912,-4.0912,-4.0912,-4.0912,-4.0912,-4.0912,-4.0912,-4.0912,-4.0912,-4.0912,-4.0912,-4.0888,-4.0817,-4.0697,-4.0558,-4.0412,-4.0288,-4.0163,-4.0096,-4.0096,-4.0096,-4.0096,-4.0096,-4.0096,-4.0096,-4.0096,-4.0096,-4.0096,-4.0096,-4.0096,-4.0096,-4.0096,-4.0096,-4.0096,-4.0096,-4.0096,-4.0096,-4.0265,-4.1001,-4.0696,-4.0519,-4.1931,-4.1247,-4.0163,-4.0113,-4.0188,-4.0305,-4.0305,-4.0387,-4.0485,-4.051,-4.0624,-4.0697,-4.0697,-4.0793,-4.0864,-4.0912,0.0,0.0,0.0,0.0,0.0,-4.0355,-4.0305,-4.0305,0.0,0.0,0.0,0.0,0.0,-4.0296,-4.1852,-4.1319,-4.1444,-4.2397,-4.2867,-4.3113,-4.3174,-4.408,-4.4298,-4.3831,-4.4355,-4.4615,-4.4615,-4.4615,-4.4632,-4.4733,-4.5415,-4.616,-4.6938,-4.7648,-4.8359,-4.9001,-4.9001,-4.9001,-4.9001,0.0,0.0,-4.0912,-4.0912,-4.0912,-4.0912,-4.0912,-4.0912,-4.0912,-4.0912,-4.0912,-4.0912,-4.0912,-4.0912,-4.0912,-4.0912,-4.0912,-4.0912,-4.0912,-4.0912,-4.0912,-4.0912,-4.0912,-4.0912,-4.0912,-4.0912,-4.0912,-4.0912,-4.0912,-4.0912,-4.0912,-4.0793,-4.0721,-4.0697,-4.0436,-4.033,-4.0288,-4.0163,-4.0096,-4.0096,-4.0096,-4.0096,-4.0096,-4.0096,-4.0096,-4.0096,-4.0096,-4.0096,-4.0096,-4.0096,-4.0096,-4.0096,-4.0096,-4.0096,-4.0096,-4.0096,-4.0096,-4.0265,-4.1001,-4.1068,-4.1153,-4.2066,-4.161,-4.0781,-4.0231,-4.0121,-4.0188,-4.028,-4.033,-4.0429,-4.0624,-4.0673,-4.0721,-4.084,-4.0607,-4.0534,-4.0864,-4.0631,-4.0576,0.0,-4.0648,-4.0387,-4.0305,-4.0305,-4.0305,0.0,0.0,0.0,-4.033,-4.0451,-4.0682,-4.091,-4.0421,-4.0902,-4.2554,-4.2912,-4.3279,-4.3654,-4.3889,-4.3919,-4.3831,-4.4355,-4.4615,-4.4615,-4.4615,-4.4936,-4.5449,-4.5635,-4.6481,-4.7682,-4.7821,-4.8359,-4.9001,-4.9001,-4.9001,-4.9001,-4.0912,-4.0912,-4.0912,-4.0912,-4.0912,-4.0912,-4.0912,-4.0912,-4.0912,-4.0912,-4.0912,-4.0912,-4.0912,-4.0912,-4.0912,-4.0912,-4.0912,-4.0912,-4.0912,-4.0912,-4.0912,-4.0912,-4.0912,-4.0912,-4.0912,-4.0912,-4.0912,-4.0912,-4.0912,-4.0864,-4.0817,-4.0721,-4.0624,-4.0502,-4.0355,-4.028,-4.0213,-4.0121,-4.0096,-4.0096,-4.0096,-4.0096,-4.0096,-4.0096,-4.0096,-4.0096,-4.0096,-4.0096,-4.0096,-4.0096,-4.0096,-4.0096,-4.0096,-4.0096,-4.0096,-4.0096,-4.0096,-4.0333,-4.1407,-4.1457,-4.1305,-4.1694,-4.1508,-4.1018,-4.0282,-4.0096,-4.0138,-4.0188,-4.0263,-4.0337,-4.0502,-4.0624,-4.0673,-4.0558,-4.0558,-4.06,-4.0607,-4.06,-4.0673,-4.0871,-4.0704,-4.0485,-4.033,-4.0305,-4.0441,-4.0781,-4.0673,0.0,-4.0535,-4.0567,-4.0597,-4.0606,-4.0485,-4.0974,-4.2142,-4.2586,-4.2929,-4.3174,-4.3578,-4.3684,-4.3505,-4.427,-4.4615,-4.4615,-4.4615,-4.4835,-4.5246,-4.5923,-4.6667,-4.7462,-4.8156,-4.8663,-4.9001,-4.9001,-4.9001,-4.9001,-4.0912,-4.0912,-4.0912,-4.0912,-4.0912,-4.0912,-4.0912,-4.0912,-4.0912,-4.0912,-4.0912,-4.0912,-4.0912,-4.0912,-4.0912,-4.0912,-4.0912,-4.0912,-4.0912,-4.0912,-4.0912,-4.0912,-4.0912,-4.0912,-4.0912,-4.0912,-4.0912,-4.0912,-4.0912,-4.084,-4.0697,-4.0673,-4.0551,-4.0305,-4.028,-4.0213,-4.0096,-4.0096,-4.0096,-4.0096,-4.0096,-4.0096,-4.0096,-4.0096,-4.0096,-4.0096,-4.0096,-4.0096,-4.0096,-4.0096,-4.0096,-4.0096,-4.0096,-4.0096,-4.0096,-4.0096,-4.0096,-4.04,-4.1745,-4.1762,-4.1339,-4.1238,-4.1288,-4.1136,-4.0299,-4.0197,-4.0231,-4.013,-4.0188,-4.0263,-4.0313,-4.0527,-4.0576,-4.0288,-4.0558,-4.0704,-4.0412,0.0,-4.0817,-4.0817,-4.0817,-4.0655,-4.0238,-4.0263,-4.056,-4.1172,-4.0645,-4.0383,-4.0601,-4.0425,-4.036,-4.0504,-4.0916,-4.1294,-4.172,-4.2174,-4.2413,-4.2413,-4.3279,-4.3489,-4.3127,-4.4138,-4.4615,-4.4615,-4.4615,-4.4733,-4.5038,-4.6261,-4.6921,-4.7259,-4.8511,-4.9001,-4.9001,-4.9001,-4.9001,-4.9001,-4.0912,-4.0912,-4.0912,-4.0912,-4.0912,-4.0912,-4.0912,-4.0912,-4.0912,-4.0912,-4.0912,-4.0912,-4.0912,-4.0912,-4.0912,-4.0912,-4.0912,-4.0912,-4.0912,-4.0912,-4.0912,-4.0912,-4.0912,-4.0912,-4.0912,-4.0912,-4.0912,-4.0912,-4.0912,-4.084,-4.0697,-4.0583,-4.0436,-4.0305,-4.0188,-4.0138,-4.0096,-4.0096,-4.0096,-4.0096,-4.0096,-4.0096,-4.0096,-4.0096,-4.0096,-4.0096,-4.0096,-4.0096,-4.0096,-4.0096,-4.0096,-4.0096,-4.0096,-4.0096,-4.0096,-4.0096,-4.0096,-4.0299,-4.1136,-4.1745,-4.1982,-4.1356,-4.1677,-4.1762,-4.0417,-4.0578,-4.0849,-4.0231,-4.0113,-4.0213,-4.0436,-4.051,-4.0583,-4.0752,-4.0558,-4.0485,-4.0752,0.0,-4.0387,-4.0387,-4.0387,-4.0196,-3.974,-4.007,-4.0356,-4.0458,-4.0356,-4.0146,-3.9804,-4.0436,-4.0574,-4.0121,-4.0467,-4.1199,-4.227,-4.2349,-4.2413,-4.2413,-4.2959,-4.3157,-4.3127,-4.4138,-4.4615,-4.4615,-4.4615,-4.5326,-4.6464,-4.6701,-4.753,-4.868,-4.8917,-4.9001,-4.9001,-4.9001,-4.9001,-4.9001,-4.0912,-4.0912,-4.0912,-4.0912,-4.0912,-4.0912,-4.0912,-4.0912,-4.0912,-4.0912,-4.0912,-4.0912,-4.0912,-4.0912,-4.0912,-4.0912,-4.0912,-4.0912,-4.0912,-4.0912,-4.0912,-4.0912,-4.0912,-4.0912,-4.0912,-4.0912,-4.0912,-4.0912,-4.084,-4.0704,-4.0583,-4.0461,-4.0313,-4.0188,-4.0138,-4.0096,-4.0096,-4.0096,-4.0096,-4.0096,-4.0096,-4.0096,-4.0096,-4.0096,-4.0096,-4.0096,-4.0096,-4.0096,-4.0096,-4.0096,-4.0096,-4.0096,-4.0096,-4.0096,-4.0096,-4.0096,-4.0383,-4.0764,-4.1119,-4.1457,-4.1711,-4.1779,-4.1745,-4.1627,-4.1365,-4.1542,-4.1694,-4.1365,-4.1401,-4.141,-4.1144,-4.1033,-4.0805,-4.028,-4.0246,0.0,-4.0212,-4.0246,-4.0305,-4.0305,-4.0305,-4.0213,-4.0003,-4.037,-4.0778,-4.1197,-4.065,-4.0451,-4.0776,-4.0859,-4.0794,-4.0606,-4.0944,-4.1533,-4.2381,-4.2109,-4.2109,-4.2413,-4.2867,-4.3218,-4.3489,-4.427,-4.4615,-4.4632,-4.501,-4.5585,-4.6261,-4.7056,-4.78,-4.846,-4.8849,-4.9001,-4.9001,-4.9001,-4.9001,-4.9001,-4.0912,-4.0912,-4.0912,-4.0912,-4.0912,-4.0912,-4.0912,-4.0912,-4.0912,-4.0912,-4.0912,-4.0912,-4.0912,-4.0912,-4.0912,-4.0912,-4.0912,-4.0912,-4.0912,-4.0912,-4.0912,-4.0912,-4.0912,-4.0912,-4.0912,-4.0912,-4.0912,-4.0912,-4.0769,-4.0648,-4.051,-4.0362,-4.0238,-4.0163,-4.0096,-4.0121,-4.0196,-4.0163,-4.0163,-4.0163,-4.0163,-4.0138,-4.0096,-4.0096,-4.0096,-4.0096,-4.0096,-4.0096,-4.0096,-4.0096,-4.0096,-4.0113,-4.0138,-4.0163,-4.0163,-4.0171,-4.0578,-4.101,-4.0976,-4.0976,-4.1145,-4.189,-4.1771,-4.1636,-4.2194,-4.2422,-4.2533,-4.2373,-4.2524,-4.2458,-4.1775,-4.1495,-4.0993,-3.9926,0.0,-4.0171,-3.9808,-4.007,-4.0305,-4.0305,-4.0305,-4.0305,-4.0305,-4.0827,-4.1347,-4.18,-4.1095,-4.0939,-4.1599,-4.1243,-4.117,-4.1514,-4.1677,-4.198,-4.2381,-4.2109,-4.2109,-4.2413,-4.299,-4.3558,-4.4064,-4.4439,-4.4801,-4.5139,-4.5534,-4.5889,-4.6312,-4.7415,-4.799,-4.8193,-4.8781,-4.9001,-4.9001,-4.9001,-4.9001,-4.9001,-4.0912,-4.0912,-4.0912,-4.0912,-4.0912,-4.0912,-4.0912,-4.0912,-4.0912,-4.0912,-4.0912,-4.0912,-4.0912,-4.0912,-4.0912,-4.0912,-4.0912,-4.0912,-4.0912,-4.0912,-4.0912,-4.0912,-4.0912,-4.0912,-4.0912,-4.0912,-4.0912,-4.0912,-4.0769,-4.0648,-4.051,-4.0362,-4.0288,-4.028,-4.0163,-4.0238,-4.0461,-4.0337,-4.0305,-4.0305,-4.0305,-4.0213,-4.0096,-4.0096,-4.0096,-4.0096,-4.0096,-4.0096,-4.0096,-4.0096,-4.0096,-4.0138,-4.0238,-4.0305,-4.0313,-4.0419,-4.0519,-4.0497,-4.0256,-4.0273,-4.051,-4.1128,-4.1841,-4.2394,-4.2313,-4.2828,-4.3159,-4.2607,-4.2507,-4.2364,-4.1883,-4.1478,-4.101,-4.0357,0.0,0.0,-4.0238,-4.028,-4.0305,-4.0305,-4.0305,-4.0305,-4.0305,-4.1273,-4.1776,-4.1384,-4.1553,-4.1522,-4.1177,-4.1216,-4.1716,-4.274,-4.2492,-4.2349,-4.2413,-4.2805,-4.2805,-4.2413,-4.3325,-4.4105,-4.4827,-4.4675,-4.5359,-4.6599,-4.5974,-4.6498,-4.7736,-4.7838,-4.8308,-4.8934,-4.8984,-4.9001,-4.9001,-4.9001,-4.9001,-4.9001,-4.0912,-4.0912,-4.0912,-4.0912,-4.0912,-4.0912,-4.0912,-4.0912,-4.0912,-4.0912,-4.0912,-4.0912,-4.0912,-4.0912,-4.0912,-4.0912,-4.0912,-4.0912,-4.0912,-4.0912,-4.0912,-4.0912,-4.0912,-4.0912,-4.0912,-4.0912,-4.0912,-4.0912,-4.0769,-4.0673,-4.0624,-4.0485,-4.0412,-4.0412,-4.0387,-4.0395,-4.0485,-4.0355,-4.0305,-4.0288,-4.0213,-4.0163,-4.0096,-4.0096,-4.0096,-4.0096,-4.0096,-4.0096,-4.0096,-4.0188,-4.0213,-4.0238,-4.0387,-4.0412,-4.0436,-4.0485,-4.051,-4.0485,-4.0387,-4.0387,-4.0701,-4.1835,-4.2389,-4.2858,-4.3768,-4.4184,-4.433,-4.4095,-4.4107,-4.3973,-4.334,-4.2743,-4.2153,-4.1758,0.0,-4.0644,-4.0943,-4.0594,-4.0305,-4.0305,-4.0305,-4.0475,-4.0934,-4.1599,-4.2132,-4.2439,-4.2057,-4.1922,-4.2181,-4.2354,-4.2879,-4.3873,-4.3366,-4.3033,-4.2958,-4.2851,-4.2943,-4.3279,-4.3625,-4.4361,-4.5391,-4.5313,-4.5838,-4.6802,-4.7005,-4.7365,-4.7922,-4.8409,-4.8748,-4.9001,-4.9001,-4.9001,-4.9001,-4.9001,-4.9001,-4.9001,-4.0912,-4.0912,-4.0912,-4.0912,-4.0912,-4.0912,-4.0912,-4.0912,-4.0912,-4.0912,-4.0912,-4.0912,-4.0912,-4.0912,-4.0912,-4.0912,-4.0912,-4.0912,-4.0912,-4.0912,-4.0912,-4.0912,-4.0912,-4.0912,-4.0912,-4.0912,-4.0912,-4.0912,-4.0769,-4.0697,-4.0697,-4.0558,-4.0534,-4.0558,-4.0534,-4.0558,-4.0607,-4.0461,-4.0404,-4.0337,-4.0246,-4.0188,-4.0096,-4.0096,-4.0096,-4.0113,-4.0163,-4.0163,-4.0188,-4.0313,-4.0362,-4.0387,-4.051,-4.0583,-4.0631,-4.0631,-4.0631,-4.0683,-4.0906,-4.0974,-4.1258,-4.2398,-4.292,-4.3459,-4.4714,-4.5005,-4.5005,-4.5059,-4.514,-4.498,-4.4294,-4.3647,-4.3067,-4.2573,-4.1803,-4.1293,-4.1401,-4.1155,-4.095,-4.0853,-4.0924,-4.124,-4.1903,-4.2412,-4.2873,-4.3297,-4.2801,-4.2612,-4.2945,-4.3356,-4.3827,-4.4259,-4.4026,-4.3794,-4.3621,-4.3216,-4.3292,-4.3802,-4.3977,-4.4745,-4.6041,-4.5821,-4.6363,-4.7513,-4.78,-4.8024,-4.8261,-4.8798,-4.9001,-4.9001,-4.9001,-4.9001,-4.9001,-4.9001,-4.9001,-4.9001,-4.0912,-4.0912,-4.0912,-4.0912,-4.0912,-4.0912,-4.0912,-4.0912,-4.0912,-4.0912,-4.0912,-4.0912,-4.0912,-4.0912,-4.0912,-4.0912,-4.0912,-4.0912,-4.0912,-4.0912,-4.0912,-4.0912,-4.0912,-4.0912,-4.0912,-4.0912,-4.0912,-4.0912,-4.0769,-4.0697,-4.0697,-4.0558,-4.0558,-4.0697,-4.0558,-4.0655,-4.0888,-4.0745,-4.0624,-4.051,-4.051,-4.032,-4.0096,-4.0096,-4.0096,-4.0138,-4.0238,-4.0305,-4.033,-4.0461,-4.051,-4.0534,-4.0673,-4.0793,-4.0912,-4.0912,-4.0912,-4.1067,-4.1809,-4.2016,-4.2132,-4.2586,-4.3408,-4.4258,-4.4861,-4.5005,-4.5032,-4.5177,-4.5203,-4.5007,-4.4423,-4.3973,-4.3452,-4.2643,-4.2507,-4.2252,-4.1537,-4.2048,-4.239,-4.2053,-4.2296,-4.268,-4.3139,-4.388,-4.4113,-4.3647,-4.3855,-4.3739,-4.3127,-4.4128,-4.4412,-4.3839,-4.4384,-4.4586,-4.431,-4.4105,-4.396,-4.3802,-4.4355,-4.5393,-4.6769,-4.6058,-4.6921,-4.8968,-4.824,-4.8342,-4.9001,-4.9001,-4.9001,-4.9001,-4.9001,-4.9001,-4.9001,-4.9001,-4.9001,-4.9001,-4.0912,-4.0912,-4.0912,-4.0912,-4.0912,-4.0912,-4.0912,-4.0912,-4.0912,-4.0912,-4.0912,-4.0912,-4.0912,-4.0912,-4.0912,-4.0912,-4.0912,-4.0912,-4.0912,-4.0912,-4.0912,-4.0912,-4.0912,-4.0912,-4.0912,-4.0912,-4.0912,-4.0912,-4.0864,-4.084,-4.084,-4.0799,-4.0799,-4.084,-4.0799,-4.084,-4.0888,-4.0745,-4.0624,-4.0485,-4.0387,-4.0313,-4.0238,-4.0138,-4.0238,-4.0387,-4.0313,-4.0362,-4.0461,-4.06,-4.0648,-4.0673,-4.0793,-4.0864,-4.0912,-4.0912,-4.0912,-4.1067,-4.1809,-4.2413,-4.2992,-4.3674,-4.4036,-4.4423,-4.5119,-4.5291,-4.5291,-4.5344,-4.5344,-4.5302,-4.5104,-4.47,-4.4426,-4.4515,-4.3807,-4.3301,-4.3426,-4.3185,-4.2961,-4.2837,-4.2934,-4.3253,-4.3914,-4.4173,-4.4458,-4.4816,-4.4616,-4.4412,-4.4214,-4.4541,-4.4763,-4.4934,-4.5096,-4.5042,-4.4786,-4.4406,-4.4253,-4.4372,-4.5054,-4.5872,-4.6802,-4.7124,-4.7902,-4.8984,-4.8781,-4.8798,-4.9001,-4.9001,-4.9001,-4.9001,-4.9001,-4.9001,-4.9001,-4.9001,-4.9001,-4.9001,-4.0912,-4.0912,-4.0912,-4.0912,-4.0912,-4.0912,-4.0912,-4.0912,-4.0912,-4.0912,-4.0912,-4.0912,-4.0912,-4.0912,-4.0912,-4.0912,-4.0912,-4.0912,-4.0912,-4.0912,-4.0912,-4.0912,-4.0912,-4.0912,-4.0912,-4.0912,-4.0912,-4.0912,-4.0912,-4.0912,-4.0912,-4.0912,-4.0912,-4.0912,-4.0959,-4.0982,-4.0959,-4.0888,-4.0745,-4.0558,-4.0502,-4.0387,-4.0305,-4.0263,-4.0362,-4.051,-4.0478,-4.0527,-4.0583,-4.0745,-4.0793,-4.0793,-4.0871,-4.0912,-4.0912,-4.0912,-4.0912,-4.1067,-4.1809,-4.2585,-4.3379,-4.4121,-4.4535,-4.4854,-4.5294,-4.5397,-4.5397,-4.5397,-4.5397,-4.5397,-4.5397,-4.515,-4.5069,-4.5371,-4.479,-4.4325,-4.4294,-4.4173,-4.3958,-4.3672,-4.3897,-4.4251,-4.4682,-4.4734,-4.4828,-4.5089,-4.5042,-4.4889,-4.4708,-4.4889,-4.5096,-4.5397,-4.5707,-4.5765,-4.5514,-4.5222,-4.51,-4.5122,-4.584,-4.6603,-4.7314,-4.7772,-4.8352,-4.9001,-4.9001,-4.9001,-4.9001,-4.9001,-4.9001,-4.9001,-4.9001,-4.9001,-4.9001,-4.9001,-4.9001,-4.9001,-4.0912,-4.0912,-4.0912,-4.0912,-4.0912,-4.0912,-4.0912,-4.0912,-4.0912,-4.0912,-4.0912,-4.0912,-4.0912,-4.0912,-4.0912,-4.0912,-4.0912,-4.0912,-4.0912,-4.0912,-4.0912,-4.0912,-4.0912,-4.0912,-4.0912,-4.0912,-4.0912,-4.0912,-4.0912,-4.0912,-4.0912,-4.0912,-4.0912,-4.0935,-4.1047,-4.1093,-4.1117,-4.1117,-4.0959,-4.0738,-4.0738,-4.06,-4.0362,-4.0485,-4.0558,-4.0583,-4.0697,-4.0721,-4.0745,-4.0864,-4.0912,-4.0912,-4.0912,-4.0912,-4.0912,-4.0912,-4.0912,-4.1084,-4.1895,-4.2637,-4.3396,-4.4207,-4.4906,-4.5397,-4.5397,-4.5397,-4.5397,-4.5397,-4.5397,-4.5397,-4.5397,-4.5397,-4.5397,-4.5397,-4.5397,-4.5156,-4.4501,-4.4992,-4.5139,-4.4483,-4.4992,-4.5397,-4.5397,-4.5397,-4.522,-4.479,-4.515,-4.522,-4.4807,-4.515,-4.5397,-4.5397,-4.6173,-4.6463,-4.6217,-4.6406,-4.6353,-4.6039,-4.6708,-4.7393,-4.809,-4.8158,-4.8493,-4.9001,-4.9001,-4.9001,-4.9001,-4.9001,-4.9001,-4.9001,-4.9001,-4.9001,-4.9001,-4.9001,-4.9001,-4.9018,-4.0912,-4.0912,-4.0912,-4.0912,-4.0912,-4.0912,-4.0912,-4.0912,-4.0912,-4.0912,-4.0912,-4.0912,-4.0912,-4.0912,-4.0912,-4.0912,-4.0912,-4.0912,-4.0912,-4.0912,-4.0912,-4.0912,-4.0912,-4.0912,-4.0912,-4.0912,-4.0912,-4.0912,-4.0912,-4.0912,-4.0912,-4.0912,-4.0959,-4.1047,-4.1087,-4.1123,-4.118,-4.118,-4.1105,-4.1,-4.1,-4.0976,-4.0929,-4.084,-4.0901,-4.1024,-4.0894,-4.0912,-4.1,-4.0935,-4.0912,-4.0912,-4.0912,-4.0912,-4.0912,-4.0912,-4.0912,-4.1205,-4.2568,-4.3069,-4.3517,-4.4837,-4.5276,-4.5397,-4.5397,-4.5397,-4.5397,-4.5397,-4.5397,-4.5397,-4.5397,-4.5397,-4.5397,-4.5397,-4.5397,-4.5328,-4.5173,-4.5294,-4.5328,-4.5173,-4.5294,-4.5397,-4.5397,-4.5397,-4.5371,-4.5247,-4.5344,-4.5371,-4.5247,-4.5344,-4.5397,-4.5397,-4.6173,-4.6222,-4.5461,-4.7202,-4.7718,-4.7011,-4.7119,-4.7493,-4.8107,-4.8719,-4.8985,-4.9001,-4.9001,-4.9001,-4.9001,-4.9001,-4.9001,-4.9001,-4.9001,-4.9001,-4.9001,-4.9001,-4.9001,-4.9086,-4.0912,-4.0912,-4.0912,-4.0912,-4.0912,-4.0912,-4.0912,-4.0912,-4.0912,-4.0912,-4.0912,-4.0912,-4.0912,-4.0912,-4.0912,-4.0912,-4.0912,-4.0912,-4.0912,-4.0912,-4.0912,-4.0912,-4.0912,-4.0912,-4.0912,-4.0912,-4.0912,-4.0912,-4.0912,-4.0935,-4.1,-4.1,-4.1053,-4.1152,-4.1215,-4.1267,-4.1295,-4.1295,-4.1226,-4.1152,-4.1152,-4.1123,-4.1093,-4.1059,-4.1094,-4.1186,-4.1035,-4.1,-4.0982,-4.0935,-4.0912,-4.0912,-4.0976,-4.1201,-4.1429,-4.1494,-4.1754,-4.2171,-4.2982,-4.3465,-4.3914,-4.4682,-4.5147,-4.5397,-4.5397,-4.5397,-4.5397,-4.5397,-4.5397,-4.5397,-4.5397,-4.5397,-4.5397,-4.5397,-4.5397,-4.5397,-4.5397,-4.5397,-4.5397,-4.5397,-4.5397,-4.5397,-4.5397,-4.5397,-4.5397,-4.5397,-4.5397,-4.5397,-4.5397,-4.5759,-4.5793,-4.5414,-4.6517,-4.6886,-4.6402,-4.7589,-4.8289,-4.8604,-4.8454,-4.8526,-4.8771,-4.918,-4.9216,-4.9001,-4.9001,-4.9001,-4.9001,-4.9001,-4.9001,-4.9001,-4.9001,-4.9001,-4.9001,-4.9001,-4.9221,-4.9678,-4.0912,-4.0912,-4.0912,-4.0912,-4.0912,-4.0912,-4.0912,-4.0912,-4.0912,-4.0912,-4.0912,-4.0912,-4.0912,-4.0912,-4.0912,-4.0912,-4.0912,-4.0912,-4.0912,-4.0912,-4.0912,-4.0912,-4.0912,-4.0912,-4.0912,-4.0912,-4.0912,-4.0912,-4.0935,-4.0982,-4.1093,-4.1117,-4.1152,-4.1232,-4.134,-4.1426,-4.1426,-4.1426,-4.1363,-4.1277,-4.1277,-4.1244,-4.1186,-4.1249,-4.1277,-4.1272,-4.1192,-4.1053,-4.0942,-4.0935,-4.0942,-4.0982,-4.1232,-4.1652,-4.2123,-4.2334,-4.2787,-4.3249,-4.3345,-4.3828,-4.4328,-4.4466,-4.4958,-4.5397,-4.5397,-4.5397,-4.5432,-4.5569,-4.55,-4.5483,-4.5742,-4.5569,-4.5449,-4.5569,-4.5483,-4.5397,-4.5397,-4.5397,-4.5397,-4.5397,-4.5397,-4.5397,-4.5397,-4.5397,-4.5397,-4.5397,-4.5397,-4.5397,-4.5397,-4.6017,-4.6069,-4.5414,-4.6896,-4.762,-4.75,-4.7907,-4.8683,-4.9804,-4.9762,-4.9666,-4.9518,-4.9441,-4.926,-4.9001,-4.9001,-4.9001,-4.9001,-4.9001,-4.9001,-4.9001,-4.9001,-4.9086,-4.9204,-4.934,-4.9763,-5.0473,-4.0912,-4.0912,-4.0912,-4.0912,-4.0912,-4.0912,-4.0912,-4.0912,-4.0912,-4.0912,-4.0912,-4.0912,-4.0912,-4.0912,-4.0912,-4.0912,-4.0912,-4.0912,-4.0912,-4.0912,-4.0912,-4.0912,-4.0912,-4.0912,-4.0912,-4.0912,-4.0912,-4.0912,-4.1023,-4.107,-4.1093,-4.1175,-4.1249,-4.1363,-4.1403,-4.1471,-4.1582,-4.1582,-4.156,-4.156,-4.156,-4.1538,-4.1538,-4.1538,-4.156,-4.1538,-4.1403,-4.1272,-4.114,-4.1099,-4.1105,-4.1285,-4.2003,-4.2276,-4.246,-4.3065,-4.3301,-4.3477,-4.4008,-4.4225,-4.4466,-4.5096,-4.5328,-4.5397,-4.5397,-4.5397,-4.5604,-4.6276,-4.588,-4.5811,-4.7138,-4.6293,-4.5621,-4.6337,-4.5845,-4.5397,-4.5397,-4.5397,-4.5397,-4.5397,-4.5397,-4.5397,-4.5397,-4.5397,-4.5397,-4.5397,-4.5397,-4.5397,-4.5397,-4.55,-4.5518,-4.5397,-4.6896,-4.7407,-4.6769,-4.8717,-4.9459,-4.8965,-4.9637,-4.9801,-4.9488,-4.932,-4.9138,-4.9001,-4.9001,-4.9001,-4.9001,-4.9001,-4.9001,-4.9001,-4.9001,-4.939,-5.0016,-5.0676,-5.098,-5.1183,-4.0912,-4.0912,-4.0912,-4.0912,-4.0912,-4.0912,-4.0912,-4.0912,-4.0912,-4.0912,-4.0912,-4.0912,-4.0912,-4.0912,-4.0912,-4.0912,-4.0912,-4.0912,-4.0912,-4.0912,-4.0912,-4.0912,-4.0959,-4.1006,-4.1006,-4.1059,-4.1065,-4.1065,-4.1076,-4.114,-4.1175,-4.1249,-4.1386,-4.1515,-4.1515,-4.1538,-4.1604,-4.1604,-4.1604,-4.1604,-4.1604,-4.1604,-4.1604,-4.1604,-4.1604,-4.1582,-4.1448,-4.1318,-4.1209,-4.1175,-4.1476,-4.1963,-4.2382,-4.3008,-4.3652,-4.4024,-4.4298,-4.4595,-4.4923,-4.5027,-4.5096,-4.5442,-4.5502,-4.5606,-4.5975,-4.6069,-4.6155,-4.6544,-4.6337,-4.6397,-4.7482,-4.6793,-4.6199,-4.6544,-4.632,-4.5897,-4.5466,-4.5397,-4.5397,-4.5397,-4.5793,-4.588,-4.5432,-4.5793,-4.588,-4.5432,-4.5397,-4.5397,-4.5397,-4.6207,-4.65,-4.6069,-4.7517,-4.8155,-4.781,-4.881,-4.939,-4.9465,-4.9734,-4.9742,-4.9488,-4.9411,-4.9229,-4.9001,-4.9001,-4.9001,-4.9001,-4.9001,-4.9238,-4.956,-4.9171,-4.9458,-5.0185,-5.0947,-5.1471,-5.1944]},{"header":{"parameterUnit":"m.s-1","parameterCategory":1,"la1":30.6,"la2":28.766,"lo1":-90.7593,"lo2":-88.6598,"dy":0.0162,"dx":0.0183,"nx":116,"ny":114,"refTime":"2024-04-14T18:00:00:Z","depth":0,"parameterNumber":3,"parameterNumberName":"V-component_of_WINDS"},"data":[0.0,0.0,0.0,0.0,0.0,0.0,0.0,0.0,0.0,0.0,0.0,0.0,0.0,0.0,0.0,0.0,0.0,0.0,0.0,0.0,0.0,0.0,0.0,0.0,0.0,0.0,0.0,0.0,0.0,0.0,0.0,0.0,0.0,0.0,0.0,0.0,0.0,0.0,0.0,0.0,0.0,0.0,0.0,0.0,0.0,0.0,0.0,0.0,0.0,0.0,0.0,0.0,0.0,0.0,0.0,0.0,0.0,0.0,0.0,0.0,0.0,0.0,0.0,0.0,0.0,0.0,0.0,0.0,0.0,0.0,0.0,0.0,0.0,0.0,0.0,0.0,0.0,0.0,0.0,0.0,0.0,0.0,0.0,0.0,0.0,0.0,0.0,0.0,0.0,0.0,0.0,0.0,0.0,0.0,0.0,0.0,0.0,0.0,0.0,0.0,0.0,0.0,0.0,0.0,0.0,0.0,0.0,0.0,0.0,0.0,0.0,0.0,0.0,0.0,0.0,0.0,0.0,0.0,0.0,0.0,0.0,0.0,0.0,0.0,0.0,0.0,0.0,0.0,0.0,0.0,0.0,0.0,0.0,0.0,0.0,0.0,0.0,0.0,0.0,0.0,0.0,0.0,0.0,0.0,0.0,0.0,0.0,0.0,0.0,0.0,0.0,0.0,0.0,0.0,0.0,0.0,0.0,0.0,0.0,0.0,0.0,0.0,0.0,0.0,0.0,0.0,0.0,0.0,0.0,0.0,0.0,0.0,0.0,0.0,0.0,0.0,0.0,0.0,0.0,0.0,0.0,0.0,0.0,0.0,0.0,0.0,0.0,0.0,0.0,0.0,0.0,0.0,0.0,0.0,0.0,0.0,0.0,0.0,0.0,0.0,0.0,0.0,0.0,0.0,0.0,0.0,0.0,0.0,0.0,0.0,0.0,0.0,0.0,0.0,0.0,0.0,0.0,0.0,0.0,0.0,0.0,0.0,0.0,0.0,0.0,0.0,0.0,0.0,0.0,0.0,0.0,0.0,0.0,0.0,0.0,0.0,0.0,0.0,0.0,0.0,0.0,0.0,0.0,0.0,0.0,0.0,0.0,0.0,0.0,0.0,0.0,0.0,0.0,0.0,0.0,0.0,0.0,0.0,0.0,0.0,0.0,0.0,0.0,0.0,0.0,0.0,0.0,0.0,0.0,0.0,0.0,0.0,0.0,0.0,0.0,0.0,0.0,0.0,0.0,0.0,0.0,0.0,0.0,0.0,0.0,0.0,0.0,0.0,0.0,0.0,0.0,0.0,0.0,0.0,0.0,0.0,0.0,0.0,0.0,0.0,0.0,0.0,0.0,0.0,0.0,0.0,0.0,0.0,0.0,0.0,0.0,0.0,0.0,0.0,0.0,0.0,0.0,0.0,0.0,0.0,0.0,0.0,0.0,0.0,0.0,0.0,0.0,0.0,0.0,0.0,0.0,0.0,0.0,0.0,0.0,0.0,0.0,0.0,0.0,0.0,0.0,0.0,0.0,0.0,0.0,0.0,0.0,0.0,0.0,0.0,0.0,0.0,0.0,0.0,0.0,0.0,0.0,0.0,0.0,0.0,0.0,0.0,0.0,0.0,0.0,0.0,0.0,0.0,0.0,0.0,0.0,0.0,0.0,0.0,0.0,0.0,0.0,0.0,0.0,0.0,0.0,0.0,0.0,0.0,0.0,0.0,0.0,0.0,0.0,0.0,0.0,0.0,0.0,0.0,0.0,0.0,0.0,0.0,0.0,0.0,0.0,0.0,0.0,0.0,0.0,0.0,0.0,0.0,0.0,0.0,0.0,0.0,0.0,0.0,0.0,0.0,0.0,0.0,0.0,0.0,0.0,0.0,0.0,0.0,0.0,0.0,0.0,0.0,0.0,0.0,0.0,0.0,0.0,0.0,0.0,0.0,0.0,0.0,0.0,0.0,0.0,0.0,0.0,0.0,0.0,0.0,0.0,0.0,0.0,0.0,0.0,0.0,0.0,0.0,0.0,0.0,0.0,0.0,0.0,0.0,0.0,0.0,0.0,0.0,0.0,0.0,0.0,0.0,0.0,0.0,0.0,0.0,0.0,0.0,0.0,0.0,0.0,0.0,0.0,0.0,0.0,0.0,0.0,0.0,0.0,0.0,0.0,0.0,0.0,0.0,0.0,0.0,0.0,0.0,0.0,0.0,0.0,0.0,0.0,0.0,0.0,0.0,0.0,0.0,0.0,0.0,0.0,0.0,0.0,0.0,0.0,0.0,0.0,0.0,0.0,0.0,0.0,0.0,0.0,0.0,0.0,0.0,0.0,0.0,0.0,0.0,0.0,0.0,0.0,0.0,0.0,0.0,0.0,0.0,0.0,0.0,0.0,0.0,0.0,0.0,0.0,0.0,0.0,0.0,0.0,0.0,0.0,0.0,0.0,0.0,0.0,0.0,0.0,0.0,0.0,0.0,0.0,0.0,0.0,0.0,0.0,0.0,0.0,0.0,0.0,0.0,0.0,0.0,0.0,0.0,0.0,0.0,0.0,0.0,0.0,0.0,0.0,0.0,0.0,0.0,0.0,0.0,0.0,0.0,0.0,0.0,0.0,0.0,0.0,0.0,0.0,0.0,0.0,0.0,0.0,0.0,0.0,0.0,0.0,0.0,0.0,0.0,0.0,0.0,0.0,0.0,0.0,0.0,0.0,0.0,0.0,0.0,0.0,0.0,0.0,0.0,0.0,0.0,0.0,0.0,0.0,0.0,0.0,0.0,0.0,0.0,0.0,0.0,0.0,0.0,0.0,0.0,0.0,0.0,0.0,0.0,0.0,0.0,0.0,0.0,0.0,0.0,0.0,0.0,0.0,0.0,0.0,0.0,0.0,0.0,0.0,0.0,0.0,0.0,0.0,0.0,0.0,0.0,0.0,0.0,0.0,0.0,0.0,0.0,0.0,0.0,0.0,0.0,0.0,0.0,0.0,0.0,0.0,0.0,0.0,0.0,0.0,0.0,0.0,0.0,0.0,0.0,0.0,0.0,0.0,0.0,0.0,0.0,0.0,0.0,0.0,0.0,0.0,0.0,0.0,0.0,0.0,0.0,0.0,0.0,0.0,0.0,0.0,0.0,0.0,0.0,0.0,0.0,0.0,0.0,0.0,0.0,0.0,0.0,0.0,0.0,0.0,0.0,0.0,0.0,0.0,0.0,0.0,0.0,0.0,0.0,0.0,0.0,0.0,0.0,0.0,0.0,0.0,0.0,0.0,0.0,0.0,0.0,0.0,0.0,0.0,0.0,0.0,0.0,0.0,0.0,0.0,0.0,0.0,0.0,0.0,0.0,0.0,0.0,0.0,0.0,0.0,0.0,0.0,0.0,0.0,0.0,0.0,0.0,0.0,0.0,0.0,0.0,0.0,0.0,0.0,0.0,0.0,0.0,0.0,0.0,0.0,0.0,0.0,0.0,0.0,0.0,0.0,0.0,0.0,0.0,0.0,0.0,0.0,0.0,0.0,0.0,0.0,0.0,0.0,0.0,0.0,0.0,0.0,0.0,0.0,0.0,0.0,0.0,0.0,0.0,0.0,0.0,0.0,0.0,0.0,0.0,0.0,0.0,0.0,0.0,0.0,0.0,0.0,0.0,0.0,0.0,0.0,0.0,0.0,0.0,0.0,0.0,0.0,0.0,0.0,0.0,0.0,0.0,0.0,0.0,0.0,0.0,0.0,0.0,0.0,0.0,0.0,0.0,0.0,0.0,0.0,0.0,0.0,0.0,0.0,0.0,0.0,0.0,0.0,0.0,0.0,0.0,0.0,0.0,0.0,0.0,0.0,0.0,0.0,0.0,0.0,0.0,0.0,0.0,0.0,0.0,0.0,0.0,0.0,0.0,0.0,0.0,0.0,0.0,0.0,0.0,0.0,0.0,0.0,0.0,0.0,0.0,0.0,0.0,0.0,0.0,0.0,0.0,0.0,0.0,0.0,0.0,0.0,0.0,0.0,0.0,0.0,0.0,0.0,0.0,0.0,0.0,0.0,0.0,0.0,0.0,0.0,0.0,0.0,0.0,0.0,0.0,0.0,0.0,0.0,0.0,0.0,0.0,0.0,0.0,0.0,0.0,0.0,0.0,0.0,0.0,0.0,0.0,0.0,0.0,0.0,0.0,0.0,0.0,0.0,0.0,0.0,0.0,0.0,0.0,0.0,0.0,0.0,0.0,0.0,0.0,0.0,0.0,0.0,0.0,0.0,0.0,0.0,0.0,0.0,0.0,0.0,0.0,0.0,0.0,0.0,0.0,0.0,0.0,0.0,0.0,0.0,0.0,0.0,0.0,0.0,0.0,0.0,0.0,0.0,0.0,0.0,0.0,0.0,0.0,0.0,0.0,0.0,0.0,0.0,0.0,0.0,0.0,0.0,0.0,0.0,0.0,0.0,0.0,0.0,0.0,0.0,0.0,0.0,0.0,0.0,0.0,0.0,0.0,0.0,0.0,0.0,0.0,0.0,0.0,0.0,0.0,0.0,0.0,0.0,0.0,0.0,0.0,0.0,0.0,0.0,0.0,0.0,0.0,0.0,0.0,0.0,0.0,0.0,0.0,0.0,0.0,0.0,0.0,0.0,0.0,0.0,0.0,0.0,0.0,0.0,0.0,0.0,0.0,0.0,0.0,0.0,0.0,0.0,0.0,0.0,0.0,0.0,0.0,0.0,0.0,0.0,0.0,0.0,0.0,0.0,0.0,0.0,0.0,0.0,0.0,0.0,0.0,0.0,0.0,0.0,0.0,0.0,0.0,0.0,0.0,0.0,0.0,0.0,0.0,0.0,0.0,0.0,0.0,0.0,0.0,0.0,0.0,0.0,0.0,0.0,0.0,0.0,0.0,0.0,0.0,0.0,0.0,0.0,0.0,0.0,0.0,0.0,0.0,0.0,0.0,0.0,0.0,0.0,0.0,0.0,0.0,0.0,0.0,0.0,0.0,0.0,0.0,0.0,0.0,0.0,0.0,0.0,0.0,0.0,0.0,0.0,0.0,0.0,0.0,0.0,0.0,0.0,0.0,0.0,0.0,0.0,0.0,0.0,0.0,0.0,0.0,0.0,0.0,0.0,0.0,0.0,0.0,0.0,0.0,0.0,0.0,0.0,0.0,0.0,0.0,0.0,0.0,0.0,0.0,0.0,0.0,0.0,0.0,0.0,0.0,0.0,0.0,0.0,0.0,0.0,0.0,0.0,0.0,0.0,0.0,0.0,0.0,0.0,0.0,0.0,0.0,0.0,0.0,0.0,0.0,0.0,0.0,0.0,0.0,0.0,0.0,0.0,0.0,0.0,0.0,0.0,0.0,0.0,0.0,0.0,0.0,0.0,0.0,0.0,0.0,0.0,0.0,0.0,0.0,0.0,0.0,0.0,0.0,0.0,0.0,0.0,0.0,0.0,0.0,0.0,0.0,0.0,0.0,0.0,0.0,0.0,0.0,0.0,0.0,0.0,0.0,0.0,0.0,0.0,0.0,0.0,0.0,0.0,0.0,0.0,0.0,0.0,0.0,0.0,0.0,0.0,0.0,0.0,0.0,0.0,0.0,0.0,0.0,0.0,0.0,0.0,0.0,0.0,0.0,0.0,0.0,0.0,0.0,0.0,0.0,0.0,0.0,0.0,0.0,0.0,0.0,0.0,0.0,0.0,0.0,0.0,0.0,0.0,0.0,0.0,0.0,0.0,0.0,0.0,0.0,0.0,0.0,0.0,0.0,0.0,0.0,0.0,0.0,0.0,0.0,0.0,0.0,0.0,0.0,0.0,0.0,0.0,0.0,0.0,0.0,0.0,0.0,0.0,0.0,0.0,0.0,0.0,0.0,0.0,0.0,0.0,0.0,0.0,0.0,0.0,0.0,0.0,0.0,0.0,0.0,0.0,0.0,0.0,0.0,0.0,0.0,0.0,0.0,0.0,0.0,0.0,0.0,0.0,0.0,0.0,0.0,0.0,0.0,0.0,0.0,0.0,0.0,0.0,0.0,0.0,0.0,0.0,0.0,0.0,0.0,0.0,0.0,0.0,0.0,0.0,0.0,0.0,0.0,0.0,0.0,0.0,0.0,0.0,0.0,0.0,0.0,0.0,0.0,1.3789,0.0,0.0,0.0,0.0,0.0,0.0,0.0,0.0,0.0,0.0,0.0,0.0,0.0,0.0,0.0,0.0,0.0,0.0,0.0,0.0,0.0,0.0,0.0,0.0,0.7556,0.7647,0.7735,0.7828,0.8095,0.8602,0.8996,0.0,0.0,0.0,0.0,1.1206,1.1533,1.1717,1.1717,1.2243,1.2609,1.2894,1.3027,1.2506,1.1394,0.0,0.0,0.0,0.0,0.0,0.0,0.0,0.0,0.0,0.0,0.0,0.0,0.0,0.0,0.0,0.0,0.0,0.0,0.0,0.0,0.0,0.0,0.0,0.0,0.0,0.0,0.0,0.0,0.0,0.0,0.0,0.0,0.0,0.0,0.0,0.0,0.0,0.0,0.0,0.0,0.0,0.0,0.0,0.0,0.0,0.0,0.0,0.0,0.0,0.0,0.0,0.0,0.0,0.0,0.0,0.0,0.0,0.0,0.0,0.0,0.0,0.0,0.0,0.0,0.0,0.0,0.0,0.0,0.0,0.0,0.0,1.4809,0.0,0.0,0.0,0.0,0.0,0.0,0.0,0.0,0.0,0.0,0.0,0.0,0.0,0.0,0.0,0.0,0.0,0.0,0.0,0.0,0.0,0.7329,0.7329,0.7468,0.764,0.7798,0.7912,0.8206,0.8803,0.9376,0.9879,1.0375,1.0979,1.1323,1.1455,1.205,1.2389,1.2433,1.3425,1.4014,1.4226,1.4274,1.3624,1.2414,1.2268,0.0,0.0,0.0,0.0,0.0,0.0,0.0,0.0,0.0,0.0,0.0,0.0,0.0,0.0,0.0,0.0,0.0,0.0,0.0,0.0,0.0,0.0,0.0,0.0,0.0,0.0,0.0,0.0,0.0,0.0,0.0,0.0,0.0,0.0,0.0,0.0,0.0,0.0,0.0,0.0,0.0,0.0,0.0,0.0,0.0,0.0,0.0,0.0,0.0,0.0,0.0,0.0,0.0,0.0,0.0,0.0,0.0,0.0,0.0,0.0,0.0,0.0,0.0,1.6133,1.6145,1.6344,1.6133,1.603,1.603,1.5982,1.5934,1.5867,1.5608,0.0,0.0,0.0,0.0,0.0,0.0,0.0,0.0,0.0,0.0,0.0,0.0,0.0,0.0,0.0,0.0,0.0,0.0,0.0,0.7125,0.7125,0.7309,0.744,0.7533,0.7873,0.8451,0.9343,0.9553,1.0244,1.1591,1.1619,1.1901,1.2506,1.2592,1.2754,1.2998,1.3618,1.3924,1.396,1.4189,1.4202,1.3962,1.327,1.2709,1.2353,0.0,0.0,0.0,0.0,0.0,0.0,0.0,0.0,0.0,0.0,0.0,0.0,0.0,0.0,0.0,0.0,0.0,0.0,0.0,0.0,0.0,0.0,0.0,0.0,0.0,0.0,0.0,0.0,0.0,0.0,0.0,0.0,0.0,0.0,0.0,0.0,0.0,0.0,0.0,0.0,0.0,1.5863,1.6135,0.0,0.0,0.0,0.0,0.0,0.0,0.0,0.0,0.0,0.0,0.0,0.0,0.0,1.6247,1.6229,1.6471,1.661,1.6646,1.661,1.6616,1.6646,1.661,1.6592,1.6579,1.6338,0.0,1.5867,1.5608,0.0,0.0,0.0,0.0,0.0,0.0,0.0,0.0,0.0,0.0,0.0,0.0,0.0,0.0,0.0,0.0,0.0,0.0,0.0,0.0,0.0,0.7278,0.7528,0.7825,0.8051,0.8651,0.9674,1.0128,1.0774,1.175,1.2077,1.2406,1.2705,1.2862,1.3145,1.3562,1.3791,1.3978,1.4129,1.4244,1.4394,1.4496,1.4154,1.3779,1.3492,1.3483,0.0,0.0,0.0,0.0,0.0,0.0,0.0,0.0,0.0,0.0,0.0,0.0,0.0,0.0,0.0,0.0,0.0,0.0,0.0,0.0,0.0,0.0,0.0,0.0,0.0,0.0,0.0,0.0,0.0,0.0,0.0,0.0,0.0,0.0,0.0,0.0,0.0,0.0,0.0,1.5928,1.5912,1.6082,1.633,1.6424,0.0,0.0,0.0,0.0,0.0,0.0,0.0,0.0,0.0,1.5891,1.6151,1.629,1.6278,1.6561,1.6885,1.7195,1.7048,1.7166,1.7428,1.7272,1.7204,1.7254,1.7663,1.7389,1.6551,1.5661,1.5215,1.5065,0.0,0.0,0.0,0.0,1.4298,1.4298,0.0,0.0,0.0,0.0,0.0,0.0,0.0,0.0,0.0,0.0,0.0,0.0,0.7149,0.7291,0.7565,0.8119,0.8311,0.887,1.0092,1.0617,1.1232,1.194,1.2448,1.2705,1.2705,1.3049,1.3417,1.3803,1.4055,1.4303,1.4497,1.4661,1.485,1.505,1.507,1.4917,1.4606,1.4747,1.4576,1.4172,0.0,0.0,0.0,0.0,0.0,0.0,0.0,0.0,0.0,0.0,0.0,0.0,0.0,0.0,0.0,0.0,0.0,0.0,0.0,0.0,0.0,0.0,0.0,0.0,0.0,0.0,0.0,0.0,0.0,0.0,0.0,0.0,0.0,0.0,0.0,0.0,0.0,1.6151,1.605,1.6118,1.6464,1.6643,0.0,0.0,0.0,0.0,0.0,0.0,1.6879,1.6832,1.6863,1.7047,1.7316,1.7408,1.7408,1.7689,1.8051,1.8485,1.827,1.8396,1.877,1.8615,1.8516,1.8516,1.9147,1.8885,1.79,1.6685,1.5827,1.5261,1.5022,1.4695,1.4442,1.4634,1.4627,1.4627,0.0,0.0,0.0,0.0,0.0,0.0,0.0,0.0,0.0,0.0,0.0,0.6981,0.7343,0.7257,0.7483,0.8232,0.8482,0.9241,1.0741,1.089,1.1409,1.2589,1.2662,1.2705,1.2705,1.3224,1.3507,1.3538,1.4526,1.506,1.5078,1.5644,1.5928,1.5934,1.6138,1.5916,1.5409,1.5162,1.5041,1.5032,1.474,0.0,0.0,0.0,0.0,0.0,0.0,0.0,0.0,0.0,0.0,0.0,0.0,0.0,0.0,0.0,0.0,0.0,0.0,0.0,0.0,0.0,0.0,0.0,0.0,0.0,0.0,0.0,0.0,0.0,0.0,0.0,0.0,0.0,0.0,0.0,0.0,0.0,0.0,1.6626,1.7417,0.0,0.0,0.0,0.0,1.7884,1.7463,1.7887,1.9493,1.9355,1.9506,2.0135,2.0387,2.0492,2.0492,2.0748,2.0915,2.093,2.0915,2.0915,2.093,2.0915,2.0908,2.0894,2.0708,2.0402,2.0019,1.9395,1.7856,1.5928,1.6409,1.5776,1.4783,1.5452,1.554,1.5432,0.0,0.0,0.0,0.0,0.0,0.7065,0.6974,0.7038,0.7061,0.6974,0.7084,0.7176,0.7142,0.7485,0.7838,0.8214,0.8937,0.9848,1.1034,1.137,1.1888,1.2674,1.2705,1.2868,1.3218,1.358,1.3936,1.4286,1.498,1.5351,1.5351,1.5815,1.6067,1.6174,1.6271,1.6301,1.6249,1.5804,1.5515,1.5305,1.4882,1.4772,0.0,0.0,0.0,0.0,0.0,0.0,0.0,0.0,0.0,0.0,0.0,0.0,0.0,0.0,0.0,0.0,0.0,0.0,0.0,0.0,0.0,0.0,0.0,0.0,0.0,0.0,0.0,0.0,0.0,0.0,0.0,0.0,0.0,0.0,0.0,0.0,0.0,1.834,1.8475,0.0,1.9302,1.918,1.918,1.9641,1.9718,1.9994,2.0435,2.0334,2.0386,2.0668,2.0715,2.071,2.071,2.0969,2.1194,2.1437,2.1437,2.1551,2.1722,2.1722,2.1722,2.1771,2.227,2.1796,2.0846,2.177,2.0437,1.775,1.7775,1.7484,1.7093,1.7385,1.7426,1.7349,0.0,0.0,0.0,0.0,0.0,0.7048,0.6906,0.7004,0.7045,0.6817,0.7053,0.7181,0.7004,0.7641,0.8117,0.8312,0.9337,1.0334,1.1144,1.1637,1.2151,1.2674,1.2795,1.3012,1.3375,1.3815,1.4261,1.468,1.5413,1.5884,1.6087,1.6497,1.6808,1.7062,1.7062,1.7159,1.7301,1.6788,1.6265,1.5745,1.5259,1.5211,1.5358,0.0,0.0,0.0,0.0,0.0,0.0,0.0,0.0,0.0,0.0,0.0,0.0,0.0,0.0,0.0,0.0,0.0,0.0,0.0,0.0,0.0,0.0,0.0,0.0,0.0,0.0,0.0,0.0,0.0,0.0,0.0,0.0,0.0,0.0,0.0,1.8855,2.0028,2.0203,2.0537,2.1356,2.1225,2.1225,2.1603,2.1643,2.1869,2.2322,2.2119,2.2174,2.2505,2.2456,2.2509,2.2608,2.2562,2.2624,2.2797,2.27,2.2813,2.299,2.299,2.299,2.3038,2.3469,2.3031,2.2049,2.3151,2.2268,2.0151,1.9502,1.895,1.855,1.8796,1.8852,1.8799,0.0,0.0,0.0,0.0,0.0,0.7048,0.6903,0.7004,0.6997,0.6632,0.6831,0.7031,0.697,0.7664,0.826,0.8551,0.9618,1.0575,1.1134,1.1671,1.2146,1.2686,1.2976,1.3095,1.3157,1.3918,1.4466,1.4731,1.579,1.6645,1.7192,1.7755,1.8217,1.849,1.849,1.849,1.847,1.8129,1.7382,1.6286,1.5979,1.6001,1.6123,0.0,0.0,0.0,0.0,0.0,0.0,0.0,0.0,0.0,0.0,0.0,0.0,0.0,0.0,0.0,0.0,0.0,0.0,0.0,0.0,0.0,0.0,0.0,0.0,0.0,0.0,0.0,0.0,0.0,0.0,0.0,0.0,0.0,1.8881,1.966,2.0635,2.1693,2.2624,2.2925,2.2209,2.3127,2.3735,2.3695,2.3155,2.3563,2.5238,2.4774,2.4897,2.5905,2.591,2.6025,2.6255,2.5691,2.5332,2.5165,2.4923,2.4821,2.4821,2.4821,2.4821,2.4804,2.4347,2.4016,2.3684,2.3523,2.3295,2.2861,2.1503,2.0136,1.9037,1.9738,1.9827,1.9707,0.0,0.0,0.0,0.6874,0.7095,0.7011,0.6803,0.6937,0.6917,0.646,0.6994,0.723,0.6779,0.7737,0.8289,0.8116,0.9686,1.0747,1.097,1.191,1.2614,1.2963,1.3041,1.3393,1.396,1.4389,1.4892,1.5586,1.651,1.7126,1.7492,1.8114,1.841,1.849,1.849,1.849,1.8484,1.8404,1.7929,1.7181,1.6667,1.6388,1.6257,0.0,0.0,0.0,0.0,0.0,0.0,0.0,0.0,0.0,0.0,0.0,0.0,0.0,0.0,0.0,0.0,0.0,0.0,0.0,0.0,0.0,0.0,0.0,0.0,0.0,0.0,0.0,0.0,0.0,0.0,0.0,0.0,2.0761,2.0214,2.1293,2.2617,2.388,2.4446,2.5008,2.5716,2.5219,2.5,2.5395,2.5235,2.5514,2.6245,2.6151,2.6234,2.6632,2.614,2.5822,2.5644,2.5216,2.4971,2.4923,2.4812,2.4821,2.4821,2.4821,2.4821,2.4804,2.4347,2.4016,2.3684,2.3367,2.2988,2.2686,2.2482,2.2171,2.187,2.1828,2.1434,2.0875,0.0,0.0,0.0,0.6874,0.7095,0.7018,0.6831,0.695,0.6927,0.6489,0.713,0.737,0.6834,0.7802,0.8377,0.8098,0.9761,1.0824,1.092,1.2129,1.2952,1.3071,1.3441,1.3827,1.4286,1.4787,1.5344,1.607,1.6829,1.7492,1.8011,1.8475,1.8738,1.8858,1.8858,1.8858,1.8858,1.8858,1.8584,1.8103,1.7635,1.7054,1.6469,1.6277,1.6292,1.64,1.64,1.6319,1.6217,1.6067,0.0,0.0,0.0,0.0,0.0,0.0,0.0,0.0,0.0,0.0,0.0,0.0,0.0,0.0,0.0,0.0,0.0,0.0,0.0,0.0,0.0,0.0,0.0,0.0,2.1844,2.2745,2.3123,2.3804,2.4693,2.5748,2.6332,2.6876,2.7492,2.714,2.6772,2.6659,2.6753,2.6837,2.6796,2.6834,2.6858,2.6923,2.6548,2.6231,2.6009,2.5635,2.5365,2.52,2.52,2.52,2.52,2.52,2.52,2.5174,2.4737,2.4496,2.4244,2.3808,2.3553,0.0,0.0,0.0,0.0,0.0,2.2266,2.1602,0.0,0.0,0.0,0.6874,0.7095,0.7048,0.6906,0.7004,0.7001,0.6638,0.7166,0.7442,0.7009,0.7877,0.84,0.828,0.9828,1.0887,1.1129,1.2387,1.3149,1.3209,1.3954,1.437,1.4431,1.5188,1.5823,1.6367,1.6981,1.7718,1.8497,1.8761,1.9054,1.9424,1.9366,1.9366,1.9366,1.9366,1.9134,1.8785,1.8588,1.7862,1.6827,1.6533,1.658,1.68,1.6767,1.6607,1.6462,1.6346,0.0,0.0,0.0,0.0,0.0,0.0,0.0,0.0,0.0,0.0,0.0,0.0,0.0,0.0,0.0,0.0,0.0,0.0,0.0,0.0,0.0,0.0,0.0,0.0,2.3573,2.4687,2.6517,2.6589,2.6645,2.727,2.7994,2.8364,2.8164,2.8582,2.8528,2.7529,2.775,2.7647,2.7053,0.0,0.0,0.0,0.0,2.6895,2.6853,2.6459,2.6087,2.5688,2.5723,2.5723,2.5688,2.5688,2.5688,2.5661,2.528,2.5111,2.5058,2.4537,2.4341,2.4269,2.3388,2.3046,2.2987,2.285,2.2484,2.1927,0.0,0.0,0.0,0.6874,0.7095,0.7048,0.6906,0.7004,0.7001,0.6638,0.7077,0.7287,0.6865,0.7677,0.8201,0.7974,0.9673,1.1293,1.2603,1.3141,1.3628,1.4051,1.4431,1.4835,1.5258,1.5628,1.6079,1.6601,1.7498,1.8092,1.8504,1.879,1.9067,1.9366,1.912,1.8997,1.8997,1.8997,1.866,1.823,1.8638,1.8417,1.7702,1.7448,1.7361,1.7382,1.7199,1.7226,1.7255,1.678,1.658,1.6493,1.6259,1.6115,0.0,0.0,0.0,0.0,0.0,0.0,0.0,0.0,0.0,0.0,0.0,0.0,0.0,0.0,0.0,0.0,0.0,0.0,0.0,2.3555,2.4706,2.5814,2.6546,2.7424,2.801,2.815,2.8581,2.8842,2.8797,2.8632,2.8295,2.7854,2.7837,2.7822,2.7719,2.7993,2.8038,2.7728,2.7423,2.6959,2.6406,2.6365,2.6125,2.5688,0.0,0.0,2.5688,2.5688,2.5688,2.5661,2.528,2.5111,2.5058,2.4382,2.4018,2.3863,2.3482,2.3197,2.2918,2.2045,2.183,2.1859,0.0,0.0,0.0,0.6432,0.6874,0.7071,0.7001,0.7051,0.7027,0.6863,0.7186,0.7309,0.7105,0.7596,0.7984,0.8001,0.9319,1.0969,1.2989,1.3172,1.3508,1.428,1.4817,1.5234,1.5493,1.5864,1.6279,1.6677,1.7456,1.7967,1.8262,1.8513,1.8771,1.8894,1.8713,1.8648,1.8648,1.8648,1.8455,1.8211,1.8506,1.856,1.8427,1.8306,1.8192,1.8016,1.7876,1.7716,1.7535,1.7241,1.6947,1.668,1.6533,1.6572,1.6751,0.0,0.0,0.0,0.0,0.0,0.0,0.0,0.0,0.0,0.0,0.0,0.0,0.0,0.0,2.1884,2.2742,0.0,2.4117,2.5027,2.5823,2.6564,2.738,2.8012,2.8315,2.8104,2.8443,2.8623,2.8496,2.8449,2.8272,2.7903,2.8195,2.8253,2.7903,2.8228,2.8278,2.7964,2.7517,2.7145,2.6916,2.6807,2.6558,2.6194,2.6567,2.657,2.6145,2.6334,2.6316,2.6136,2.6136,2.6027,2.5784,2.5043,2.4524,2.4245,2.3777,2.3447,2.3103,2.247,2.2255,2.2216,0.0,0.0,0.0,0.5947,0.6567,0.6962,0.7095,0.7095,0.7095,0.7095,0.7248,0.7326,0.7326,0.7524,0.7818,0.823,0.9103,1.0509,1.2663,1.2928,1.3379,1.4217,1.5149,1.565,1.565,1.6169,1.6582,1.6801,1.7359,1.7773,1.8014,1.8236,1.8363,1.8421,1.8363,1.8305,1.8305,1.8305,1.8305,1.8305,1.848,1.8648,1.8887,1.905,1.893,1.8637,1.847,1.805,1.7562,1.7448,1.7061,1.6627,1.6687,1.6978,1.7446,1.8255,1.8761,0.0,0.0,0.0,0.0,0.0,0.0,0.0,0.0,0.0,2.085,2.1675,2.2108,2.2629,2.3805,2.4403,2.5118,2.6408,2.6719,2.7187,2.8242,2.8462,2.8352,2.7939,2.8251,2.839,2.8138,2.8381,2.8381,2.802,2.8624,2.8719,2.8039,2.8396,2.8421,2.8092,2.771,2.7552,2.7544,2.7464,2.7249,2.6933,2.7258,2.7205,2.682,2.7068,2.7004,2.6719,2.6958,2.6793,2.6307,2.5729,2.5212,2.4629,2.4122,2.3718,2.3338,2.3018,2.2785,2.2534,0.0,0.0,0.0,0.0,0.0,0.6393,0.7007,0.7095,0.7095,0.7095,0.7109,0.7122,0.7122,0.7269,0.7744,0.8815,0.9338,1.0236,1.1656,1.2703,1.355,1.4194,1.5523,1.6193,1.6193,1.6759,1.7024,1.7086,1.7679,1.7951,1.8014,1.801,1.8194,1.8363,1.8135,1.8025,1.8025,1.8025,1.8025,1.8083,1.8655,1.8874,1.8991,1.951,1.9547,1.9165,1.8377,1.7876,1.7502,1.6981,1.6587,1.6366,1.662,1.673,1.6997,1.8186,1.8552,1.8722,1.9437,1.9626,1.9747,2.007,2.0503,2.0861,0.0,0.0,2.1962,2.254,2.324,2.3943,2.4592,2.5326,2.5986,2.6509,2.7178,2.7868,2.8324,2.8691,2.8764,2.837,2.8673,2.892,2.8852,2.892,2.8801,2.8453,2.8788,2.8847,2.8453,2.8788,2.876,2.8354,2.8312,2.811,2.7781,2.8113,2.8067,2.7701,2.8077,2.804,2.7675,2.7315,2.7206,2.7095,2.6784,2.6215,2.5527,2.5837,2.5286,2.4253,2.433,2.3969,2.3311,2.2679,2.251,2.2491,0.0,0.0,0.0,0.0,0.0,0.6216,0.6479,0.6833,0.7095,0.7095,0.7095,0.7065,0.698,0.7261,0.7901,0.8916,0.9013,0.9768,1.1492,1.1912,1.2765,1.4369,1.5251,1.5964,1.6525,1.6897,1.7088,1.7088,1.7535,1.7722,1.7728,1.7729,1.7784,1.7895,1.7778,1.7726,1.7726,1.7726,1.7726,1.7726,1.7954,1.8298,1.8635,1.8698,1.8665,1.8551,1.8163,1.7615,0.0,1.6593,1.6259,1.6162,1.6884,1.6836,1.685,1.8403,1.8564,0.0,1.9451,1.97,0.0,0.0,2.1062,2.1302,2.1796,2.2139,2.2581,2.3317,2.3957,2.4566,2.5374,2.594,2.6463,0.0,2.7454,2.7886,2.8003,2.8581,2.8663,2.7792,2.8251,2.8645,2.8645,2.8645,2.8678,2.8797,2.8925,2.8925,2.8806,2.8925,2.8911,2.8737,2.8517,2.8416,2.8471,2.8425,2.8187,2.7822,2.7939,2.7701,2.7077,2.7141,2.7178,2.7141,2.6554,2.6085,2.5745,2.5451,2.4977,2.451,2.4336,2.4008,2.3578,2.2971,2.2715,2.2551,0.0,0.0,0.0,0.0,0.0,0.5636,0.6038,0.6523,0.6874,0.7095,0.7095,0.7041,0.6903,0.7304,0.7866,0.8539,0.8541,0.9167,1.0796,1.1033,1.1921,1.3683,1.4502,1.5394,1.6301,1.6683,1.6964,1.7201,1.7388,1.7485,1.7485,1.7485,1.7521,1.7587,1.7587,1.763,1.7702,1.7624,1.7652,1.7764,1.7691,1.791,1.8262,1.7906,1.7653,1.7516,1.7609,1.7088,1.6348,1.6245,1.6048,1.6006,1.7058,1.7142,1.7057,1.8522,1.862,1.8491,1.9558,0.0,0.0,2.1268,2.1645,2.1893,2.2603,2.2911,2.3298,2.4112,2.4632,2.5147,2.6024,2.638,2.6756,2.726,2.7638,2.7868,2.7921,2.8342,2.8278,2.7297,2.7609,2.7939,2.8049,2.826,2.8563,2.8948,2.8984,2.8984,2.8984,2.8984,2.8984,2.8984,2.8709,2.8691,2.8975,2.87,2.8407,2.8152,2.7994,2.7636,2.7086,2.715,2.7114,2.6976,2.6443,2.6058,2.5819,2.535,2.4913,2.4482,2.44,2.4104,2.3646,2.3347,2.2996,2.2695,0.0,0.0,0.0,0.0,0.0,0.4429,0.5905,0.6127,0.6349,0.7007,0.7095,0.7041,0.6903,0.7276,0.7523,0.7614,0.8012,0.8487,0.9126,1.0246,1.1133,1.1563,1.3167,1.4473,1.5434,1.5915,1.6579,1.7473,1.7479,1.7485,1.7485,1.7485,1.7618,1.7859,1.7859,1.801,1.8251,1.798,1.8111,1.8338,1.8078,1.7979,1.7957,1.7446,1.6884,1.6408,1.6653,1.6179,1.5483,1.5805,1.5922,1.6054,1.7093,1.7544,1.7856,1.8361,1.8549,1.8845,0.0,0.0,2.0058,2.1602,2.2294,2.2671,2.3014,2.3657,2.435,2.4915,2.5386,2.5826,2.6455,2.6582,2.6848,2.7675,2.7813,2.7969,2.8315,2.804,2.7702,2.7224,2.6866,2.6793,0.0,2.793,2.8563,2.8948,2.8984,2.8984,2.8984,2.8984,2.8984,2.8984,2.8975,2.8975,2.8984,2.8975,2.8957,2.8938,2.8563,2.8361,2.8315,2.7536,2.6967,2.6609,2.6582,2.6123,2.547,2.5828,2.513,2.3909,2.4509,2.4207,2.3447,2.3705,2.3447,2.2946,0.0,0.0,0.0,0.0,0.0,0.0,0.4518,0.5053,0.5633,0.6346,0.6752,0.0,0.0,0.0,0.0,0.0,0.7882,0.8389,0.8831,0.9614,1.048,1.1535,1.2479,1.3404,1.4298,1.4751,1.5454,1.6391,1.6505,1.6885,1.7485,1.7485,1.7527,1.7612,1.7612,1.7666,1.775,1.7654,1.7677,1.7758,1.7319,1.7252,1.7347,1.6415,1.5966,1.5741,0.0,1.5094,1.4858,1.5247,1.5362,1.5626,1.7063,1.7388,1.7397,1.8003,1.8566,1.9213,0.0,0.0,2.1216,2.2723,2.3246,2.3512,2.4102,2.4444,2.4789,2.5383,2.4978,2.4683,2.5277,2.539,2.5647,2.6489,2.7298,2.7868,2.7957,2.8095,2.7636,2.616,2.6573,0.0,0.0,0.0,0.0,2.8544,2.859,2.8709,2.8966,2.8984,2.8984,2.8984,2.8728,2.8718,2.8984,2.8718,2.859,2.8581,2.7911,2.7453,2.7187,2.6912,2.671,2.6573,2.6298,2.592,2.5414,2.5286,2.4776,2.4071,2.4308,2.4221,2.3904,2.3845,2.3546,2.3247,0.0,0.0,0.0,0.0,0.0,0.0,0.0,0.0,0.0,0.0,0.0,0.0,0.0,0.0,0.0,0.0,0.0,0.8205,0.8512,0.9092,0.9783,1.0662,1.123,1.1976,1.2885,1.3232,1.3861,1.4806,1.4995,1.5404,1.6033,1.6353,1.6608,1.679,1.7086,1.7304,1.7473,1.7286,1.7147,1.7008,1.6483,1.6265,1.6211,1.5306,1.4925,0.0,1.4359,1.4211,1.4329,1.5189,1.545,1.5737,1.7242,1.7565,1.7506,1.8233,1.8888,1.9598,0.0,2.1353,2.215,2.352,2.3871,2.4033,2.4675,2.471,2.4717,2.5265,2.4447,2.3838,2.4354,2.4267,2.439,2.524,2.6021,2.6673,2.7114,2.7289,2.6885,2.5773,2.6195,2.6434,0.0,0.0,0.0,2.8095,2.8315,2.8507,2.8755,2.8911,2.8984,2.8984,2.8737,2.8728,2.8984,2.859,2.8251,2.7957,2.7426,2.6967,2.6591,2.6591,2.6591,2.6564,2.6195,2.5791,2.5387,2.4992,2.4528,2.4053,2.4053,2.4053,2.4053,2.3854,2.3646,2.3347,0.0,0.0,0.0,0.0,0.0,0.0,0.0,0.0,0.0,0.0,0.0,0.0,0.0,0.0,0.0,0.0,0.0,0.0,0.8157,0.8748,0.9084,0.9084,0.9579,1.031,1.1171,1.1425,1.199,1.2915,1.3096,1.3267,1.3325,1.4173,1.4854,1.5423,1.6219,1.6837,1.727,1.6827,1.6465,1.6175,1.565,1.5143,1.4636,1.4081,1.3851,1.384,1.3509,1.3519,1.3942,1.5519,1.6064,1.6335,1.7588,1.8027,1.8189,1.9033,1.9547,2.0135,2.1653,2.2338,2.2946,2.399,2.421,2.4359,2.471,2.4432,2.425,2.4548,2.3867,2.329,0.0,0.0,2.3133,2.4036,2.4257,2.4735,2.5911,2.5754,2.5644,0.0,0.0,0.0,0.0,0.0,0.0,2.7702,0.0,2.8379,2.8425,2.8783,2.8984,2.8984,2.8966,2.8966,2.8984,2.859,2.7985,2.7178,2.7178,2.6967,2.6591,2.6591,2.6591,2.6564,2.6214,2.581,2.5396,2.4968,2.4446,2.3805,2.3805,2.3805,2.3805,2.3805,2.3587,2.3329,0.0,0.0,0.0,0.0,0.0,0.0,0.0,0.0,0.0,0.0,0.0,0.0,0.0,0.0,0.0,0.0,0.0,0.0,0.794,0.8411,0.871,0.8889,0.9275,0.9636,0.9879,1.0196,1.0815,1.1728,1.1939,1.2403,1.307,1.3335,1.3534,1.3651,1.4455,1.4849,1.5017,1.5362,1.5475,1.536,1.4817,1.4521,1.4322,1.3598,1.3412,1.356,1.3261,1.3307,1.3688,1.495,0.0,0.0,0.0,1.828,1.8729,2.0079,2.0908,2.1627,2.2578,2.3306,2.3948,2.4521,2.4667,2.4624,2.4373,2.4102,2.3788,2.3675,2.2492,2.1566,0.0,0.0,0.0,2.3565,2.4977,0.0,2.6839,2.6839,0.0,2.6454,0.0,2.6316,2.6417,2.6426,0.0,0.0,2.7757,2.8196,2.8801,2.8929,2.8984,2.8984,2.87,2.8682,2.8975,2.859,2.7985,2.7178,2.7178,2.6967,2.6591,2.6591,2.6591,2.6582,2.6472,2.6032,2.5362,2.5313,2.4794,2.4102,2.3904,2.3805,2.3805,2.3805,2.3318,2.2719,0.0,0.0,0.0,0.0,0.0,0.0,0.0,0.0,0.0,0.0,0.0,0.0,0.0,0.0,0.0,0.0,0.0,0.0,0.0,0.8209,0.8483,0.8706,0.8947,0.9057,0.9057,0.9253,0.9594,1.0118,1.0307,1.0635,1.1171,1.1609,1.19,1.2039,1.2748,1.3154,1.3297,1.3886,1.407,0.0,0.0,1.3707,1.355,1.3109,1.3021,1.3126,1.3107,1.3313,0.0,0.0,0.0,1.6894,1.8234,1.8823,1.9369,2.1137,0.0,2.2655,2.34,2.3988,2.4547,2.477,2.4693,2.4364,2.3817,2.3331,2.2842,2.246,2.1338,0.0,0.0,0.0,0.0,0.0,0.0,0.0,2.6252,2.6389,2.6435,0.0,2.6591,0.0,2.6591,2.6747,2.7013,0.0,2.7702,2.804,2.8691,2.8883,2.8984,2.8984,2.8764,2.859,2.8443,2.8232,2.771,2.6921,2.6921,2.6802,2.6591,2.6591,2.6591,2.6564,0.0,2.5793,2.5396,2.5038,2.4615,2.4152,2.3904,2.3805,2.3777,2.3458,2.2965,2.2472,0.0,0.0,0.0,0.0,0.0,0.0,0.0,0.0,0.0,0.0,0.4385,0.5144,0.0,0.0,0.0,0.0,0.0,0.0,0.0,0.0,0.8292,0.8568,0.8612,0.8612,0.8612,0.8612,0.8612,0.8612,0.8714,0.8787,0.8787,0.9683,1.0222,1.0434,1.1182,1.1664,1.1874,1.2391,1.2463,1.2298,1.2715,1.2792,1.2577,0.0,1.2705,1.2747,1.2966,1.3307,0.0,0.0,1.5556,1.7033,1.8734,1.9391,1.9998,2.219,2.2954,2.326,2.4065,2.4509,2.4804,2.4753,2.439,2.3956,2.3151,2.2389,2.1707,2.1131,0.0,1.9798,1.9988,2.028,2.0824,2.1705,0.0,2.3627,2.5307,2.5537,2.5812,2.6582,2.6619,2.6609,2.6664,2.6976,2.7343,2.7794,2.7877,2.8031,2.8452,2.8792,2.8984,2.8984,2.8984,2.8618,2.7914,2.7849,2.7398,2.6664,2.6619,2.6591,2.6591,2.6591,2.6591,2.6545,2.5837,2.547,2.5359,2.4597,2.4257,2.4152,2.3854,2.3755,2.366,2.3024,2.2593,2.227,0.0,0.0,0.0,0.0,0.0,0.0,0.0,0.0,0.0,0.0,0.3674,0.4385,0.0,0.0,0.0,0.0,0.0,0.0,0.0,0.0,0.0,0.8568,0.8612,0.8612,0.8612,0.8612,0.8612,0.8612,0.8641,0.8657,0.8657,0.8823,0.8941,0.9015,0.9673,0.9997,1.0075,1.074,1.0963,1.1009,1.1668,1.1926,1.1929,1.2491,0.0,0.0,1.2747,0.0,0.0,0.0,1.5285,1.6426,1.8912,1.9524,1.9949,2.2991,2.3444,2.3214,2.4378,2.477,2.4744,2.4419,2.4059,2.3511,2.2432,2.1747,0.0,0.0,1.9831,1.9606,1.9456,2.0021,0.0,2.2455,0.0,0.0,0.0,0.0,2.6554,0.0,0.0,0.0,0.0,0.0,0.0,0.0,0.0,2.8462,2.8856,2.8948,2.8984,2.8984,2.8984,2.8755,2.8287,2.7996,2.7536,2.7068,2.6747,2.6591,2.6591,2.6591,2.6591,2.6564,2.6122,0.0,2.5387,2.4867,2.4514,2.4152,2.3646,2.3456,2.3447,2.3076,2.2391,2.1655,0.0,0.0,0.0,0.0,0.0,0.0,0.0,0.2829,0.292,0.292,0.3186,0.363,0.434,0.5411,0.6083,0.0,0.0,0.0,0.0,0.0,0.0,0.0,0.8612,0.8612,0.8612,0.8612,0.8612,0.8612,0.0,0.8612,0.8612,0.8612,0.8612,0.8612,0.8955,0.9087,0.913,0.9777,1.0077,1.0164,1.1241,1.1714,1.1757,0.0,0.0,0.0,0.0,0.0,0.0,0.0,1.4894,1.6128,1.8753,1.9594,2.0106,2.2962,2.3513,2.3388,2.4484,2.4821,2.4727,2.4279,2.3665,2.2809,2.167,0.0,0.0,0.0,1.9272,1.9277,1.9298,0.0,0.0,0.0,0.0,0.0,0.0,0.0,0.0,0.0,0.0,0.0,0.0,0.0,0.0,0.0,0.0,2.8783,2.8975,2.8984,2.8984,2.8984,2.8984,2.8691,2.8077,2.7923,2.7462,2.6866,2.6683,2.6591,2.6591,2.6591,2.6591,2.6564,2.6195,2.5791,2.5387,2.4992,2.4537,2.4152,2.3904,2.3655,2.3352,2.2788,2.2061,2.1413,0.0,0.0,0.0,0.0,0.0,0.0,0.2513,0.2694,0.2833,0.289,0.2926,0.3106,0.3673,0.4858,0.568,0.0,0.0,0.0,0.0,0.0,0.0,0.0,0.0,0.0,0.0,0.0,0.0,0.0,0.8612,0.0,0.0,0.0,0.0,0.0,0.8612,0.8612,0.8656,0.9174,0.9388,0.0,0.0,1.1456,0.0,0.0,0.0,0.0,0.0,0.0,0.0,0.0,1.4517,1.5634,1.7935,1.8996,1.9866,2.2057,2.2855,2.3199,2.4178,2.4586,2.471,2.423,2.3263,2.2182,2.1011,2.0041,0.0,0.0,1.8851,1.9073,1.9262,0.0,0.0,0.0,0.0,0.0,0.0,0.0,0.0,0.0,0.0,0.0,0.0,0.0,0.0,0.0,0.0,0.0,2.8984,2.8984,2.8984,2.8984,2.8984,2.8636,2.7969,2.7868,2.7416,2.671,2.6628,2.6591,2.6591,2.6591,2.6536,2.6435,2.6159,2.5736,2.5277,2.4913,2.4537,2.4202,2.4053,2.3746,2.3326,2.2549,2.1939,2.1482,0.0,0.0,0.0,0.0,0.0,0.0,0.2469,0.2513,0.2666,0.2943,0.2951,0.296,0.3162,0.3709,0.4385,0.0,0.0,0.0,0.0,0.0,0.0,0.0,0.0,0.0,0.0,0.0,0.0,0.8612,0.0,0.0,0.0,0.0,0.0,0.0,0.0,0.0,0.8612,0.8656,0.0,0.0,0.0,0.0,0.0,0.0,0.0,0.0,0.0,0.0,0.0,0.0,0.0,1.4597,1.5835,1.7123,1.8494,2.0121,0.0,0.0,2.2891,2.3988,2.4641,2.3896,2.2877,2.1747,2.0609,0.0,0.0,1.8749,1.8851,1.9073,1.9262,1.9366,1.9797,0.0,0.0,2.2373,0.0,0.0,0.0,0.0,0.0,0.0,0.0,0.0,0.0,0.0,0.0,0.0,2.8984,2.8984,2.8984,2.8984,2.8984,2.8773,2.8342,2.7957,2.761,2.7114,2.6756,2.6591,2.6591,2.6591,2.638,2.6067,2.603,0.0,0.0,2.4803,2.4537,2.4152,2.3646,2.3447,2.3338,2.2767,2.2276,2.1893,0.0,0.0,0.0,0.0,0.0,0.0,0.2469,0.2676,0.2829,0.2909,0.2962,0.2975,0.2989,0.3171,0.3604,0.4328,0.5737,0.0,0.0,0.0,0.0,0.0,0.0,0.0,0.0,0.0,0.8612,0.8612,0.8612,0.0,0.0,0.0,0.0,0.0,0.0,0.0,0.0,0.8612,0.0,0.0,0.0,0.0,0.0,0.0,0.0,0.0,0.0,0.0,0.0,0.0,0.0,0.0,1.4308,1.5625,0.0,0.0,2.0295,2.1387,2.2675,2.39,2.4633,2.3879,2.2655,2.1405,2.0497,0.0,1.8756,1.8687,1.8962,1.9222,1.9301,1.9301,1.954,2.0283,0.0,0.0,0.0,0.0,0.0,0.0,0.0,0.0,0.0,0.0,0.0,0.0,0.0,0.0,2.8984,2.8984,2.8984,2.8984,2.8984,2.8673,2.8022,2.7904,2.7509,2.682,2.6664,2.6591,2.6591,2.6591,2.6499,2.6334,2.6334,0.0,0.0,2.5133,2.4799,2.4202,2.3954,2.3696,2.332,2.2892,2.242,2.191,0.0,0.0,0.0,0.0,0.0,0.243,0.2535,0.275,0.2912,0.2952,0.3018,0.3023,0.2955,0.2936,0.3171,0.3678,0.5412,0.0,0.0,0.0,0.0,0.0,0.0,0.0,0.0,0.0,0.8612,0.8612,0.8612,0.8612,0.0,0.0,0.0,0.0,0.0,0.0,0.0,0.0,0.0,0.0,0.0,0.0,0.0,0.0,0.0,0.0,0.0,0.0,0.0,0.0,0.0,0.0,0.0,0.0,0.0,0.0,1.9204,2.0958,2.1817,2.3245,2.4299,2.3554,2.2295,2.1054,0.0,0.0,1.8612,1.87,1.8962,1.9231,1.9301,1.9301,1.9402,1.9696,0.0,2.0497,0.0,0.0,0.0,0.0,0.0,0.0,0.0,0.0,0.0,0.0,0.0,0.0,2.8984,2.8984,2.8984,2.8984,2.8984,2.859,2.7831,2.7822,2.7427,2.6591,2.6591,2.6591,2.6591,2.6591,2.6518,2.6408,2.6408,0.0,0.0,2.5197,2.4836,2.4202,2.4102,2.3805,2.337,2.2996,2.2554,2.2047,0.0,0.0,0.0,0.0,0.0,0.2305,0.2538,0.2592,0.2723,0.3073,0.3086,0.3119,0.3082,0.3083,0.3095,0.3095,0.4895,0.0,0.0,0.0,0.0,0.0,0.0,0.0,0.0,0.0,0.8612,0.8612,0.8612,0.8612,0.8612,0.8612,0.8612,0.8612,0.0,0.0,0.0,0.0,0.0,0.0,0.0,0.0,0.0,0.0,0.0,0.0,0.0,0.0,0.0,0.0,0.0,0.0,0.0,1.4208,1.5099,1.5082,1.7712,2.0576,1.9992,2.1724,2.3546,2.28,2.1762,2.0686,0.0,0.0,1.8442,1.8652,1.8851,1.9073,1.9262,1.9301,1.9301,1.9311,1.998,0.0,0.0,0.0,0.0,0.0,0.0,0.0,0.0,0.0,0.0,0.0,0.0,0.0,2.8984,2.8984,2.8984,2.8984,2.8984,2.859,2.7831,2.7822,2.7427,2.6591,2.6591,2.6591,2.6591,2.6591,2.6362,2.6021,0.0,0.0,0.0,2.4785,2.4587,2.4152,2.3904,2.3646,2.3356,2.3097,2.2846,2.2482,0.0,0.0,0.0,0.0,0.0,0.0,0.2813,0.2901,0.2988,0.3072,0.3097,0.3102,0.308,0.3252,0.3354,0.3352,0.4438,0.0,0.0,0.0,0.0,0.0,0.0,0.0,0.0,0.8612,0.8612,0.8612,0.8682,0.8682,0.8612,0.8686,0.8678,0.8612,0.8612,0.0,0.0,0.0,0.0,0.0,0.0,0.0,0.0,0.0,0.0,0.0,0.0,0.0,0.0,0.0,0.0,0.0,0.0,0.0,0.0,1.5191,1.7077,1.9384,1.9574,2.0867,2.2013,2.1573,2.0746,1.9975,1.947,0.0,1.8612,1.87,1.8962,1.9222,1.9301,1.9301,1.9393,1.9687,2.0131,0.0,0.0,0.0,0.0,0.0,0.0,0.0,0.0,0.0,0.0,0.0,0.0,0.0,2.8984,2.8984,2.8984,2.8984,2.8984,2.859,2.7831,2.7822,2.7427,2.6591,2.6591,2.6591,2.6591,2.6591,2.6518,0.0,0.0,0.0,2.5212,2.4895,2.4537,2.4202,2.4102,2.3904,2.3646,2.3347,2.3097,2.2776,0.0,0.0,0.0,0.0,0.0,0.0,0.2984,0.3091,0.3091,0.3115,0.315,0.3151,0.309,0.3347,0.3661,0.392,0.4534,0.0,0.0,0.0,0.0,0.0,0.0,0.0,0.8616,0.8612,0.8645,0.8662,0.8767,0.88,0.8767,0.8804,0.8763,0.8662,0.8641,0.8612,0.0,0.0,0.0,0.0,0.0,0.0,1.2705,0.0,0.0,0.0,0.0,0.0,0.0,0.0,0.0,0.0,0.0,0.0,0.0,0.0,1.6896,1.8512,1.8957,2.0029,2.09,2.054,1.9984,0.0,0.0,0.0,1.87,1.87,1.9002,1.9301,1.9301,1.9301,1.9384,1.961,0.0,0.0,0.0,0.0,0.0,0.0,0.0,0.0,0.0,0.0,0.0,0.0,0.0,0.0,2.8984,2.8984,2.8984,2.8984,2.8984,2.859,2.7831,2.7822,2.7427,2.6591,2.6591,2.6591,2.6591,2.6591,2.6591,0.0,0.0,2.5644,0.0,2.4826,2.444,2.4202,2.4202,2.4053,2.3805,2.3596,2.3297,2.2894,0.0,0.0,0.0,0.0,0.0,0.0,0.0,0.3104,0.3112,0.3172,0.3281,0.3309,0.325,0.3597,0.4107,0.4812,0.5228,0.0,0.0,0.0,0.0,0.0,0.0,0.0,0.8637,0.8616,0.8649,0.882,0.8832,0.893,0.9092,0.8922,0.8832,0.8812,0.8641,0.8612,0.8696,1.0033,1.0593,1.0717,1.2143,1.2705,0.0,0.0,0.0,0.0,0.0,0.0,0.0,0.0,0.0,0.0,0.0,0.0,0.0,0.0,0.0,0.0,0.0,1.9142,2.0052,1.9665,1.9358,1.9041,1.8631,0.0,0.0,1.87,1.9002,1.9311,1.9338,1.932,1.932,0.0,0.0,0.0,0.0,0.0,0.0,0.0,0.0,0.0,0.0,0.0,0.0,0.0,0.0,0.0,2.8984,2.8984,2.8975,2.8938,2.8938,2.8563,2.7831,2.7794,2.7343,2.6591,2.6591,2.6591,2.6591,2.6591,2.6573,0.0,0.0,2.5405,2.5323,2.4523,2.4202,2.4152,2.4202,2.4053,2.3805,2.3805,2.3497,2.3003,0.0,0.0,0.0,0.0,0.0,0.0,0.0,0.0,0.0,0.0,0.3932,0.4427,0.4407,0.537,0.6121,0.0,0.0,0.0,0.0,0.0,0.0,0.0,0.0,0.0,0.8767,0.8633,0.8649,0.882,0.8962,0.9056,0.9096,0.9051,0.8958,0.8812,0.8641,0.8612,0.8696,1.0033,1.0593,1.0717,1.2143,1.2705,0.0,0.0,0.0,0.0,1.2705,1.2705,0.0,0.0,0.0,0.0,0.0,0.0,0.0,0.0,1.6632,1.7367,1.7918,0.0,1.8504,1.8418,1.8333,1.828,0.0,0.0,0.0,0.0,0.0,0.0,0.0,0.0,0.0,0.0,0.0,0.0,0.0,0.0,0.0,0.0,0.0,0.0,0.0,0.0,0.0,0.0,0.0,2.8984,2.8984,2.8984,2.8847,2.8544,2.8535,2.8287,2.7822,2.7462,2.7068,2.6591,2.6591,2.6591,2.6591,2.6591,2.6408,0.0,2.5635,2.5249,2.4876,2.4413,2.4102,2.3895,2.4102,2.4053,2.3805,2.3805,2.3705,2.3538,0.0,0.0,0.0,0.0,0.0,0.0,0.0,0.0,0.0,0.0,0.4435,0.4983,0.5479,0.6279,0.693,0.0,0.0,0.0,0.0,0.0,0.0,0.0,0.0,0.8974,0.871,0.8657,0.8694,0.895,0.9047,0.9181,0.934,0.9254,0.912,0.8934,0.8682,0.8784,0.913,1.0164,1.0809,1.1198,1.2272,0.0,0.0,0.0,0.0,0.0,1.2705,1.279,0.0,1.3264,1.3483,1.361,0.0,0.0,0.0,0.0,1.6755,1.7538,1.791,1.8,1.8,1.8,1.8,1.8031,1.8161,0.0,0.0,0.0,0.0,0.0,0.0,0.0,0.0,0.0,0.0,0.0,0.0,0.0,0.0,0.0,0.0,0.0,0.0,0.0,0.0,0.0,0.0,2.8984,2.8984,2.8984,2.8801,2.8407,2.8205,2.7911,2.7555,2.7288,2.6976,2.6591,2.6591,2.6591,2.6591,2.6591,2.6463,0.0,2.5628,2.5304,2.5005,2.445,2.4102,2.4003,2.4003,2.4003,2.3954,2.3854,2.3805,2.3755,0.0,0.0,0.0,0.0,0.0,0.0,0.0,0.0,0.0,0.0,0.0,0.0,0.0,0.0,0.0,0.0,0.0,0.0,0.0,0.0,0.0,0.0,0.9096,0.8942,0.8657,0.8649,0.8767,0.9096,0.9125,0.9307,0.9575,0.9441,0.9294,0.9043,0.8873,0.9112,0.9646,1.0419,1.1111,1.1757,1.2448,0.0,0.0,0.0,0.0,0.0,0.0,0.0,0.0,1.3307,1.3525,1.3737,1.3997,0.0,0.0,0.0,0.0,0.0,1.7951,1.8,1.8,1.8,1.8,1.8072,1.8362,0.0,0.0,0.0,0.0,0.0,0.0,0.0,0.0,0.0,0.0,0.0,0.0,0.0,0.0,0.0,0.0,0.0,0.0,0.0,0.0,0.0,0.0,2.8957,2.8893,2.8893,2.8682,2.8223,2.7866,2.7546,2.7086,2.7086,2.6921,2.6591,2.6591,2.6591,2.6591,2.6591,2.6518,2.6362,0.0,0.0,2.5185,2.4486,2.4202,2.4102,2.3904,2.3895,2.4053,2.3854,2.3805,2.3805,0.0,0.0,0.0,0.0,0.0,0.0,0.0,0.0,0.0,0.0,0.0,0.0,0.0,0.0,0.0,0.0,0.0,0.0,0.0,0.0,0.0,0.9112,0.9096,0.8999,0.8787,0.8783,0.8885,0.9096,0.929,0.9425,0.9575,0.9441,0.9177,0.8861,0.9431,0.9669,0.9689,1.0982,1.1585,1.1757,1.2448,0.0,0.0,0.0,0.0,0.0,0.0,0.0,0.0,1.3307,1.3525,1.3737,1.3997,0.0,0.0,0.0,0.0,0.0,1.787,1.8,1.8,1.8,1.8,1.8072,1.8362,1.8571,0.0,0.0,0.0,0.0,0.0,0.0,0.0,0.0,0.0,0.0,0.0,0.0,0.0,0.0,0.0,0.0,0.0,0.0,0.0,0.0,0.0,2.8838,2.8498,2.8489,2.8141,2.7389,2.7297,2.7077,2.6683,2.6683,2.6646,2.6591,2.6591,2.6591,2.6591,2.6591,2.6215,2.5607,0.0,2.5029,2.4376,2.4257,2.4053,2.3854,2.3805,2.3705,2.3555,2.3746,2.3805,2.3805,0.0,0.0,0.0,0.0,0.0,0.0,0.0,0.0,0.0,0.0,0.0,0.0,0.0,0.0,0.0,0.0,0.0,0.0,0.0,0.0,0.951,0.9294,0.9286,0.9108,0.8828,0.882,0.8958,0.9286,0.9363,0.9449,0.9571,0.9344,0.9312,0.9505,0.9656,1.0124,1.0766,1.1413,1.1886,1.2277,0.0,0.0,0.0,0.0,0.0,0.0,0.0,0.0,0.0,0.0,1.361,1.3955,1.4046,0.0,0.0,0.0,0.0,0.0,1.791,1.8,1.8,1.8,1.8121,1.8282,1.8531,1.8892,0.0,0.0,0.0,0.0,0.0,0.0,0.0,0.0,0.0,0.0,0.0,0.0,0.0,0.0,0.0,0.0,0.0,0.0,0.0,0.0,0.0,0.0,2.8077,2.8058,2.7783,2.7196,2.7178,2.6985,2.6591,2.6591,2.6591,2.6591,2.6591,2.6591,2.6591,2.6591,2.638,2.6004,0.0,2.5212,2.4826,2.4385,2.4152,2.4003,2.3854,2.3705,2.3596,2.3596,2.3596,2.352,0.0,0.0,0.0,0.0,0.0,0.0,0.0,0.0,0.0,0.0,0.0,0.0,0.0,0.0,0.0,0.0,0.0,0.0,0.0,0.9579,0.9547,0.9412,0.9404,0.9253,0.8893,0.8926,0.908,0.9404,0.9445,0.949,0.9571,0.9307,0.9503,1.0089,0.9964,1.0556,1.1714,1.1886,1.2229,1.2705,0.0,0.0,0.0,0.0,0.0,0.0,0.0,0.0,0.0,0.0,0.0,0.0,0.0,0.0,0.0,1.6255,1.7123,1.8,1.8,1.8,1.804,1.808,1.8241,1.8469,1.8767,1.9209,1.9607,0.0,0.0,0.0,0.0,0.0,0.0,0.0,0.0,0.0,0.0,0.0,0.0,0.0,0.0,0.0,0.0,0.0,0.0,0.0,0.0,0.0,2.7711,2.7684,2.75,2.705,2.704,2.6894,2.6591,2.649,2.649,2.6591,2.6591,2.6591,2.6591,2.6591,2.6481,2.627,2.569,2.5313,2.5084,2.4459,2.4202,2.4152,2.3904,2.3755,2.3696,2.3497,2.3397,2.3302,0.0,0.0,0.0,0.0,0.0,0.0,0.0,0.0,0.0,0.0,0.0,0.0,0.0,0.0,0.0,0.0,0.0,0.0,0.0,0.9579,0.9547,0.9412,0.9404,0.9314,0.9084,0.9282,0.9375,0.9404,0.9527,0.9616,0.9575,0.9429,0.9626,1.014,1.061,1.1147,1.1757,1.2357,1.2662,1.2705,1.2705,0.0,0.0,0.0,0.0,0.0,0.0,0.0,0.0,0.0,0.0,0.0,0.0,0.0,1.6214,1.6788,1.7456,1.8,1.8,1.8,1.808,1.8322,1.8402,1.853,1.9144,1.9447,0.0,2.0314,0.0,0.0,0.0,0.0,0.0,0.0,0.0,0.0,0.0,0.0,0.0,0.0,0.0,0.0,0.0,0.0,0.0,0.0,0.0,0.0,2.726,2.7215,2.704,2.6646,2.6628,2.6619,2.6591,2.6251,2.6251,2.6591,2.6591,2.6591,2.6591,2.6591,2.6178,2.5454,2.5451,2.4992,2.4284,2.4229,2.4202,2.4152,2.3904,2.3655,2.3456,2.3406,2.3397,2.3397,0.0,0.0,0.0,0.0,0.0,0.0,0.0,0.0,0.0,0.0,0.0,0.0,0.0,0.0,0.0,0.0,0.0,0.0,0.0,0.9579,0.9596,0.9527,0.9527,0.9494,0.9429,0.9429,0.9461,0.9527,0.9596,0.9567,0.9502,0.9746,1.0111,1.0639,1.1173,1.176,1.2363,1.2577,1.2705,1.2705,1.2875,1.2966,0.0,0.0,0.0,0.0,0.0,0.0,0.0,0.0,1.387,1.413,1.4377,1.5235,1.6131,1.6378,1.7164,1.8,1.8,1.8162,1.8424,1.8728,1.8842,0.0,0.0,2.0208,2.0814,2.0552,2.1117,0.0,0.0,0.0,0.0,0.0,0.0,0.0,0.0,0.0,0.0,0.0,0.0,0.0,0.0,0.0,0.0,0.0,0.0,0.0,2.6839,2.6811,2.6747,2.6591,2.6591,2.6463,2.6251,2.6094,2.6094,2.6251,2.6251,2.6251,2.6251,2.6251,2.5894,2.5405,2.5115,2.4831,2.4578,2.4312,2.4202,2.4152,2.3904,2.3755,2.3655,2.3447,2.3397,2.332,0.0,0.0,0.0,0.0,0.0,0.0,0.0,0.0,0.0,0.0,0.0,0.0,0.0,0.0,0.0,0.0,0.0,0.0,0.9579,0.9579,0.9604,0.9543,0.9543,0.9543,0.9543,0.9469,0.9445,0.9579,0.9579,0.9633,0.9736,0.9968,1.0502,1.1237,1.1565,1.2057,1.2705,1.279,1.2833,1.2833,1.3094,1.3179,0.0,0.0,0.0,0.0,0.0,0.0,0.0,0.0,1.3955,1.4173,1.458,1.536,1.618,1.6591,1.7417,1.8145,1.8025,1.8305,1.8645,1.8839,0.0,0.0,1.981,2.0723,2.1412,2.1154,2.1815,0.0,0.0,0.0,0.0,0.0,0.0,0.0,0.0,0.0,0.0,0.0,0.0,0.0,0.0,0.0,0.0,0.0,0.0,0.0,0.0,2.6463,2.6389,2.6389,2.627,2.6068,2.5828,2.5699,2.5699,2.5828,2.5699,2.5773,2.6012,2.5883,2.5607,2.5221,2.4904,2.4711,2.4615,2.4321,2.4202,2.4202,2.4003,2.3845,2.3805,2.3596,2.3447,2.3311,0.0,0.0,0.0,0.0,0.0,0.0,0.0,0.0,0.9579,0.9579,0.9579,0.0,0.0,0.0,0.0,0.0,0.0,0.0,0.9579,0.9579,0.9547,0.9412,0.9404,0.9404,0.9404,0.94,0.9441,0.9575,0.9624,0.9873,1.0405,1.0197,1.0772,1.1893,1.1782,1.2063,1.2705,1.3009,1.3094,1.3137,1.3313,1.3398,1.3398,0.0,0.0,0.0,0.0,0.0,0.0,0.0,1.4088,1.4334,1.5684,1.609,1.6345,1.7627,1.8297,1.8502,1.8094,1.8305,1.8635,0.0,0.0,0.0,2.0404,2.0842,2.1346,2.2171,2.262,2.2922,2.2922,0.0,0.0,0.0,0.0,0.0,0.0,0.0,0.0,0.0,0.0,0.0,0.0,0.0,0.0,0.0,0.0,0.0,0.0,2.6241,2.6012,2.6002,2.5626,2.5424,2.5362,2.4977,2.4977,2.5414,2.4968,2.5188,2.5984,2.5598,2.5152,2.4776,2.4776,2.4587,2.4202,2.4202,2.4202,2.4202,2.4202,2.4053,2.3805,2.3805,2.3646,2.3406,0.0,0.0,0.0,0.0,0.0,0.0,0.0,0.0,0.9579,0.9579,0.9579,0.0,0.0,0.0,0.0,0.0,0.0,0.0,0.9579,0.9579,0.9604,0.9551,0.9473,0.9404,0.9404,0.9286,0.9259,0.9437,0.9921,1.0134,1.0072,1.0965,1.1533,1.1782,1.2398,1.2796,1.3009,1.3222,1.3307,1.3307,1.3525,1.361,1.3652,0.0,0.0,0.0,0.0,0.0,0.0,0.0,0.0,0.0,1.5124,1.5733,1.6263,1.7131,1.7743,1.8136,1.8025,1.8585,0.0,1.9483,0.0,0.0,0.0,2.1878,0.0,0.0,2.3483,2.3499,2.4134,0.0,0.0,0.0,0.0,0.0,0.0,0.0,0.0,0.0,0.0,0.0,0.0,0.0,0.0,0.0,0.0,0.0,0.0,2.6076,2.5883,2.5607,2.5479,2.5234,2.4959,2.484,2.484,2.495,2.4587,2.467,2.5133,2.5014,2.478,2.4395,2.4395,2.4321,2.4202,2.4202,2.4202,2.4202,2.4202,2.4152,2.4102,2.4102,2.4053,2.3954,0.0,0.0,0.0,0.0,0.0,0.0,0.0,0.0,0.9579,0.9579,0.9579,0.9579,0.0,0.0,0.0,0.0,0.0,0.0,0.9579,0.9579,0.9596,0.9522,0.9461,0.9371,0.9302,0.9218,0.9181,0.9145,0.9922,1.0399,1.0701,1.1645,1.2137,1.2283,1.2948,1.3236,1.3228,1.344,1.3525,1.3532,1.3861,1.3969,1.3884,0.0,0.0,0.0,0.0,0.0,0.0,0.0,0.0,0.0,1.52,1.5775,1.6263,1.7172,1.7809,1.8254,1.8385,1.895,0.0,1.9929,2.0395,2.1074,2.2053,0.0,0.0,0.0,0.0,0.0,0.0,0.0,0.0,0.0,0.0,0.0,0.0,0.0,0.0,0.0,0.0,0.0,0.0,0.0,0.0,0.0,0.0,0.0,0.0,2.5718,2.5433,2.5142,2.5029,2.4826,2.4537,2.4372,2.429,2.429,2.4033,2.4042,2.4299,2.4455,2.444,2.4202,2.4202,2.4202,2.4202,2.4202,2.4202,2.4202,2.4202,2.4202,2.4202,2.4202,2.4202,2.4202,0.0,0.0,0.8598,0.8661,0.0,0.0,0.0,0.0,0.9571,0.9604,0.9567,0.9571,0.0,0.0,0.0,0.0,0.0,0.0,0.0,0.9579,0.9555,0.9433,0.9412,0.9314,0.9076,0.9273,0.923,0.8976,0.9797,1.0702,1.1794,1.2209,1.2667,1.3144,1.3436,1.3535,1.3472,1.3659,1.3737,1.3763,1.4283,1.4322,1.4115,1.4382,0.0,0.0,0.0,0.0,0.0,0.0,0.0,0.0,1.5684,1.6098,1.6337,1.7627,1.8297,1.868,1.8913,0.0,0.0,2.0119,0.0,0.0,0.0,0.0,0.0,0.0,0.0,0.0,0.0,0.0,0.0,0.0,0.0,0.0,0.0,0.0,0.0,0.0,0.0,0.0,0.0,0.0,0.0,0.0,0.0,0.0,0.0,2.5133,2.4711,2.4666,2.4312,2.4091,2.4091,2.3675,2.3444,2.3444,2.348,2.3499,2.3508,2.3969,2.4183,2.4146,2.4183,2.4183,2.4156,2.4183,2.4202,2.4202,2.4202,2.4202,2.4202,2.4202,2.4202,2.4202,0.0,0.0,0.8683,0.9007,0.0,0.0,0.0,0.0,0.0,0.9482,0.9539,0.0,0.0,0.0,0.0,0.0,0.0,0.0,0.0,0.9579,0.9612,0.9571,0.9433,0.9253,0.8885,0.8917,0.9367,1.0226,1.0582,1.08,1.093,1.2484,1.3303,1.3411,1.3873,1.4047,1.402,1.4012,1.3997,1.4004,1.4155,1.4142,1.4095,1.4155,1.4142,0.0,0.0,0.0,0.0,0.0,0.0,0.0,1.5684,1.6098,1.6337,1.7627,1.8297,1.868,1.8913,1.9621,0.0,0.0,0.0,0.0,0.0,0.0,0.0,0.0,0.0,0.0,0.0,0.0,0.0,0.0,0.0,0.0,0.0,0.0,0.0,0.0,0.0,0.0,0.0,0.0,0.0,0.0,0.0,0.0,2.5051,2.4606,2.4143,2.3773,2.337,2.316,2.316,2.3078,2.3032,2.3032,2.3343,2.3499,2.3508,2.3969,2.3978,2.3694,2.4064,2.3969,2.3703,2.4073,2.4202,2.4202,2.4202,2.4202,2.4202,2.4202,2.4202,2.4202,0.0,0.0,0.0,0.0,0.0,0.0,0.0,0.0,0.0,0.0,0.0,0.0,0.0,0.0,0.0,0.0,0.9575,0.0,0.0,0.9579,0.9579,0.9579,0.9535,0.9319,0.8962,0.9271,0.9674,1.012,1.0888,1.1407,1.1628,1.2933,1.3474,1.3485,1.3928,1.4132,1.413,1.4106,1.4088,1.4095,1.4242,1.4208,1.4102,1.4242,1.4208,1.4088,1.4088,0.0,0.0,0.0,0.0,0.0,0.0,0.0,1.6337,1.7627,1.8128,1.8447,0.0,0.0,0.0,0.0,0.0,0.0,0.0,0.0,0.0,0.0,0.0,0.0,0.0,0.0,0.0,0.0,0.0,0.0,0.0,0.0,0.0,0.0,0.0,0.0,0.0,0.0,0.0,0.0,0.0,2.4744,2.4542,2.4088,2.3675,2.3224,2.3014,2.2995,2.3187,2.2803,2.2712,2.2904,2.3114,2.3416,2.384,2.4101,2.4082,2.3849,2.411,2.4082,2.3849,2.411,2.4202,2.4202,2.4202,2.4202,2.4202,2.4202,2.4202,2.4202,0.0,0.0,0.0,0.0,0.0,0.0,0.0,0.0,0.0,0.0,0.0,0.0,0.0,0.0,0.9359,0.0,0.0,0.0,0.0,0.0,0.0,0.9579,0.9579,0.951,0.9291,0.9833,1.0044,0.9951,1.1154,1.21,1.2796,1.333,1.3554,1.3566,1.397,1.416,1.4162,1.4108,1.4088,1.4108,1.4349,1.4302,1.4115,1.4355,1.4295,1.4088,1.4088,1.4088,1.4088,1.4088,0.0,0.0,0.0,0.0,1.6509,1.7668,1.8042,1.8284,0.0,0.0,0.0,0.0,0.0,0.0,0.0,0.0,0.0,0.0,0.0,0.0,0.0,0.0,0.0,0.0,0.0,0.0,0.0,0.0,0.0,0.0,0.0,0.0,0.0,0.0,0.0,0.0,0.0,2.4101,2.4101,2.3593,2.3133,2.2812,2.273,2.2885,2.3279,2.262,2.2492,2.2904,2.2977,2.3446,2.4202,2.4202,2.4165,2.4101,2.4165,2.4165,2.4101,2.4174,2.4202,2.4202,2.4202,2.4202,2.4202,2.4202,2.4202,2.4202,0.0,0.0,0.0,0.0,0.0,0.0,0.0,0.0,0.0,0.0,0.9416,0.9343,0.0,0.0,0.0,0.9133,0.9339,0.9437,0.9437,0.0,0.0,0.9579,0.9579,0.97,0.9977,1.006,1.0543,1.1413,1.18,1.2314,1.3058,1.3548,1.3879,1.4109,1.4328,1.4452,1.4442,1.4195,1.4088,1.4088,1.4128,1.4122,1.4088,1.4128,1.4122,1.4088,1.4088,1.4088,1.4088,1.4088,1.451,0.0,0.0,0.0,1.709,1.7789,1.8263,1.8652,0.0,0.0,0.0,0.0,0.0,0.0,0.0,0.0,0.0,0.0,0.0,0.0,0.0,0.0,0.0,0.0,0.0,0.0,0.0,0.0,0.0,0.0,0.0,0.0,0.0,0.0,0.0,0.0,2.3886,2.3572,2.3572,2.2858,2.2419,2.2364,2.2034,2.2044,2.2437,2.2327,2.2492,2.2913,2.3251,2.3703,2.4202,2.4202,2.396,2.3648,2.3996,2.395,2.3657,2.4005,2.4202,2.4202,2.4202,2.4202,2.4202,2.4202,2.4202,2.4202,0.0,0.0,0.0,0.0,0.0,0.0,0.0,0.0,0.0,0.0,0.0,0.9141,0.0,0.0,0.0,0.8942,0.9108,0.9298,0.9396,0.934,0.9372,0.947,0.9907,1.0061,0.999,1.0871,1.1441,1.1714,1.232,1.2839,1.327,1.3604,1.3797,1.3926,1.419,1.4282,1.4269,1.4142,1.4088,1.4088,1.4088,1.4182,1.4309,1.4148,1.4188,1.4309,1.4142,1.4334,1.4671,1.4671,1.5124,1.5775,1.6435,0.0,0.0,0.0,1.8111,0.0,1.9124,0.0,0.0,0.0,0.0,0.0,0.0,0.0,0.0,0.0,0.0,0.0,0.0,0.0,0.0,0.0,0.0,0.0,0.0,0.0,0.0,0.0,0.0,0.0,0.0,0.0,0.0,0.0,2.3987,2.3785,2.3508,2.3151,2.2748,2.2291,2.2336,2.2455,2.2629,2.2629,2.284,2.3242,2.3416,2.3758,2.4202,2.4202,2.4101,2.3895,2.4128,2.4101,2.3895,2.4128,2.4202,2.4202,2.4202,2.4202,2.4202,2.4202,2.4202,2.4202,0.0,0.0,0.0,0.0,0.0,0.0,0.0,0.0,0.0,0.0,0.0,0.0,0.0,0.0,0.0,0.0,0.8922,0.91,0.9326,0.9353,0.9451,0.9679,1.0303,1.0645,1.0514,1.1701,1.2238,1.2063,1.2875,1.3307,1.3483,1.3773,1.3851,1.3828,1.4077,1.4155,1.4088,1.4168,1.4155,1.4095,1.4168,1.4451,1.4756,1.4656,1.4867,1.5149,1.4844,1.5078,1.5484,0.0,1.5816,1.6427,1.6927,1.7221,0.0,0.0,0.0,0.0,0.0,0.0,0.0,0.0,0.0,0.0,0.0,0.0,0.0,0.0,0.0,0.0,0.0,0.0,0.0,0.0,0.0,0.0,0.0,0.0,0.0,0.0,0.0,0.0,0.0,0.0,0.0,0.0,2.3996,2.3822,2.337,2.3343,2.3068,2.2455,2.2748,2.2959,2.3059,2.316,2.3306,2.3499,2.3599,2.3859,2.4202,2.4202,2.4202,2.4202,2.4202,2.4202,2.4202,2.4202,2.4202,2.4202,2.4202,2.4202,2.4202,2.4202,2.4202,2.4202,0.0,0.0,0.0,0.0,0.0,0.0,0.0,0.0,0.0,0.0,0.0,0.0,0.884,0.8678,0.8624,0.8624,0.8735,0.8913,0.91,0.9698,1.0193,1.0435,1.0917,0.0,1.2153,1.2266,1.2557,1.3009,1.3483,1.3652,1.3701,1.4233,1.4306,1.4102,1.4376,1.4342,1.4108,1.4382,1.4342,1.4115,1.4389,1.4929,1.5562,1.5892,1.6448,1.7024,1.6609,1.6495,0.0,0.0,0.0,0.0,0.0,0.0,0.0,0.0,0.0,0.0,0.0,0.0,0.0,0.0,0.0,0.0,0.0,0.0,0.0,0.0,0.0,0.0,0.0,0.0,0.0,0.0,0.0,0.0,0.0,0.0,0.0,0.0,0.0,0.0,0.0,0.0,0.0,0.0,2.3526,2.3352,2.2959,2.294,2.2922,2.2876,2.2895,2.3087,2.3462,2.3895,2.3904,2.3499,2.3932,2.4183,2.4202,2.4202,2.4202,2.4202,2.4202,2.4202,2.4202,2.4202,2.4202,2.4202,2.4202,2.4202,2.4202,2.4202,2.4202,2.4202,0.0,0.0,0.0,0.0,0.0,0.0,0.0,0.0,0.0,0.0,0.0,0.0,0.0,0.8993,0.9257,0.9257,0.9837,1.0233,1.0271,1.0513,1.0706,1.0745,1.1403,1.187,1.2113,1.2753,1.315,1.3313,1.3561,1.3695,1.3695,1.4061,1.4188,1.4102,1.4389,1.4355,1.4095,1.4202,1.4182,1.4193,1.507,1.5655,1.6024,1.6923,1.7458,1.7694,0.0,0.0,0.0,0.0,0.0,0.0,0.0,0.0,0.0,0.0,0.0,0.0,0.0,0.0,0.0,0.0,0.0,0.0,0.0,0.0,0.0,0.0,0.0,0.0,0.0,0.0,0.0,0.0,0.0,0.0,0.0,0.0,0.0,0.0,0.0,0.0,0.0,0.0,0.0,0.0,0.0,2.3877,2.373,2.3721,2.3602,2.3288,2.3593,2.3794,2.3932,2.4128,2.4128,2.3932,2.4128,2.4202,2.4202,2.4202,2.4202,2.4202,2.4202,2.4202,2.4202,2.4202,2.4202,2.4202,2.4202,2.4202,2.4202,2.4202,2.4202,2.4202,0.0,0.0,0.0,0.0,0.0,0.906,0.8787,0.8959,0.9077,0.9022,0.0,0.0,0.0,0.0,1.0164,1.0164,1.0722,1.1093,1.103,1.1332,1.1478,1.1544,1.218,1.2574,1.2622,1.3361,1.3678,1.3483,1.3792,1.392,1.3828,1.4097,1.4182,1.4102,1.4389,1.4355,1.4144,1.4667,1.4815,1.4845,1.6232,1.6974,1.732,1.8234,1.8738,0.0,0.0,0.0,0.0,0.0,0.0,0.0,0.0,0.0,0.0,0.0,0.0,0.0,1.9112,0.0,0.0,0.0,0.0,0.0,0.0,0.0,0.0,0.0,0.0,0.0,0.0,0.0,0.0,0.0,0.0,0.0,0.0,0.0,0.0,0.0,0.0,0.0,0.0,0.0,0.0,0.0,0.0,0.0,2.395,2.4128,2.4082,2.3749,2.4055,2.4137,2.395,2.4137,2.4137,2.395,2.4137,2.4202,2.4202,2.4202,2.4202,2.4202,2.4202,2.4202,2.4202,2.4202,2.4202,2.4202,2.4202,2.4202,2.4202,2.4202,2.4202,2.4202,0.0,0.0,0.8335,0.8398,0.8594,0.8737,0.884,0.9012,0.938,1.0128,0.0,0.0,0.0,0.0,0.0,1.1365,1.137,1.137,1.1365,1.2057,1.2561,1.2809,1.3188,1.3519,1.3786,1.4067,1.4017,1.3695,1.4233,1.4362,1.4095,1.4376,1.4355,1.4095,1.4382,1.4355,1.4262,1.5756,1.6227,1.6143,1.7705,1.8799,1.9523,1.985,0.0,0.0,2.0633,2.0544,0.0,2.0072,0.0,0.0,0.0,0.0,0.0,0.0,0.0,0.0,0.0,0.0,0.0,0.0,0.0,0.0,0.0,0.0,0.0,0.0,0.0,0.0,0.0,0.0,0.0,0.0,0.0,0.0,0.0,0.0,0.0,0.0,0.0,0.0,0.0,0.0,0.0,0.0,2.3932,2.3978,2.3535,2.3932,2.4202,2.4202,2.4202,2.396,2.3517,2.395,2.395,2.3517,2.396,2.4202,2.4202,2.4202,2.4202,2.4202,2.4202,2.4202,2.4202,2.4202,2.4202,2.4202,2.4202,2.4202,2.4202,2.4202,2.4202,2.4202,0.0,0.8808,0.885,0.8716,0.8906,0.919,0.9535,0.9818,1.023,0.0,0.0,0.0,1.1613,1.2108,1.2519,1.2808,1.296,1.296,1.2833,1.3137,1.3296,1.3243,1.3351,1.3515,1.372,1.3812,1.3907,1.3997,1.4126,1.4168,1.4088,1.4168,1.4162,1.4088,1.4168,1.4689,1.5483,1.5637,1.5905,1.6439,1.8238,1.9191,0.0,0.0,0.0,0.0,0.0,2.1075,2.0717,0.0,2.0247,1.9849,0.0,0.0,0.0,0.0,0.0,0.0,1.9384,0.0,0.0,0.0,0.0,0.0,1.9957,2.0223,0.0,0.0,0.0,0.0,0.0,0.0,0.0,0.0,0.0,0.0,0.0,0.0,0.0,0.0,0.0,0.0,0.0,0.0,0.0,0.0,2.4137,2.4156,2.3987,2.4137,2.4202,2.4202,2.4202,2.4146,2.3987,2.4146,2.4146,2.3987,2.4146,2.4202,2.4202,2.4202,2.4202,2.4202,2.4202,2.4202,2.4202,2.4202,2.4202,2.4202,2.4202,2.4202,2.4202,2.4202,2.4202,2.4202,0.9129,0.9315,0.9511,0.9789,0.9988,1.0171,1.0439,1.0636,1.0982,0.0,0.0,0.0,1.2699,1.3114,1.3441,1.3672,1.3786,1.3822,1.3695,1.3786,1.3828,1.3695,1.3701,1.3743,1.387,1.3989,1.4074,1.4088,1.4208,1.4208,1.4088,1.4088,1.4088,1.413,1.4496,1.5227,1.6203,1.6407,1.7014,0.0,1.9582,0.0,0.0,2.1373,2.1607,0.0,0.0,0.0,2.1163,2.1163,2.0839,0.0,0.0,0.0,0.0,0.0,0.0,0.0,0.0,0.0,0.0,0.0,0.0,0.0,1.961,1.9893,2.0259,0.0,0.0,0.0,0.0,0.0,0.0,0.0,0.0,0.0,0.0,0.0,0.0,0.0,0.0,0.0,0.0,2.3529,2.3969,2.4192,2.4202,2.4202,2.4202,2.4202,2.4202,2.4202,2.4202,2.4202,2.4202,2.4202,2.4202,2.4202,2.4202,2.4202,2.4202,2.4202,2.4202,2.4202,2.4202,2.4202,2.4202,2.4202,2.4202,2.4202,2.4202,2.4202,2.4202,2.4202,2.4202,2.4202,0.0,0.999,1.0289,1.1106,1.1327,1.137,1.1456,1.1451,1.1843,0.0,1.293,1.3248,1.401,1.4148,1.4155,1.4095,1.4088,1.4088,1.4088,1.4088,1.4088,1.4088,1.4088,1.4088,1.4088,1.4342,1.4349,1.4088,1.4349,1.4342,1.4088,1.4088,1.4144,1.4298,1.5118,1.5924,1.6829,1.7755,0.0,2.0078,2.1175,2.1614,0.0,0.0,2.1696,2.1696,2.1696,2.1696,2.1696,2.1696,2.1412,0.0,0.0,0.0,0.0,0.0,1.998,0.0,0.0,0.0,0.0,0.0,0.0,0.0,1.9402,1.9897,2.0415,2.0415,0.0,0.0,0.0,0.0,0.0,0.0,0.0,0.0,0.0,0.0,0.0,0.0,0.0,0.0,2.284,2.3233,2.3694,2.411,2.4174,2.4202,2.4202,2.4202,2.4202,2.4202,2.4202,2.4202,2.4202,2.4202,2.4202,2.4202,2.4202,2.4202,2.4202,2.4202,2.4202,2.4202,2.4202,2.4202,2.4202,2.4202,2.4202,2.4202,2.4202,2.4202,2.4202,2.4202,2.4202,2.4202,1.0332,1.0636,1.0852,1.1025,1.137,1.18,1.2357,1.2571,1.296,1.3743,1.4235,1.4434,1.4142,1.4509,1.4646,1.4128,1.4088,1.4088,1.4088,1.4088,1.4088,1.4088,1.4088,1.4088,1.4088,1.4142,1.4142,1.4088,1.4142,1.4142,1.4088,1.4088,1.4542,1.5319,1.5689,1.6992,1.8897,1.8931,0.0,2.1291,2.0902,0.0,2.1696,2.1696,2.1696,2.1696,2.1696,2.1696,2.1696,2.1696,2.1412,2.1089,0.0,0.0,0.0,2.0328,0.0,0.0,0.0,0.0,0.0,0.0,0.0,0.0,1.9467,1.9687,2.0003,0.0,0.0,0.0,0.0,0.0,0.0,0.0,0.0,0.0,0.0,0.0,0.0,0.0,0.0,0.0,2.24,2.3068,2.3526,2.3657,2.3969,2.4202,2.4202,2.4202,2.4202,2.4202,2.4202,2.4202,2.4202,2.4202,2.4202,2.4202,2.4202,2.4202,2.4202,2.4202,2.4202,2.4202,2.4202,2.4202,2.4202,2.4202,2.4202,2.4202,2.4202,2.4202,2.4202,2.4202,2.4202,2.4202,1.1451,1.1757,1.2015,1.2448,1.2753,1.3009,1.3355,1.3476,1.3695,1.4039,1.4469,1.4629,1.4335,1.4569,1.4623,1.4329,1.4168,1.4208,1.4546,1.4249,1.4155,1.4295,1.4162,1.4088,1.4088,1.4088,1.4088,1.4088,1.4088,1.4088,1.4088,1.4088,1.4697,1.5827,1.641,1.7776,1.9667,1.9772,2.0548,2.1641,2.1062,0.0,2.1696,2.1696,2.1696,2.1696,2.1696,2.1696,2.1696,2.1696,2.1549,0.0,0.0,2.1117,2.1,0.0,2.0952,2.1328,0.0,0.0,0.0,2.0668,0.0,0.0,0.0,1.9778,1.9893,0.0,0.0,0.0,0.0,0.0,0.0,0.0,0.0,0.0,0.0,0.0,0.0,0.0,0.0,0.0,2.2547,2.2959,2.337,2.3813,2.4082,2.4202,2.4202,2.4202,2.4202,2.4202,2.4202,2.4202,2.4202,2.4202,2.4202,2.4202,2.4202,2.4202,2.4202,2.4202,2.4202,2.4202,2.4202,2.4202,2.4202,2.4202,2.4202,2.4202,2.4202,2.4202,2.4202,2.4202,2.4202,2.4202,1.2619,1.279,1.3088,1.3828,1.4046,1.4088,1.4088,1.4088,1.4108,1.4162,1.4476,1.4663,1.4609,1.4656,1.4663,1.4609,1.4432,1.4542,1.4975,1.4559,1.4378,1.4516,1.4295,1.4168,1.4168,1.4168,1.4168,1.4168,1.4168,1.4142,1.413,1.4353,1.512,1.6344,1.7339,1.8629,2.0131,0.0,0.0,2.165,0.0,2.1355,2.1696,2.1696,2.1696,2.1696,2.1696,2.1696,2.1696,2.1696,2.1696,2.1632,2.1337,2.1421,0.0,0.0,0.0,0.0,0.0,0.0,0.0,0.0,0.0,2.0484,0.0,0.0,0.0,0.0,0.0,0.0,0.0,0.0,0.0,0.0,0.0,0.0,0.0,0.0,0.0,0.0,0.0,0.0,2.2611,2.2748,2.3123,2.3978,2.4082,2.4119,2.4202,2.4202,2.4202,2.4202,2.4202,2.4202,2.4202,2.4202,2.4202,2.4202,2.4202,2.4202,2.4202,2.4202,2.4202,2.4251,2.4251,2.4251,2.4251,2.4251,2.4251,2.4202,2.4202,2.4202,2.4202,2.4202,2.4202,2.4202,1.3052,1.3179,1.3349,1.3483,1.3828,1.4088,1.4088,1.4088,1.4182,1.4436,1.4957,1.5204,1.4988,1.5144,1.519,1.4981,1.5092,1.5099,1.5001,1.5106,1.4964,1.4529,1.4489,1.4469,1.4469,1.4469,1.4469,1.4469,1.4469,1.4342,1.4137,1.5262,1.6331,1.7403,1.8844,2.0157,0.0,0.0,2.131,0.0,2.1273,2.1355,0.0,2.1696,2.1696,2.1696,2.1696,2.1696,2.1696,0.0,2.1696,2.1678,0.0,2.165,2.1678,0.0,0.0,0.0,0.0,0.0,0.0,0.0,2.0814,0.0,0.0,0.0,1.9783,1.9448,0.0,0.0,0.0,0.0,0.0,0.0,0.0,0.0,0.0,0.0,0.0,0.0,0.0,0.0,0.0,2.2144,2.2684,2.3499,2.3563,2.3767,2.4183,2.4202,2.4202,2.4202,2.4202,2.4202,2.4202,2.4202,2.4202,2.4202,2.4202,2.4202,2.4202,2.4202,2.4301,2.4489,2.4489,2.4489,2.4489,2.4489,2.4341,2.4202,2.4202,2.4202,2.4202,2.4202,2.4202,2.4202,1.3659,1.3743,1.3828,1.3828,1.3962,1.4088,1.4088,1.4088,1.4255,1.4716,1.499,1.5164,1.5211,0.0,0.0,0.0,0.0,1.5406,0.0,0.0,1.5232,1.5023,1.487,1.4776,1.4776,1.4609,1.4522,1.4522,1.4349,1.445,1.4866,1.5631,1.6892,1.85,1.9434,0.0,2.1553,0.0,2.1531,0.0,0.0,0.0,0.0,2.1696,2.1696,2.1696,2.1696,2.1696,2.1696,0.0,2.1696,0.0,0.0,0.0,0.0,0.0,0.0,0.0,0.0,0.0,0.0,0.0,0.0,0.0,2.0466,0.0,2.0113,0.0,0.0,0.0,0.0,0.0,0.0,0.0,2.0031,0.0,0.0,0.0,0.0,0.0,0.0,0.0,0.0,0.0,0.0,0.0,2.337,2.3572,2.3794,2.4073,2.4202,2.4202,2.4202,2.4202,2.4202,2.4202,2.4202,2.4202,2.4202,2.4202,2.4202,2.4341,2.444,2.4538,2.4686,2.4637,2.4529,2.4686,2.4538,2.4251,2.4498,2.4449,2.4202,2.4202,2.4251,2.4341,1.4059,0.0,1.3997,1.3997,1.4039,1.4088,1.4088,1.4289,1.4569,1.4961,1.5149,1.5284,1.5491,1.5564,0.0,0.0,1.5821,1.5922,0.0,0.0,1.5745,1.5883,0.0,0.0,1.5521,1.4997,1.4723,1.473,1.4724,1.5036,1.5659,1.648,1.7763,1.9385,2.0035,2.082,2.1696,0.0,2.1696,2.1696,2.1696,2.1696,2.1696,2.1696,2.1696,2.1696,2.1696,2.1696,2.1696,2.1696,2.1696,0.0,2.1696,0.0,0.0,0.0,0.0,0.0,2.1696,0.0,0.0,0.0,0.0,0.0,0.0,0.0,0.0,0.0,0.0,0.0,0.0,0.0,0.0,0.0,0.0,1.9948,0.0,0.0,0.0,0.0,0.0,0.0,0.0,0.0,0.0,0.0,0.0,2.3261,2.348,2.3822,2.4082,2.4202,2.4202,2.4202,2.4202,2.4202,2.4202,2.4202,2.4202,2.4251,2.4301,2.443,2.4578,2.4735,2.4932,2.4883,2.4627,2.4883,2.4686,2.4251,2.4735,2.4637,2.4301,2.4301,2.444,2.4578,1.4057,1.3913,1.3695,1.3695,1.3913,1.4088,1.4088,1.481,1.5257,0.0,0.0,0.0,0.0,0.0,0.0,0.0,0.0,1.6857,1.6588,0.0,1.6747,0.0,0.0,1.5831,0.0,1.5863,1.5322,1.5263,1.5896,1.6249,1.6332,1.8207,1.935,1.986,2.1078,2.1678,2.1696,2.1696,2.1696,2.1696,2.1696,2.1696,2.1696,0.0,2.1696,2.1696,2.1696,0.0,0.0,2.1696,2.1696,0.0,0.0,0.0,0.0,0.0,0.0,0.0,0.0,0.0,0.0,2.1227,0.0,0.0,0.0,0.0,2.0512,0.0,0.0,0.0,0.0,0.0,0.0,0.0,0.0,0.0,0.0,0.0,0.0,0.0,0.0,0.0,0.0,0.0,0.0,0.0,0.0,0.0,2.3453,2.3508,2.3739,2.4192,2.4202,2.4202,2.4202,2.4202,2.4202,2.4202,2.4202,2.4291,2.4489,2.448,2.4784,2.5284,2.5284,2.5137,2.4883,2.5186,2.4843,2.4251,2.4735,2.4735,2.4489,2.4489,2.4686,2.4833,1.4352,1.4283,1.418,1.3988,0.0,1.4436,1.4636,1.4961,0.0,0.0,0.0,0.0,0.0,1.8182,1.8101,0.0,0.0,1.8427,1.8326,1.7839,0.0,0.0,0.0,1.6341,0.0,0.0,0.0,1.6359,1.7031,1.764,1.8216,1.8897,1.9721,2.0665,2.1124,2.1431,0.0,0.0,0.0,0.0,0.0,2.1696,2.1696,0.0,2.1696,2.1696,2.1696,2.1696,0.0,2.1696,2.1696,2.1696,2.1696,2.1696,2.1696,2.1696,2.1696,0.0,0.0,0.0,2.1659,2.1513,0.0,0.0,0.0,0.0,0.0,0.0,0.0,0.0,0.0,0.0,0.0,0.0,0.0,0.0,0.0,0.0,0.0,0.0,0.0,0.0,0.0,0.0,0.0,0.0,0.0,0.0,0.0,2.3352,2.373,2.4192,2.4202,2.4202,2.4202,2.4202,2.4202,2.4202,2.4202,2.4301,2.4538,2.4686,2.4981,2.5294,2.5489,2.543,2.5186,2.543,2.5186,2.4695,2.5039,2.5088,2.499,2.4627,2.4784,2.5137,1.4654,1.4957,0.0,0.0,0.0,0.0,0.0,0.0,0.0,0.0,1.7872,0.0,1.9854,0.0,1.9307,0.0,1.9505,1.9293,1.9293,1.8804,0.0,1.9392,1.7963,0.0,0.0,0.0,0.0,0.0,0.0,1.8899,1.9557,1.9633,2.0159,2.1108,0.0,2.1255,2.1476,0.0,2.1696,0.0,0.0,2.183,0.0,0.0,2.1874,2.1687,0.0,2.1785,2.1696,2.1696,2.1696,2.1696,2.1696,2.1696,2.1696,2.1696,2.1696,2.1696,2.1696,2.1696,0.0,2.1696,2.1696,0.0,2.1696,0.0,0.0,0.0,0.0,0.0,0.0,0.0,0.0,0.0,0.0,0.0,0.0,2.0484,0.0,0.0,0.0,0.0,0.0,0.0,0.0,0.0,0.0,0.0,0.0,0.0,2.3584,2.4183,2.4202,2.4202,2.4202,2.4202,2.4202,2.4202,2.4251,2.444,2.4627,2.4932,2.5186,2.543,2.5635,2.5538,2.5333,2.5586,2.5382,2.4932,2.5186,2.5284,2.5235,2.4686,2.4784,2.5205,1.5057,1.5821,0.0,0.0,1.5976,0.0,0.0,0.0,1.8581,0.0,1.9339,1.9645,2.0144,2.0028,1.995,1.9966,1.9752,1.9621,1.9621,1.9384,0.0,0.0,1.9484,1.9293,2.0294,0.0,0.0,0.0,0.0,1.9947,2.0237,2.0406,2.0714,2.108,2.108,0.0,2.1135,2.1513,2.1696,2.1741,2.2008,2.2097,2.2141,2.2353,2.2132,2.1776,2.2008,2.1919,2.1731,2.1741,2.1741,2.1731,2.1731,2.1731,2.1741,2.1741,2.1687,2.1696,2.1696,2.1696,2.1696,2.1696,2.1696,0.0,0.0,0.0,2.1696,0.0,0.0,0.0,0.0,0.0,0.0,0.0,0.0,0.0,0.0,0.0,0.0,0.0,0.0,0.0,0.0,0.0,0.0,0.0,0.0,0.0,0.0,0.0,2.3279,2.4174,2.4202,2.4202,2.4202,2.4202,2.4202,2.4202,2.439,2.4637,2.4883,2.5186,2.544,2.5693,2.5693,2.5538,2.5333,2.5586,2.5391,2.4981,2.5186,2.5284,2.5235,2.4735,2.4745,2.5076,1.6931,1.7389,1.7955,0.0,1.8202,1.7959,0.0,0.0,0.0,0.0,2.0661,2.1191,2.293,2.2262,2.179,2.2102,2.1496,0.0,0.0,0.0,0.0,2.1365,1.994,1.9476,2.0294,2.0068,0.0,1.9887,0.0,0.0,2.0839,2.0619,2.0576,2.0668,0.0,0.0,2.1135,2.1513,2.183,2.2008,2.2052,2.2185,0.0,0.0,2.2485,2.222,2.2141,2.2141,2.222,2.2052,2.2097,2.222,2.222,2.2132,2.2008,2.2008,2.1874,2.1696,2.1696,2.1696,2.1696,2.1696,2.1696,2.1696,0.0,0.0,0.0,0.0,0.0,0.0,0.0,0.0,0.0,0.0,0.0,0.0,0.0,0.0,0.0,2.1495,0.0,0.0,0.0,0.0,0.0,0.0,0.0,0.0,0.0,0.0,0.0,2.4174,2.4202,2.4202,2.4202,2.4202,2.4202,2.4202,2.439,2.4637,2.4883,2.5186,2.544,2.5693,2.5693,2.5635,2.5586,2.5684,2.5635,2.5489,2.5333,2.5186,2.503,2.5284,2.5535,2.5774,1.8113,0.0,0.0,2.0287,0.0,0.0,2.018,2.0058,0.0,2.1928,2.1887,0.0,2.3508,2.3015,2.2574,2.2629,2.2053,0.0,2.1696,0.0,0.0,2.1696,2.0817,2.0484,2.0898,2.0898,0.0,2.0898,0.0,0.0,2.1099,2.053,2.0223,2.0223,0.0,2.0342,0.0,2.1174,2.1699,2.2097,2.2185,0.0,0.0,2.2838,2.2838,2.2696,2.2495,2.2397,2.2397,2.2264,2.2309,2.2397,2.2397,2.2309,2.222,2.2141,2.2008,2.183,2.1731,2.1696,2.1696,2.1696,2.1696,2.1696,2.1696,2.1696,2.1696,0.0,2.1696,2.1696,0.0,0.0,0.0,0.0,0.0,0.0,0.0,0.0,0.0,0.0,2.1696,0.0,0.0,0.0,0.0,0.0,0.0,0.0,0.0,0.0,0.0,2.3868,2.411,2.4202,2.4202,2.4202,2.4202,2.4202,2.4538,2.4735,2.4932,2.5284,2.5538,2.5693,2.5693,2.5693,2.5693,2.5693,2.5693,2.5693,2.5538,2.5333,2.5156,2.58,2.6023,2.6056,0.0,0.0,0.0,0.0,0.0,0.0,0.0,2.169,0.0,2.2756,0.0,2.2849,2.2904,2.2858,2.2675,2.2309,0.0,2.1696,2.1696,2.1696,2.1696,2.1696,2.1696,2.1696,2.1696,2.1696,0.0,0.0,0.0,0.0,2.1016,2.0232,1.9857,0.0,0.0,0.0,0.0,2.0857,2.153,2.2141,2.2353,2.2618,2.2838,2.3047,2.3091,2.3101,2.2882,2.2706,2.2485,2.2441,2.2485,2.2485,2.2485,2.2485,2.2397,2.223,2.2141,2.2052,2.1874,2.1776,2.1731,2.1731,2.1731,2.1741,2.1696,2.1696,2.1696,2.1696,2.1696,2.1696,0.0,0.0,0.0,0.0,0.0,0.0,0.0,0.0,0.0,0.0,0.0,0.0,0.0,0.0,0.0,0.0,0.0,0.0,0.0,0.0,0.0,2.348,2.3941,2.4202,2.4202,2.4202,2.4202,2.4251,2.4686,2.4932,2.499,2.5489,2.5693,2.5693,2.5693,2.5693,2.5693,2.5693,2.5693,2.5693,2.5693,2.5625,2.5517,2.6151,2.6305,2.6299,0.0,0.0,0.0,0.0,0.0,2.1824,2.2172,2.1907,2.1943,2.2803,2.2602,2.2519,2.2867,2.2602,2.2355,2.2327,2.1925,0.0,0.0,0.0,0.0,2.1696,2.1696,2.1696,2.1696,2.1696,2.1696,0.0,0.0,0.0,2.0613,2.0104,1.9701,0.0,0.0,0.0,2.0906,2.1268,0.0,2.2353,2.2618,2.2882,2.3047,2.3101,2.3091,2.3091,2.3057,2.3013,2.2969,2.2794,2.2838,2.296,2.296,2.2882,2.2706,2.2715,2.2407,2.2141,2.2264,2.2176,2.2008,2.2008,2.2008,2.1963,2.1731,2.1696,2.1696,2.1696,2.1696,2.1696,2.1696,0.0,0.0,0.0,0.0,0.0,0.0,0.0,0.0,0.0,0.0,2.1366,0.0,0.0,0.0,0.0,0.0,0.0,0.0,0.0,0.0,0.0,2.3941,0.0,0.0,0.0,2.4291,2.443,2.4735,2.503,2.5235,2.5538,2.5693,2.5693,2.5693,2.5693,2.5693,2.5693,2.5693,2.5693,2.5693,2.5908,2.623,2.6357,2.6836,2.7399,0.0,0.0,0.0,0.0,0.0,0.0,0.0,2.1943,2.1906,2.2501,2.24,2.2272,2.2282,2.2272,2.2199,2.1989,2.1797,2.1696,2.1696,2.1696,2.1696,2.1696,2.1696,0.0,2.1696,2.1696,2.1696,2.1696,0.0,0.0,2.0503,1.9847,0.0,1.9311,0.0,2.0053,0.0,0.0,0.0,2.2441,2.2706,2.2925,2.3091,2.3091,2.3091,2.3091,2.3091,2.3091,2.3101,2.3013,2.3013,2.3091,2.3091,2.3047,2.2925,2.2847,2.2627,2.2441,2.2397,2.2309,2.2274,2.2274,2.2185,2.2097,2.2087,2.1865,2.1741,2.1874,2.1785,2.1696,2.1696,2.1696,0.0,0.0,0.0,0.0,0.0,0.0,0.0,0.0,0.0,0.0,0.0,0.0,0.0,0.0,0.0,2.0778,2.1383,0.0,2.2346,0.0,0.0,0.0,2.4202,0.0,2.4291,2.448,2.4784,2.5039,2.5294,2.5586,2.5693,2.5693,2.5693,2.5693,2.5693,2.5693,2.5693,2.5693,2.5693,2.6006,2.6416,2.6631,2.7119,2.7718,0.0,2.1651,0.0,0.0,2.1696,0.0,2.2108,2.1888,2.1833,2.2272,2.2254,2.2034,2.1723,2.197,2.2025,2.1723,2.1696,2.1696,2.1696,2.1696,2.1696,2.1696,2.1696,2.1696,2.1696,2.1696,2.1696,0.0,0.0,0.0,0.0,1.9723,0.0,0.0,0.0,0.0,0.0,0.0,2.1631,2.253,2.275,2.2969,2.3091,2.3091,2.3091,2.3091,2.3091,2.3091,2.3091,2.3091,2.3091,2.3091,2.3091,2.3091,2.3057,2.2925,2.2847,2.2759,2.2564,2.253,2.2485,2.2485,2.2362,2.2274,2.2397,2.2132,2.1909,2.2052,2.1874,2.1696,2.1696,2.1696,0.0,0.0,0.0,0.0,0.0,0.0,0.0,0.0,0.0,0.0,0.0,0.0,0.0,0.0,0.0,2.0567,2.0961,2.1421,2.2071,0.0,0.0,2.3739,2.4202,0.0,2.435,2.4587,2.4784,2.5079,2.5382,2.5586,2.5693,2.5693,2.5693,2.5693,2.5693,2.5693,2.5693,2.5703,2.5791,2.6143,2.6572,2.7002,2.7432,2.7855,0.0,0.0,0.0,0.0,0.0,0.0,2.1742,2.1714,2.1833,2.2272,2.197,2.1733,2.1696,2.1723,2.1733,2.1696,2.1696,2.1696,2.1696,2.1696,2.1696,2.1696,2.1696,2.1696,2.1696,2.1696,2.1696,0.0,0.0,2.0704,0.0,0.0,0.0,0.0,0.0,0.0,0.0,2.148,2.2121,2.2803,2.3013,2.3091,2.3091,2.3091,2.3091,2.3091,2.3091,2.3091,2.3091,2.3091,2.3091,2.3091,2.3091,2.3091,2.3091,2.3101,2.2925,2.2847,2.3013,2.2882,2.2759,2.2759,2.2759,2.2671,2.2441,2.2353,2.2309,2.2141,2.1874,2.1696,2.1696,2.1696,2.1696,0.0,0.0,0.0,0.0,0.0,0.0,0.0,0.0,0.0,0.0,2.0429,0.0,0.0,2.0122,2.0113,2.0549,2.1266,2.2071,2.2876,2.3288,2.3739,2.4202,2.4202,2.4449,2.4883,2.4883,2.5186,2.5635,2.5693,2.5693,2.5693,2.5693,2.5693,2.5693,2.5693,2.5693,2.5732,2.6172,2.6582,2.7012,2.7441,2.7871,2.8232,0.0,0.0,0.0,0.0,0.0,0.0,0.0,2.1696,2.1751,2.1906,2.1787,2.1696,2.1696,2.1696,2.1696,2.1696,2.1696,2.1696,2.1696,2.1696,2.1696,2.1696,2.1696,2.1696,2.1696,2.1696,2.1696,0.0,0.0,0.0,0.0,0.0,0.0,0.0,0.0,2.0629,2.1272,2.1664,2.2202,2.2803,2.3013,2.3091,2.3091,2.3091,2.3091,2.3091,2.3091,2.3091,2.3091,2.3091,2.3091,2.3091,2.3091,2.3091,2.3091,2.3091,2.3057,2.3013,2.3091,2.3057,2.2969,2.2969,2.2882,2.2794,2.2838,2.2608,2.2397,2.2309,2.1954,2.1696,2.1696,2.1696,2.1696,2.1696,0.0,0.0,0.0,0.0,0.0,0.0,0.0,0.0,0.0,0.0,0.0,0.0,0.0,1.9943,2.0824,2.0961,0.0,2.2867,0.0,2.3501,2.4192,2.4341,2.4538,2.4883,2.5088,2.5333,2.5693,2.5693,2.5693,2.5693,2.5693,2.5693,2.5693,2.5693,2.5693,2.5732,2.6221,2.665,2.707,2.751,2.793,2.8291,2.1607,0.0,2.1696,0.0,2.1696,2.1696,2.1696,2.1696,2.1696,2.1696,2.1696,2.1696,2.1696,2.1696,2.1696,2.1696,2.1696,2.1696,2.1696,2.1696,2.1696,2.1696,2.1696,0.0,2.1696,2.1696,2.1696,2.1696,2.131,0.0,0.0,0.0,0.0,0.0,2.0725,2.1107,2.1601,2.1958,2.2394,2.2882,2.3057,2.3091,2.3091,2.3091,2.3091,2.3091,2.3091,2.3091,2.3091,2.3091,2.3091,2.3091,2.3091,2.3091,2.3091,2.3091,2.3091,2.3091,2.3091,2.3091,2.3091,2.3091,2.3013,2.2925,2.3057,2.2828,2.2564,2.2432,2.2043,2.1696,2.1696,2.1696,2.1696,2.1696,0.0,0.0,0.0,0.0,0.0,0.0,2.1586,2.1559,2.1678,2.0955,0.0,0.0,0.0,0.0,0.0,0.0,0.0,0.0,0.0,0.0,2.4726,2.4873,2.5118,2.5362,2.5323,2.544,2.5693,2.5693,2.5693,2.5693,2.5693,2.5693,2.5693,2.5693,2.5762,2.5977,2.6406,2.6826,2.7256,2.7695,2.8037,2.8291,2.1392,2.1562,2.1696,2.1696,2.1696,2.1696,2.1696,2.1696,2.1696,2.1696,2.1696,2.1696,2.1696,2.1696,2.1696,2.1696,2.1696,2.1696,2.1696,2.1696,2.1696,0.0,0.0,2.1696,2.1696,2.1696,2.1696,2.1696,0.0,0.0,2.1678,0.0,2.0897,2.0539,2.1182,2.1592,2.1854,2.2533,2.2925,2.3091,2.3091,2.3091,2.3091,2.3091,2.3091,2.3091,2.3091,2.3091,2.3091,2.3091,2.3091,2.3091,2.3091,2.3091,2.3091,2.3091,2.3091,2.3091,2.3091,2.3091,2.3091,2.3091,2.3091,2.3091,2.3091,2.3091,2.296,2.2485,2.2043,2.1696,2.1696,2.1696,2.1696,2.1696,0.0,0.0,0.0,0.0,0.0,0.0,2.1374,2.1282,2.165,2.0955,0.0,0.0,0.0,0.0,0.0,0.0,0.0,2.3261,2.4081,0.0,2.6091,2.6091,2.6235,2.6456,2.5664,2.544,2.5693,2.5693,2.5693,2.5693,2.5693,2.5693,2.5693,2.5693,2.5986,2.6426,2.6846,2.7275,2.7767,2.8125,2.8291,2.8291,2.1607,2.1651,2.1696,2.1696,2.1696,2.1696,2.1696,2.1696,2.1696,2.1696,2.1696,2.1696,2.1696,2.1696,2.1696,0.0,2.1696,2.1696,0.0,2.1696,2.1696,2.1696,2.1696,2.1696,2.1696,2.1696,2.1696,2.1696,0.0,0.0,0.0,2.1559,2.1421,2.1355,2.1748,2.2023,2.2208,2.2614,2.2925,2.3091,2.3091,2.3091,2.3091,2.3091,2.3091,2.3091,2.3091,2.3091,2.3091,2.3091,2.3091,2.3091,2.3091,2.3091,2.3091,2.3091,2.3091,2.3091,2.3091,2.3091,2.3091,2.3091,2.3091,2.3091,2.3091,2.3013,2.2794,2.2485,2.2176,2.1919,2.1731,2.1696,2.1696,2.1696,2.1696,0.0,0.0,0.0,0.0,0.0,2.1577,2.1549,2.1678,2.1245,0.0,0.0,0.0,0.0,0.0,0.0,0.0,0.0,2.4808,0.0,2.5839,2.6177,2.6032,2.5411,2.5528,2.5635,2.5693,2.5693,2.5693,2.5693,2.5693,2.5693,2.5693,2.5693,2.5996,2.6426,2.6846,2.7285,2.7767,2.8135,2.8291,2.8291,2.1696,2.1696,2.1696,2.1696,2.1696,2.1696,2.1696,2.1696,2.1696,2.1696,2.1696,2.1696,2.1696,2.1696,0.0,2.1696,2.1696,2.1696,2.1696,2.1696,2.1696,2.1696,2.1696,2.1696,2.1696,2.1696,0.0,2.1696,2.1696,2.1696,2.1696,2.1696,2.1731,2.1874,2.2087,2.2353,2.2574,2.2794,2.2969,2.3091,2.3091,2.3091,2.3091,2.3091,2.3091,2.3091,2.3091,2.3091,2.3091,2.3091,2.3091,2.3091,2.3091,2.3091,2.3091,2.3091,2.3091,2.313,2.334,2.3218,2.3169,2.35,2.3335,2.3091,2.3091,2.2925,2.275,2.2574,2.2353,2.2176,2.1998,2.1909,2.1874,2.1874,2.1785,2.1696,2.1696,0.0,0.0,0.0,0.0,0.0,0.0,2.1898,2.1842,0.0,0.0,0.0,0.0,0.0,0.0,2.4595,2.5401,2.6197,2.6972,2.703,2.6744,2.6081,2.582,2.5878,2.6159,2.583,2.5693,2.5693,2.5693,2.5693,2.5703,2.5869,2.624,2.667,2.71,2.7519,2.7939,2.8193,2.8291,2.8291,2.1696,2.1696,2.1696,0.0,2.1696,2.1696,2.1696,2.1696,2.1696,2.1696,2.1696,2.1696,2.1696,2.1696,2.1696,2.1696,0.0,0.0,0.0,2.1696,2.1696,2.1696,2.1696,2.1696,2.1696,2.1696,2.1696,2.1696,2.1696,2.1696,2.1696,2.1741,2.1874,2.2097,2.2309,2.2574,2.2794,2.3013,2.3091,2.3091,2.3091,2.3091,2.3091,2.3091,2.3091,2.3091,2.3091,2.3091,2.3091,2.3091,2.3091,2.3091,2.3091,2.3091,2.3091,2.3091,2.3091,2.3188,2.3672,2.3496,2.3335,2.4209,2.3754,2.313,2.3101,2.2969,2.2803,2.2803,2.2618,2.2441,2.2397,2.223,2.2097,2.2097,2.1919,2.1785,2.1696,0.0,0.0,0.0,0.0,0.0,2.2715,2.2803,2.2803,0.0,0.0,0.0,0.0,0.0,2.274,2.4961,2.5944,2.7302,2.9071,2.8373,2.7998,2.7904,2.6486,2.6159,2.686,2.6062,2.5693,2.5693,2.5693,2.5703,2.5762,2.6221,2.665,2.71,2.751,2.792,2.8291,2.8291,2.8291,2.8291,0.0,0.0,2.1696,2.1696,2.1696,2.1696,2.1696,2.1696,2.1696,2.1696,2.1696,2.1696,2.1696,2.1696,2.1696,2.1696,2.1696,2.1696,2.1696,2.1696,2.1696,2.1696,2.1696,2.1696,2.1696,2.1696,2.1696,2.1696,2.1696,2.1696,2.1696,2.1919,2.2052,2.2097,2.253,2.2759,2.2794,2.3013,2.3091,2.3091,2.3091,2.3091,2.3091,2.3091,2.3091,2.3091,2.3091,2.3091,2.3091,2.3091,2.3091,2.3091,2.3091,2.3091,2.3091,2.3091,2.3091,2.3188,2.3672,2.3711,2.376,2.4287,2.4023,2.3545,2.3169,2.3047,2.2969,2.2847,2.2759,2.2583,2.223,2.2141,2.2052,2.183,2.222,2.2353,2.1785,2.2176,2.2318,0.0,2.2185,2.2618,2.2803,2.2803,2.2803,0.0,0.0,0.0,2.2759,2.3296,2.4444,2.6441,2.7393,2.8177,2.8771,2.8269,2.7704,2.7146,2.6764,2.6716,2.686,2.6062,2.5693,2.5693,2.5693,2.5879,2.624,2.6348,2.6836,2.7529,2.7679,2.792,2.8291,2.8291,2.8291,2.8291,2.1696,2.1696,2.1696,2.1696,2.1696,2.1696,2.1696,2.1696,2.1696,2.1696,2.1696,2.1696,2.1696,2.1696,2.1696,2.1696,2.1696,2.1696,2.1696,2.1696,2.1696,2.1696,2.1696,2.1696,2.1696,2.1696,2.1696,2.1696,2.1696,2.1785,2.1874,2.2052,2.223,2.2451,2.2715,2.2847,2.2925,2.3047,2.3091,2.3091,2.3091,2.3091,2.3091,2.3091,2.3091,2.3091,2.3091,2.3091,2.3091,2.3091,2.3091,2.3091,2.3091,2.3091,2.3091,2.3091,2.3091,2.3227,2.3906,2.3935,2.3848,2.4072,2.3965,2.3682,2.3198,2.3091,2.3057,2.2969,2.2838,2.2706,2.2451,2.223,2.2141,2.2309,2.2309,2.2274,2.222,2.2274,2.2141,2.1731,2.2043,2.2441,2.2759,2.2803,2.288,2.3073,2.2545,0.0,2.3462,2.4255,2.5368,2.694,2.7955,2.8757,2.9371,2.8792,2.8279,2.7904,2.7231,2.7098,2.7384,2.6207,2.5693,2.5693,2.5693,2.582,2.6123,2.6514,2.6943,2.7402,2.7803,2.8096,2.8291,2.8291,2.8291,2.8291,2.1696,2.1696,2.1696,2.1696,2.1696,2.1696,2.1696,2.1696,2.1696,2.1696,2.1696,2.1696,2.1696,2.1696,2.1696,2.1696,2.1696,2.1696,2.1696,2.1696,2.1696,2.1696,2.1696,2.1696,2.1696,2.1696,2.1696,2.1696,2.1696,2.183,2.2097,2.2141,2.2362,2.2803,2.2847,2.2925,2.3091,2.3091,2.3091,2.3091,2.3091,2.3091,2.3091,2.3091,2.3091,2.3091,2.3091,2.3091,2.3091,2.3091,2.3091,2.3091,2.3091,2.3091,2.3091,2.3091,2.3091,2.3266,2.4102,2.4111,2.3867,2.3809,2.3838,2.375,2.3208,2.3149,2.3169,2.311,2.2969,2.2838,2.275,2.2407,2.2318,2.2794,2.2309,2.2043,2.2574,0.0,2.1874,2.1874,2.1874,2.2132,2.2882,2.2838,2.2948,2.3294,2.2996,2.3257,2.4275,2.5016,2.596,2.7128,2.8121,2.9117,3.0034,2.9393,2.9082,2.9082,2.7704,2.7373,2.794,2.639,2.5693,2.5693,2.5693,2.5762,2.5937,2.6709,2.709,2.7285,2.8008,2.8291,2.8291,2.8291,2.8291,2.8291,2.1696,2.1696,2.1696,2.1696,2.1696,2.1696,2.1696,2.1696,2.1696,2.1696,2.1696,2.1696,2.1696,2.1696,2.1696,2.1696,2.1696,2.1696,2.1696,2.1696,2.1696,2.1696,2.1696,2.1696,2.1696,2.1696,2.1696,2.1696,2.1696,2.183,2.2097,2.2264,2.253,2.2803,2.2969,2.3057,2.3091,2.3091,2.3091,2.3091,2.3091,2.3091,2.3091,2.3091,2.3091,2.3091,2.3091,2.3091,2.3091,2.3091,2.3091,2.3091,2.3091,2.3091,2.3091,2.3091,2.3091,2.3208,2.375,2.4102,2.4238,2.3877,2.4062,2.4111,2.3276,2.3428,2.3584,2.3169,2.3101,2.2925,2.253,2.2397,2.2264,2.1954,2.2309,2.2441,2.1954,0.0,2.2618,2.2618,2.2618,2.2916,2.3584,2.3135,2.2832,2.289,2.2832,2.312,2.3858,2.5513,2.6919,2.7898,2.8865,2.9319,2.9255,2.9174,2.9082,2.9082,2.8233,2.7893,2.794,2.639,2.5693,2.5693,2.5693,2.6103,2.6826,2.6963,2.7441,2.8105,2.8242,2.8291,2.8291,2.8291,2.8291,2.8291,2.1696,2.1696,2.1696,2.1696,2.1696,2.1696,2.1696,2.1696,2.1696,2.1696,2.1696,2.1696,2.1696,2.1696,2.1696,2.1696,2.1696,2.1696,2.1696,2.1696,2.1696,2.1696,2.1696,2.1696,2.1696,2.1696,2.1696,2.1696,2.183,2.2043,2.2264,2.2485,2.275,2.2969,2.3057,2.3091,2.3091,2.3091,2.3091,2.3091,2.3091,2.3091,2.3091,2.3091,2.3091,2.3091,2.3091,2.3091,2.3091,2.3091,2.3091,2.3091,2.3091,2.3091,2.3091,2.3091,2.3257,2.3535,2.374,2.3935,2.4082,2.4121,2.4102,2.4033,2.3822,2.3984,2.4072,2.3822,2.3603,2.3309,2.2865,2.2862,2.291,2.2847,2.2828,0.0,2.2809,2.2828,2.2803,2.2803,2.2803,2.2925,2.3212,2.2608,2.2314,2.2485,2.2707,2.3296,2.444,2.5905,2.7258,2.8432,2.9407,2.9625,2.9128,2.9485,2.9485,2.9082,2.8373,2.7799,2.7373,2.6207,2.5693,2.5703,2.5986,2.6318,2.6709,2.7168,2.7598,2.7978,2.8203,2.8291,2.8291,2.8291,2.8291,2.8291,2.1696,2.1696,2.1696,2.1696,2.1696,2.1696,2.1696,2.1696,2.1696,2.1696,2.1696,2.1696,2.1696,2.1696,2.1696,2.1696,2.1696,2.1696,2.1696,2.1696,2.1696,2.1696,2.1696,2.1696,2.1696,2.1696,2.1696,2.1696,2.1963,2.2185,2.2397,2.2662,2.2882,2.3013,2.3091,2.3047,2.2916,2.3013,2.3013,2.3013,2.3013,2.3057,2.3091,2.3091,2.3091,2.3091,2.3091,2.3091,2.3091,2.3091,2.3091,2.3101,2.3057,2.3013,2.3013,2.296,2.3192,2.3499,2.3598,2.3598,2.3695,2.4124,2.4056,2.3978,2.43,2.4492,2.4495,2.4341,2.3998,2.3596,2.3096,2.3238,2.3489,2.3577,0.0,2.296,2.3507,2.3135,2.2803,2.2803,2.2803,2.2803,2.2803,2.2225,2.2042,2.2519,2.3073,2.3935,2.5305,2.6465,2.7574,2.8665,2.9523,2.9669,2.9128,2.9485,2.9485,2.9082,2.8186,2.7483,2.7002,2.6112,2.5801,2.5996,2.6289,2.6494,2.6738,2.7444,2.7777,2.7894,2.8164,2.8291,2.8291,2.8291,2.8291,2.8291,2.1696,2.1696,2.1696,2.1696,2.1696,2.1696,2.1696,2.1696,2.1696,2.1696,2.1696,2.1696,2.1696,2.1696,2.1696,2.1696,2.1696,2.1696,2.1696,2.1696,2.1696,2.1696,2.1696,2.1696,2.1696,2.1696,2.1696,2.1696,2.1963,2.2185,2.2397,2.2662,2.2794,2.2847,2.3013,2.2882,2.2485,2.2706,2.2803,2.2803,2.2803,2.2925,2.3091,2.3091,2.3091,2.3091,2.3091,2.3091,2.3091,2.3091,2.3091,2.3057,2.2882,2.2803,2.275,2.252,2.246,2.2621,2.3008,2.3018,2.3036,2.3686,2.3974,2.4108,2.4368,2.4727,2.4855,2.4167,2.3988,2.3725,2.2859,2.3229,2.3499,2.2949,0.0,0.0,2.2882,2.2847,2.2803,2.2803,2.2803,2.2803,2.2803,2.2468,2.2565,2.3355,2.4354,2.532,2.6169,2.754,2.8337,2.8423,2.8932,2.9174,2.9082,2.8466,2.8466,2.9082,2.7668,2.716,2.7403,2.625,2.6122,2.6904,2.6543,2.6846,2.763,2.7689,2.7891,2.8252,2.8281,2.8291,2.8291,2.8291,2.8291,2.8291,2.1696,2.1696,2.1696,2.1696,2.1696,2.1696,2.1696,2.1696,2.1696,2.1696,2.1696,2.1696,2.1696,2.1696,2.1696,2.1696,2.1696,2.1696,2.1696,2.1696,2.1696,2.1696,2.1696,2.1696,2.1696,2.1696,2.1696,2.1696,2.1963,2.2141,2.223,2.2441,2.2574,2.2574,2.2618,2.2564,2.2441,2.2715,2.2803,2.2794,2.2925,2.3013,2.3091,2.3091,2.3091,2.3091,2.3091,2.3091,2.3091,2.2969,2.2925,2.2882,2.2618,2.2574,2.253,2.2441,2.2397,2.2441,2.2618,2.2618,2.2736,2.3549,2.38,2.4002,2.4574,2.4871,2.489,2.4631,2.4449,2.4125,2.3532,2.4245,2.4644,2.3686,0.0,2.3703,2.3223,2.2967,2.2803,2.2803,2.2803,2.29,2.3159,2.2645,2.252,2.3103,2.4343,2.5376,2.6039,2.7374,2.7713,2.6754,2.7494,2.8013,2.8164,2.8362,2.8222,2.7704,2.7194,2.6853,2.6804,2.6359,2.6465,2.7021,2.7139,2.7415,2.7738,2.7949,2.8144,2.8291,2.8291,2.8291,2.8291,2.8291,2.8291,2.8291,2.1696,2.1696,2.1696,2.1696,2.1696,2.1696,2.1696,2.1696,2.1696,2.1696,2.1696,2.1696,2.1696,2.1696,2.1696,2.1696,2.1696,2.1696,2.1696,2.1696,2.1696,2.1696,2.1696,2.1696,2.1696,2.1696,2.1696,2.1696,2.1963,2.2097,2.2097,2.2309,2.2353,2.2309,2.2353,2.2309,2.222,2.2485,2.2627,2.2706,2.2828,2.2969,2.3091,2.3091,2.3091,2.3101,2.3013,2.3013,2.2969,2.275,2.2662,2.2618,2.2397,2.2264,2.2176,2.2176,2.2176,2.2204,2.2326,2.2363,2.2576,2.3502,2.373,2.3966,2.4722,2.4883,2.4883,2.4784,2.4637,2.4359,2.3862,2.4631,2.5053,2.4148,2.4196,2.4142,2.3483,2.3284,2.3051,2.2704,2.2977,2.3214,2.3227,2.2908,2.2916,2.3447,2.4773,2.5858,2.651,2.696,2.6791,2.6071,2.6388,2.6771,2.7125,2.7731,2.7647,2.6907,2.662,2.6554,2.6582,2.6455,2.6768,2.7432,2.7598,2.7796,2.7933,2.8174,2.8291,2.8291,2.8291,2.8291,2.8291,2.8291,2.8291,2.8291,2.1696,2.1696,2.1696,2.1696,2.1696,2.1696,2.1696,2.1696,2.1696,2.1696,2.1696,2.1696,2.1696,2.1696,2.1696,2.1696,2.1696,2.1696,2.1696,2.1696,2.1696,2.1696,2.1696,2.1696,2.1696,2.1696,2.1696,2.1696,2.1963,2.2097,2.2097,2.2309,2.2309,2.2097,2.2309,2.2132,2.1741,2.2008,2.223,2.2397,2.2397,2.2696,2.3091,2.3091,2.3091,2.3057,2.2882,2.2803,2.2759,2.2485,2.2397,2.2353,2.2141,2.1919,2.1696,2.1696,2.1696,2.1778,2.2172,2.2282,2.252,2.3485,2.3815,2.4093,2.4739,2.4883,2.4833,2.4529,2.448,2.431,2.362,2.4125,2.4459,2.4065,2.3988,2.3844,2.3441,2.3729,2.3558,2.2419,2.3324,2.3719,2.2998,2.327,2.3827,2.4631,2.5833,2.6935,2.794,2.6254,2.5771,2.6733,2.5819,2.5548,2.61,2.637,2.661,2.6907,2.6062,2.6142,2.7002,2.6592,2.709,2.8271,2.7851,2.791,2.8291,2.8291,2.8291,2.8291,2.8291,2.8291,2.8291,2.8291,2.8291,2.8291,2.1696,2.1696,2.1696,2.1696,2.1696,2.1696,2.1696,2.1696,2.1696,2.1696,2.1696,2.1696,2.1696,2.1696,2.1696,2.1696,2.1696,2.1696,2.1696,2.1696,2.1696,2.1696,2.1696,2.1696,2.1696,2.1696,2.1696,2.1696,2.1785,2.183,2.183,2.1865,2.1865,2.183,2.1865,2.183,2.1741,2.2008,2.223,2.2441,2.2618,2.275,2.2882,2.3057,2.2882,2.2618,2.275,2.2662,2.2485,2.2274,2.2185,2.2141,2.1919,2.1785,2.1696,2.1696,2.1696,2.1778,2.2172,2.2492,2.2859,2.3406,2.3599,2.3745,2.4307,2.4399,2.4399,2.4301,2.4301,2.4214,2.4045,2.4587,2.488,2.4233,2.4345,2.425,2.3578,2.3326,2.3084,2.2777,2.3009,2.3241,2.3288,2.3425,2.3763,2.4333,2.5178,2.5771,2.6109,2.5586,2.5197,2.4971,2.4677,2.4775,2.5274,2.5897,2.6197,2.6072,2.6143,2.6484,2.7021,2.7207,2.7656,2.8281,2.8164,2.8174,2.8291,2.8291,2.8291,2.8291,2.8291,2.8291,2.8291,2.8291,2.8291,2.8291,2.1696,2.1696,2.1696,2.1696,2.1696,2.1696,2.1696,2.1696,2.1696,2.1696,2.1696,2.1696,2.1696,2.1696,2.1696,2.1696,2.1696,2.1696,2.1696,2.1696,2.1696,2.1696,2.1696,2.1696,2.1696,2.1696,2.1696,2.1696,2.1696,2.1696,2.1696,2.1696,2.1696,2.1696,2.1607,2.1562,2.1607,2.1741,2.2008,2.2309,2.2451,2.2618,2.2803,2.2838,2.2662,2.2397,2.2495,2.2407,2.2264,2.2008,2.1919,2.1919,2.1731,2.1696,2.1696,2.1696,2.1696,2.1778,2.2172,2.2584,2.3004,2.3398,2.3618,2.3849,2.4146,2.4202,2.4202,2.4202,2.4202,2.4202,2.4202,2.4578,2.4726,2.4251,2.4382,2.4255,2.3614,2.3425,2.3373,2.316,2.3279,2.3529,2.3758,2.3785,2.4024,2.4609,2.4775,2.5011,2.5294,2.5011,2.4677,2.4202,2.4367,2.459,2.497,2.5455,2.5711,2.579,2.6266,2.6703,2.7111,2.7373,2.7775,2.8291,2.8291,2.8291,2.8291,2.8291,2.8291,2.8291,2.8291,2.8291,2.8291,2.8291,2.8291,2.8291,2.1696,2.1696,2.1696,2.1696,2.1696,2.1696,2.1696,2.1696,2.1696,2.1696,2.1696,2.1696,2.1696,2.1696,2.1696,2.1696,2.1696,2.1696,2.1696,2.1696,2.1696,2.1696,2.1696,2.1696,2.1696,2.1696,2.1696,2.1696,2.1696,2.1696,2.1696,2.1696,2.1696,2.1651,2.1482,2.1392,2.1347,2.1347,2.1607,2.2061,2.2061,2.2274,2.2662,2.2441,2.2309,2.2264,2.2097,2.2052,2.2008,2.1785,2.1696,2.1696,2.1696,2.1696,2.1696,2.1696,2.1696,2.1787,2.2217,2.2611,2.3014,2.3444,2.3877,2.4202,2.4202,2.4202,2.4202,2.4202,2.4202,2.4202,2.4202,2.4202,2.4202,2.4202,2.4202,2.4073,2.3599,2.3923,2.4064,2.359,2.3923,2.4202,2.4202,2.4202,2.4489,2.5148,2.4578,2.4489,2.5157,2.4578,2.4202,2.4202,2.4615,2.49,2.5028,2.5131,2.543,2.5915,2.6359,2.6814,2.7208,2.7247,2.7646,2.8291,2.8291,2.8291,2.8291,2.8291,2.8291,2.8291,2.8291,2.8291,2.8291,2.8291,2.8291,2.8301,2.1696,2.1696,2.1696,2.1696,2.1696,2.1696,2.1696,2.1696,2.1696,2.1696,2.1696,2.1696,2.1696,2.1696,2.1696,2.1696,2.1696,2.1696,2.1696,2.1696,2.1696,2.1696,2.1696,2.1696,2.1696,2.1696,2.1696,2.1696,2.1696,2.1696,2.1696,2.1696,2.1607,2.1482,2.1446,2.1293,2.1096,2.1096,2.1284,2.1571,2.1571,2.1616,2.1705,2.183,2.1633,2.1356,2.1687,2.1696,2.1571,2.1651,2.1696,2.1696,2.1696,2.1696,2.1696,2.1696,2.1696,2.1851,2.2574,2.284,2.3078,2.384,2.4137,2.4202,2.4202,2.4202,2.4202,2.4202,2.4202,2.4202,2.4202,2.4202,2.4202,2.4202,2.4202,2.4165,2.4082,2.4146,2.4165,2.4082,2.4146,2.4202,2.4202,2.4202,2.4251,2.444,2.4301,2.4251,2.444,2.4301,2.4202,2.4202,2.4615,2.4771,2.4619,2.5629,2.6111,2.6058,2.6186,2.6597,2.7218,2.7564,2.7927,2.8291,2.8291,2.8291,2.8291,2.8291,2.8291,2.8291,2.8291,2.8291,2.8291,2.8291,2.8291,2.834,2.1696,2.1696,2.1696,2.1696,2.1696,2.1696,2.1696,2.1696,2.1696,2.1696,2.1696,2.1696,2.1696,2.1696,2.1696,2.1696,2.1696,2.1696,2.1696,2.1696,2.1696,2.1696,2.1696,2.1696,2.1696,2.1696,2.1696,2.1696,2.1696,2.1651,2.1571,2.1571,2.1428,2.1195,2.1114,2.097,2.0871,2.0871,2.1006,2.1195,2.1195,2.1293,2.1392,2.1374,2.1221,2.1042,2.1419,2.1571,2.1562,2.1651,2.1696,2.1696,2.1616,2.1734,2.197,2.1889,2.2026,2.2364,2.2794,2.305,2.3288,2.3758,2.4005,2.4202,2.4202,2.4202,2.4202,2.4202,2.4202,2.4202,2.4202,2.4202,2.4202,2.4202,2.4202,2.4202,2.4202,2.4202,2.4202,2.4202,2.4202,2.4202,2.4202,2.4202,2.4202,2.4202,2.4202,2.4202,2.4202,2.4395,2.4413,2.4211,2.4799,2.5061,2.4932,2.557,2.6082,2.6321,2.6514,2.6829,2.7313,2.7542,2.7916,2.8291,2.8291,2.8291,2.8291,2.8291,2.8291,2.8291,2.8291,2.8291,2.8291,2.8291,2.8418,2.8682,2.1696,2.1696,2.1696,2.1696,2.1696,2.1696,2.1696,2.1696,2.1696,2.1696,2.1696,2.1696,2.1696,2.1696,2.1696,2.1696,2.1696,2.1696,2.1696,2.1696,2.1696,2.1696,2.1696,2.1696,2.1696,2.1696,2.1696,2.1696,2.1651,2.1562,2.1392,2.1347,2.1195,2.0952,2.0781,2.0654,2.0654,2.0654,2.0736,2.0862,2.0862,2.1015,2.1212,2.0961,2.0862,2.0916,2.1159,2.1428,2.1597,2.1651,2.1597,2.1562,2.1464,2.1798,2.2162,2.2096,2.2452,2.2875,2.2986,2.3242,2.3508,2.3581,2.3904,2.4202,2.4202,2.4202,2.422,2.4293,2.4257,2.4248,2.4385,2.4293,2.4229,2.4293,2.4248,2.4202,2.4202,2.4202,2.4202,2.4202,2.4202,2.4202,2.4202,2.4202,2.4202,2.4202,2.4202,2.4202,2.4202,2.4532,2.456,2.4211,2.5001,2.5387,2.5323,2.5472,2.5885,2.6481,2.6808,2.7107,2.7377,2.7476,2.7799,2.8291,2.8291,2.8291,2.8291,2.8291,2.8291,2.8291,2.8291,2.834,2.8408,2.8486,2.873,2.9141,2.1696,2.1696,2.1696,2.1696,2.1696,2.1696,2.1696,2.1696,2.1696,2.1696,2.1696,2.1696,2.1696,2.1696,2.1696,2.1696,2.1696,2.1696,2.1696,2.1696,2.1696,2.1696,2.1696,2.1696,2.1696,2.1696,2.1696,2.1696,2.1526,2.1437,2.1392,2.115,2.0961,2.0736,2.0699,2.0564,2.0337,2.0337,2.0382,2.0382,2.0382,2.0428,2.0428,2.0428,2.0382,2.0428,2.0699,2.0916,2.1132,2.1338,2.1284,2.1149,2.146,2.1657,2.181,2.2299,2.2481,2.2693,2.3277,2.3453,2.3581,2.3978,2.4165,2.4202,2.4202,2.4202,2.4312,2.467,2.4459,2.4422,2.513,2.4679,2.4321,2.4638,2.444,2.4202,2.4202,2.4202,2.4202,2.4202,2.4202,2.4202,2.4202,2.4202,2.4202,2.4202,2.4202,2.4202,2.4202,2.4257,2.4266,2.4202,2.5001,2.5207,2.4867,2.5903,2.6298,2.6104,2.6462,2.6899,2.7431,2.7691,2.8014,2.8291,2.8291,2.8291,2.8291,2.8291,2.8291,2.8291,2.8291,2.8516,2.8877,2.9258,2.9434,2.9551,2.1696,2.1696,2.1696,2.1696,2.1696,2.1696,2.1696,2.1696,2.1696,2.1696,2.1696,2.1696,2.1696,2.1696,2.1696,2.1696,2.1696,2.1696,2.1696,2.1696,2.1696,2.1696,2.1607,2.1517,2.1517,2.1374,2.132,2.132,2.1383,2.1302,2.115,2.0961,2.069,2.0473,2.0473,2.0428,2.0292,2.0292,2.0292,2.0292,2.0292,2.0292,2.0292,2.0292,2.0292,2.0337,2.0609,2.0826,2.0997,2.115,2.1247,2.1324,2.1362,2.1855,2.2482,2.2613,2.306,2.3463,2.3635,2.369,2.3726,2.3908,2.4003,2.4058,2.4445,2.456,2.4606,2.4748,2.4638,2.4735,2.5313,2.4946,2.4565,2.4748,2.4629,2.4468,2.4238,2.4202,2.4202,2.4202,2.4413,2.4459,2.422,2.4413,2.4459,2.422,2.4202,2.4202,2.4202,2.4633,2.479,2.456,2.5332,2.5672,2.5488,2.6021,2.6261,2.637,2.6653,2.7008,2.7431,2.753,2.7853,2.8291,2.8291,2.8291,2.8291,2.8291,2.8428,2.8613,2.8389,2.8555,2.8975,2.9414,2.9717,2.999]}]]